[[{"header":{"parameterUnit":"m.s-1","parameterCategory":1,"la1":31.0,"la2":29.5877,"lo1":-88.7671,"lo2":-86.6584,"dy":0.0162,"dx":0.0185,"nx":115,"ny":88,"refTime":"2026-05-09T00:00:00:Z","depth":0,"parameterNumber":2,"parameterNumberName":"U-component_of_WINDS"},"data":[0.0,0.0,0.0,0.0,0.0,0.0,0.0,0.0,0.0,0.0,0.0,0.0,0.0,0.0,0.0,0.0,0.0,0.0,0.0,0.0,0.0,0.0,0.0,0.0,0.0,0.0,0.0,0.0,0.0,0.0,0.0,0.0,0.0,0.0,0.0,0.0,0.0,0.0,0.0,0.0,0.0,0.0,0.0,0.0,0.0,0.0,0.0,0.0,0.0,0.0,0.0,0.0,0.0,0.0,0.0,0.0,0.0,0.0,0.0,0.0,0.0,0.0,0.0,0.0,0.0,0.0,0.0,0.0,0.0,0.0,0.0,0.0,0.0,0.0,0.0,0.0,0.0,0.0,0.0,0.0,0.0,0.0,0.0,0.0,0.0,0.0,0.0,0.0,0.0,0.0,0.0,0.0,0.0,0.0,0.0,0.0,0.0,0.0,0.0,0.0,0.0,0.0,0.0,0.0,0.0,0.0,0.0,0.0,0.0,0.0,0.0,0.0,0.0,0.0,0.0,0.0,0.0,0.0,0.0,0.0,0.0,0.0,0.0,0.0,0.0,0.0,0.0,0.0,0.0,0.0,0.0,0.0,0.0,0.0,0.0,0.0,0.0,0.0,0.0,0.0,0.0,0.0,0.0,0.0,0.0,0.0,0.0,0.0,0.0,0.0,0.0,0.0,0.0,0.0,0.0,0.0,0.0,0.0,0.0,0.0,0.0,0.0,0.0,0.0,0.0,0.0,0.0,0.0,0.0,0.0,0.0,0.0,0.0,0.0,0.0,0.0,0.0,0.0,0.0,0.0,0.0,0.0,0.0,0.0,0.0,0.0,0.0,0.0,0.0,0.0,0.0,0.0,0.0,0.0,0.0,0.0,0.0,0.0,0.0,0.0,0.0,0.0,0.0,0.0,0.0,0.0,0.0,0.0,0.0,0.0,0.0,0.0,0.0,0.0,0.0,0.0,0.0,0.0,0.0,0.0,0.0,0.0,0.0,0.0,0.0,0.0,0.0,0.0,0.0,0.0,0.0,0.0,0.0,0.0,0.0,0.0,0.0,0.0,0.0,0.0,0.0,0.0,0.0,0.0,0.0,0.0,0.0,0.0,0.0,0.0,0.0,0.0,0.0,0.0,0.0,0.0,0.0,0.0,0.0,0.0,0.0,0.0,0.0,0.0,0.0,0.0,0.0,0.0,0.0,0.0,0.0,0.0,0.0,0.0,0.0,0.0,0.0,0.0,0.0,0.0,0.0,0.0,0.0,0.0,0.0,0.0,0.0,0.0,0.0,0.0,0.0,0.0,0.0,0.0,0.0,0.0,0.0,0.0,0.0,0.0,0.0,0.0,0.0,0.0,0.0,0.0,0.0,0.0,0.0,0.0,0.0,0.0,0.0,0.0,0.0,0.0,0.0,0.0,0.0,0.0,0.0,0.0,0.0,0.0,0.0,0.0,0.0,0.0,0.0,0.0,0.0,0.0,0.0,0.0,0.0,0.0,0.0,0.0,0.0,0.0,0.0,0.0,0.0,0.0,0.0,0.0,0.0,0.0,0.0,0.0,0.0,0.0,0.0,0.0,0.0,0.0,0.0,0.0,0.0,0.0,0.0,0.0,0.0,0.0,0.0,0.0,0.0,0.0,0.0,0.0,0.0,0.0,0.0,0.0,0.0,0.0,0.0,0.0,0.0,0.0,0.0,0.0,0.0,0.0,0.0,0.0,0.0,0.0,0.0,0.0,0.0,0.0,0.0,0.0,0.0,0.0,0.0,0.0,0.0,0.0,0.0,0.0,0.0,0.0,0.0,0.0,0.0,0.0,0.0,0.0,0.0,0.0,0.0,0.0,0.0,0.0,0.0,0.0,0.0,0.0,0.0,0.0,0.0,0.0,0.0,0.0,0.0,0.0,0.0,0.0,0.0,0.0,0.0,0.0,0.0,0.0,0.0,0.0,0.0,0.0,0.0,0.0,0.0,0.0,0.0,0.0,0.0,0.0,0.0,0.0,0.0,0.0,0.0,0.0,0.0,0.0,0.0,0.0,0.0,0.0,0.0,0.0,0.0,0.0,0.0,0.0,0.0,0.0,0.0,0.0,0.0,0.0,0.0,0.0,0.0,0.0,0.0,0.0,0.0,0.0,0.0,0.0,0.0,0.0,0.0,0.0,0.0,0.0,0.0,0.0,0.0,0.0,0.0,0.0,0.0,0.0,0.0,0.0,0.0,0.0,0.0,0.0,0.0,0.0,0.0,0.0,0.0,0.0,0.0,0.0,0.0,0.0,0.0,0.0,0.0,0.0,0.0,0.0,0.0,0.0,0.0,0.0,0.0,0.0,0.0,0.0,0.0,0.0,0.0,0.0,0.0,0.0,0.0,0.0,0.0,0.0,0.0,0.0,0.0,0.0,0.0,0.0,0.0,0.0,0.0,0.0,0.0,0.0,0.0,0.0,0.0,0.0,0.0,0.0,0.0,0.0,0.0,0.0,0.0,0.0,0.0,0.0,0.0,0.0,0.0,0.0,0.0,0.0,0.0,0.0,0.0,0.0,0.0,0.0,0.0,0.0,0.0,0.0,0.0,0.0,0.0,0.0,0.0,0.0,0.0,0.0,0.0,0.0,0.0,0.0,0.0,0.0,0.0,0.0,0.0,0.0,0.0,0.0,0.0,0.0,0.0,0.0,0.0,0.0,0.0,0.0,0.0,0.0,0.0,0.0,0.0,0.0,0.0,0.0,0.0,0.0,0.0,0.0,0.0,0.0,0.0,0.0,0.0,0.0,0.0,0.0,0.0,0.0,0.0,0.0,0.0,0.0,0.0,0.0,0.0,0.0,0.0,0.0,0.0,0.0,0.0,0.0,0.0,0.0,0.0,0.0,0.0,0.0,0.0,0.0,0.0,0.0,0.0,0.0,0.0,0.0,0.0,0.0,0.0,0.0,0.0,0.0,0.0,0.0,0.0,0.0,0.0,0.0,0.0,0.0,0.0,0.0,0.0,0.0,0.0,0.0,0.0,0.0,0.0,0.0,0.0,0.0,0.0,0.0,0.0,0.0,0.0,0.0,0.0,0.0,0.0,0.0,0.0,0.0,0.0,0.0,0.0,0.0,0.0,0.0,0.0,0.0,0.0,0.0,0.0,0.0,0.0,0.0,0.0,0.0,0.0,0.0,0.0,0.0,0.0,0.0,0.0,0.0,0.0,0.0,0.0,0.0,0.0,0.0,0.0,0.0,0.0,0.0,0.0,0.0,0.0,0.0,0.0,0.0,0.0,0.0,0.0,0.0,0.0,0.0,0.0,0.0,0.0,0.0,0.0,0.0,0.0,0.0,0.0,0.0,0.0,0.0,0.0,0.0,0.0,0.0,0.0,0.0,0.0,0.0,0.0,0.0,0.0,0.0,0.0,0.0,0.0,0.0,0.0,0.0,0.0,0.0,0.0,0.0,0.0,0.0,0.0,0.0,0.0,0.0,0.0,0.0,0.0,0.0,0.0,0.0,0.0,0.0,0.0,0.0,0.0,0.0,0.0,0.0,0.0,0.0,0.0,0.0,0.0,0.0,0.0,0.0,0.0,0.0,0.0,0.0,0.0,0.0,0.0,0.0,0.0,0.0,0.0,0.0,0.0,0.0,0.0,0.0,0.0,0.0,0.0,0.0,0.0,0.0,0.0,0.0,0.0,0.0,0.0,0.0,0.0,0.0,0.0,0.0,0.0,0.0,0.0,0.0,0.0,0.0,0.0,0.0,0.0,0.0,0.0,0.0,0.0,0.0,0.0,0.0,0.0,0.0,0.0,0.0,0.0,0.0,0.0,0.0,0.0,0.0,0.0,0.0,0.0,0.0,0.0,0.0,0.0,0.0,0.0,0.0,0.0,0.0,0.0,0.0,0.0,0.0,0.0,0.0,0.0,0.0,0.0,0.0,0.0,0.0,0.0,0.0,0.0,0.0,0.0,0.0,0.0,0.0,0.0,0.0,0.0,0.0,0.0,0.0,0.0,0.0,0.0,0.0,0.0,0.0,0.0,0.0,0.0,0.0,0.0,0.0,0.0,0.0,0.0,0.0,0.0,0.0,0.0,0.0,0.0,0.0,0.0,0.0,0.0,0.0,0.0,0.0,0.0,0.0,0.0,0.0,0.0,0.0,0.0,0.0,0.0,0.0,0.0,0.0,0.0,0.0,0.0,0.0,0.0,0.0,0.0,0.0,0.0,0.0,0.0,0.0,0.0,0.0,0.0,0.0,0.0,0.0,0.0,0.0,0.0,0.0,0.0,0.0,0.0,0.0,0.0,0.0,4.3393,0.0,0.0,0.0,0.0,0.0,0.0,0.0,0.0,0.0,0.0,0.0,0.0,0.0,0.0,0.0,0.0,0.0,0.0,0.0,0.0,0.0,0.0,0.0,0.0,0.0,0.0,0.0,0.0,0.0,0.0,0.0,0.0,0.0,0.0,0.0,0.0,0.0,0.0,0.0,0.0,0.0,0.0,0.0,0.0,0.0,0.0,0.0,0.0,0.0,0.0,0.0,0.0,0.0,0.0,0.0,0.0,0.0,0.0,0.0,0.0,0.0,0.0,0.0,0.0,0.0,0.0,0.0,0.0,0.0,0.0,0.0,0.0,0.0,0.0,0.0,0.0,0.0,0.0,0.0,0.0,0.0,0.0,0.0,0.0,0.0,0.0,0.0,0.0,0.0,0.0,0.0,0.0,0.0,0.0,0.0,0.0,0.0,0.0,0.0,0.0,0.0,0.0,0.0,0.0,0.0,0.0,0.0,0.0,0.0,0.0,4.6471,4.5624,4.6855,4.6163,4.3239,0.0,0.0,0.0,0.0,0.0,0.0,0.0,0.0,0.0,0.0,0.0,0.0,0.0,0.0,0.0,0.0,0.0,0.0,0.0,0.0,0.0,0.0,0.0,0.0,0.0,0.0,0.0,0.0,0.0,0.0,0.0,0.0,0.0,0.0,0.0,0.0,0.0,0.0,0.0,0.0,0.0,0.0,0.0,0.0,0.0,0.0,0.0,0.0,0.0,0.0,0.0,0.0,0.0,0.0,0.0,0.0,0.0,0.0,0.0,0.0,0.0,0.0,0.0,0.0,0.0,0.0,0.0,0.0,0.0,0.0,0.0,0.0,0.0,0.0,0.0,0.0,0.0,0.0,0.0,0.0,0.0,0.0,0.0,0.0,0.0,0.0,0.0,0.0,0.0,0.0,0.0,0.0,0.0,0.0,0.0,0.0,0.0,0.0,0.0,0.0,0.0,0.0,0.0,0.0,0.0,0.0,0.0,0.0,0.0,0.0,0.0,0.0,4.8009,4.7278,4.4393,0.0,0.0,0.0,0.0,0.0,0.0,0.0,0.0,0.0,0.0,0.0,0.0,0.0,0.0,0.0,0.0,0.0,0.0,0.0,0.0,0.0,0.0,0.0,0.0,0.0,0.0,0.0,0.0,0.0,0.0,0.0,0.0,0.0,0.0,0.0,0.0,0.0,0.0,0.0,0.0,0.0,0.0,0.0,0.0,0.0,0.0,0.0,0.0,0.0,0.0,0.0,0.0,0.0,0.0,0.0,0.0,0.0,0.0,0.0,0.0,0.0,0.0,0.0,0.0,0.0,0.0,0.0,0.0,0.0,0.0,0.0,0.0,0.0,0.0,0.0,0.0,0.0,0.0,0.0,0.0,0.0,0.0,0.0,0.0,0.0,0.0,0.0,0.0,0.0,0.0,0.0,0.0,0.0,0.0,0.0,0.0,0.0,0.0,0.0,0.0,0.0,0.0,0.0,0.0,0.0,0.0,0.0,0.0,0.0,0.0,4.7163,5.0125,5.0356,0.0,4.7778,0.0,0.0,0.0,0.0,0.0,0.0,0.0,0.0,0.0,0.0,0.0,0.0,0.0,0.0,0.0,0.0,0.0,0.0,0.0,0.0,0.0,0.0,0.0,0.0,0.0,0.0,0.0,0.0,0.0,0.0,0.0,0.0,0.0,0.0,0.0,0.0,0.0,0.0,0.0,0.0,0.0,0.0,0.0,0.0,0.0,0.0,0.0,0.0,0.0,0.0,0.0,0.0,0.0,0.0,0.0,0.0,0.0,0.0,0.0,0.0,0.0,0.0,0.0,0.0,0.0,0.0,0.0,0.0,0.0,0.0,0.0,0.0,0.0,0.0,0.0,0.0,0.0,0.0,0.0,0.0,0.0,0.0,0.0,0.0,0.0,0.0,0.0,0.0,0.0,0.0,0.0,0.0,0.0,0.0,0.0,0.0,0.0,0.0,0.0,0.0,0.0,0.0,0.0,0.0,0.0,0.0,0.0,0.0,0.0,0.0,0.0,5.0664,4.9702,4.8586,0.0,0.0,0.0,0.0,0.0,0.0,0.0,0.0,0.0,0.0,0.0,0.0,0.0,0.0,0.0,0.0,0.0,0.0,0.0,0.0,0.0,0.0,0.0,0.0,0.0,0.0,0.0,0.0,0.0,0.0,0.0,0.0,0.0,0.0,0.0,0.0,0.0,0.0,0.0,0.0,0.0,0.0,0.0,0.0,0.0,0.0,0.0,0.0,0.0,0.0,0.0,0.0,0.0,0.0,0.0,0.0,0.0,0.0,0.0,0.0,0.0,0.0,0.0,0.0,0.0,0.0,0.0,0.0,0.0,0.0,0.0,0.0,0.0,0.0,0.0,0.0,0.0,0.0,0.0,0.0,0.0,0.0,0.0,0.0,0.0,0.0,0.0,0.0,0.0,0.0,0.0,0.0,0.0,0.0,0.0,0.0,0.0,0.0,0.0,0.0,0.0,0.0,0.0,0.0,0.0,0.0,0.0,0.0,0.0,0.0,4.9279,0.0,5.1587,5.0048,4.8355,4.6586,0.0,0.0,0.0,0.0,0.0,0.0,0.0,0.0,0.0,0.0,0.0,0.0,0.0,0.0,0.0,0.0,0.0,0.0,0.0,0.0,0.0,0.0,0.0,0.0,0.0,0.0,0.0,0.0,0.0,0.0,0.0,0.0,0.0,0.0,0.0,0.0,0.0,0.0,0.0,0.0,0.0,0.0,0.0,0.0,0.0,0.0,0.0,0.0,0.0,0.0,0.0,0.0,0.0,0.0,0.0,0.0,0.0,0.0,0.0,0.0,0.0,0.0,0.0,0.0,0.0,0.0,0.0,0.0,0.0,0.0,0.0,0.0,0.0,0.0,0.0,0.0,0.0,0.0,0.0,0.0,0.0,0.0,0.0,0.0,0.0,0.0,0.0,0.0,0.0,0.0,0.0,0.0,0.0,0.0,0.0,0.0,0.0,0.0,0.0,0.0,0.0,0.0,0.0,0.0,0.0,0.0,0.0,0.0,0.0,5.2125,5.1818,5.4203,5.2626,4.9817,0.0,0.0,0.0,0.0,0.0,0.0,0.0,0.0,0.0,0.0,0.0,0.0,0.0,0.0,0.0,0.0,0.0,0.0,0.0,0.0,0.0,0.0,0.0,0.0,0.0,0.0,0.0,0.0,0.0,0.0,0.0,0.0,0.0,0.0,0.0,0.0,0.0,0.0,0.0,0.0,0.0,0.0,0.0,0.0,0.0,0.0,0.0,0.0,0.0,0.0,0.0,0.0,0.0,0.0,0.0,0.0,0.0,0.0,0.0,0.0,0.0,0.0,0.0,0.0,0.0,0.0,0.0,0.0,0.0,0.0,0.0,0.0,0.0,0.0,0.0,0.0,0.0,0.0,0.0,0.0,0.0,0.0,0.0,0.0,0.0,0.0,0.0,0.0,0.0,0.0,0.0,0.0,0.0,0.0,0.0,0.0,0.0,0.0,0.0,0.0,0.0,0.0,0.0,0.0,0.0,0.0,0.0,0.0,0.0,4.9125,5.0164,5.2433,5.5742,5.1818,4.9009,0.0,0.0,0.0,0.0,0.0,0.0,0.0,0.0,0.0,0.0,0.0,0.0,0.0,0.0,0.0,0.0,0.0,0.0,0.0,0.0,0.0,0.0,0.0,0.0,0.0,0.0,0.0,0.0,0.0,0.0,0.0,0.0,0.0,0.0,0.0,0.0,0.0,0.0,0.0,0.0,0.0,0.0,0.0,0.0,0.0,0.0,0.0,0.0,0.0,0.0,0.0,0.0,0.0,0.0,0.0,0.0,0.0,0.0,0.0,0.0,0.0,0.0,0.0,0.0,0.0,0.0,0.0,0.0,0.0,0.0,0.0,0.0,0.0,0.0,0.0,0.0,0.0,0.0,0.0,0.0,0.0,0.0,0.0,0.0,0.0,0.0,0.0,0.0,0.0,0.0,0.0,0.0,0.0,0.0,0.0,0.0,0.0,0.0,0.0,0.0,0.0,0.0,0.0,0.0,0.0,0.0,0.0,0.0,0.0,4.8509,0.0,5.4164,0.0,5.1202,4.7932,0.0,0.0,0.0,0.0,0.0,0.0,0.0,0.0,0.0,0.0,0.0,0.0,0.0,0.0,0.0,0.0,0.0,0.0,0.0,0.0,0.0,0.0,0.0,0.0,0.0,0.0,0.0,0.0,0.0,0.0,0.0,0.0,0.0,0.0,0.0,0.0,0.0,0.0,0.0,0.0,0.0,0.0,0.0,0.0,0.0,0.0,0.0,0.0,0.0,0.0,0.0,0.0,0.0,0.0,0.0,0.0,0.0,0.0,0.0,0.0,0.0,0.0,0.0,0.0,0.0,0.0,0.0,0.0,0.0,0.0,0.0,0.0,0.0,0.0,0.0,0.0,0.0,0.0,0.0,0.0,0.0,0.0,0.0,0.0,0.0,0.0,0.0,0.0,0.0,0.0,0.0,0.0,0.0,0.0,0.0,0.0,0.0,0.0,0.0,0.0,0.0,0.0,0.0,0.0,0.0,0.0,0.0,0.0,0.0,5.4087,5.7434,5.6819,5.2241,5.1087,4.674,0.0,0.0,0.0,0.0,0.0,0.0,0.0,0.0,0.0,0.0,0.0,0.0,0.0,0.0,0.0,0.0,0.0,0.0,0.0,0.0,0.0,0.0,0.0,0.0,0.0,0.0,0.0,0.0,0.0,0.0,0.0,0.0,0.0,0.0,0.0,0.0,0.0,0.0,0.0,0.0,0.0,0.0,0.0,0.0,0.0,0.0,0.0,0.0,0.0,0.0,0.0,0.0,0.0,0.0,0.0,0.0,0.0,0.0,0.0,0.0,0.0,0.0,0.0,0.0,0.0,0.0,0.0,0.0,0.0,0.0,0.0,0.0,0.0,0.0,0.0,0.0,0.0,0.0,0.0,0.0,0.0,0.0,0.0,0.0,0.0,0.0,0.0,0.0,0.0,0.0,0.0,0.0,0.0,0.0,0.0,0.0,0.0,0.0,0.0,0.0,0.0,0.0,0.0,0.0,0.0,0.0,0.0,0.0,0.0,5.0164,5.3972,5.6165,5.6126,5.0971,4.7932,0.0,0.0,0.0,0.0,0.0,0.0,0.0,0.0,0.0,0.0,0.0,0.0,0.0,0.0,0.0,0.0,0.0,0.0,0.0,0.0,0.0,0.0,0.0,0.0,0.0,0.0,0.0,0.0,0.0,0.0,0.0,0.0,0.0,0.0,0.0,0.0,0.0,0.0,0.0,0.0,0.0,0.0,0.0,0.0,0.0,0.0,0.0,0.0,0.0,0.0,0.0,0.0,0.0,0.0,0.0,0.0,0.0,0.0,0.0,0.0,0.0,0.0,0.0,0.0,0.0,0.0,0.0,0.0,0.0,0.0,0.0,0.0,0.0,0.0,0.0,0.0,0.0,0.0,0.0,0.0,0.0,0.0,0.0,0.0,0.0,0.0,0.0,0.0,0.0,0.0,0.0,0.0,0.0,0.0,0.0,0.0,0.0,0.0,0.0,0.0,0.0,0.0,0.0,0.0,0.0,0.0,0.0,0.0,0.0,5.2587,5.6549,5.8434,5.7819,5.2549,4.9356,4.8548,0.0,0.0,0.0,0.0,0.0,0.0,0.0,0.0,0.0,0.0,0.0,0.0,0.0,0.0,0.0,0.0,0.0,0.0,0.0,0.0,0.0,0.0,0.0,0.0,0.0,0.0,0.0,0.0,0.0,0.0,0.0,0.0,0.0,0.0,0.0,0.0,0.0,0.0,0.0,0.0,0.0,0.0,0.0,0.0,0.0,0.0,0.0,0.0,0.0,0.0,0.0,0.0,0.0,0.0,0.0,0.0,0.0,0.0,0.0,0.0,0.0,0.0,0.0,0.0,0.0,0.0,0.0,0.0,0.0,0.0,0.0,0.0,0.0,0.0,0.0,0.0,0.0,0.0,0.0,0.0,0.0,0.0,0.0,0.0,0.0,0.0,0.0,0.0,0.0,0.0,0.0,0.0,0.0,0.0,0.0,0.0,0.0,0.0,0.0,0.0,0.0,0.0,0.0,0.0,0.0,0.0,0.0,0.0,5.9665,6.3974,6.3474,5.7934,5.5665,5.1164,0.0,0.0,0.0,0.0,0.0,0.0,0.0,0.0,0.0,0.0,0.0,0.0,0.0,0.0,0.0,0.0,0.0,0.0,0.0,0.0,0.0,0.0,0.0,0.0,0.0,0.0,0.0,0.0,0.0,0.0,0.0,0.0,0.0,0.0,0.0,0.0,0.0,0.0,0.0,0.0,0.0,0.0,0.0,0.0,0.0,0.0,0.0,0.0,0.0,0.0,0.0,0.0,0.0,0.0,0.0,0.0,0.0,0.0,0.0,0.0,0.0,0.0,0.0,0.0,0.0,0.0,0.0,0.0,0.0,0.0,0.0,0.0,0.0,0.0,0.0,0.0,0.0,0.0,0.0,0.0,0.0,0.0,0.0,0.0,0.0,0.0,0.0,0.0,0.0,0.0,0.0,0.0,0.0,0.0,0.0,0.0,0.0,0.0,0.0,0.0,0.0,0.0,0.0,0.0,0.0,0.0,0.0,0.0,0.0,6.2281,6.7705,6.8898,6.5397,5.8896,5.4164,0.0,0.0,0.0,0.0,0.0,0.0,0.0,0.0,0.0,0.0,0.0,0.0,0.0,0.0,0.0,0.0,0.0,0.0,0.0,0.0,0.0,0.0,0.0,0.0,0.0,0.0,0.0,0.0,0.0,0.0,0.0,0.0,0.0,0.0,0.0,0.0,0.0,0.0,0.0,0.0,0.0,0.0,0.0,0.0,0.0,0.0,0.0,0.0,0.0,0.0,0.0,0.0,0.0,0.0,0.0,0.0,0.0,0.0,0.0,0.0,0.0,0.0,0.0,0.0,0.0,0.0,0.0,0.0,0.0,0.0,0.0,0.0,0.0,0.0,0.0,0.0,0.0,0.0,0.0,0.0,0.0,0.0,0.0,0.0,0.0,0.0,0.0,0.0,0.0,0.0,0.0,0.0,0.0,0.0,0.0,0.0,0.0,0.0,0.0,0.0,0.0,0.0,0.0,0.0,0.0,0.0,0.0,0.0,5.9935,6.6397,7.1283,7.3091,7.1629,6.4397,5.8588,0.0,0.0,0.0,0.0,0.0,0.0,0.0,0.0,0.0,0.0,0.0,0.0,0.0,0.0,0.0,0.0,0.0,0.0,0.0,0.0,0.0,0.0,0.0,0.0,0.0,0.0,0.0,0.0,0.0,0.0,0.0,0.0,0.0,0.0,0.0,0.0,0.0,0.0,0.0,0.0,0.0,0.0,0.0,0.0,0.0,0.0,0.0,0.0,0.0,0.0,0.0,0.0,0.0,0.0,0.0,0.0,0.0,0.0,0.0,0.0,0.0,0.0,0.0,0.0,0.0,0.0,0.0,0.0,0.0,0.0,0.0,0.0,0.0,0.0,0.0,0.0,0.0,0.0,0.0,0.0,0.0,0.0,0.0,0.0,0.0,0.0,0.0,0.0,0.0,0.0,0.0,0.0,0.0,0.0,0.0,0.0,0.0,0.0,0.0,0.0,0.0,0.0,0.0,0.0,0.0,0.0,0.0,0.0,6.2743,7.0744,7.4399,7.6245,7.6092,7.0206,6.3128,0.0,0.0,0.0,0.0,0.0,0.0,0.0,0.0,0.0,0.0,0.0,0.0,0.0,0.0,0.0,0.0,0.0,0.0,0.0,0.0,0.0,0.0,0.0,0.0,0.0,0.0,0.0,0.0,0.0,0.0,0.0,0.0,0.0,0.0,0.0,0.0,0.0,0.0,0.0,0.0,0.0,0.0,0.0,0.0,0.0,0.0,0.0,0.0,0.0,0.0,0.0,0.0,0.0,0.0,0.0,0.0,0.0,0.0,0.0,0.0,0.0,0.0,0.0,0.0,0.0,0.0,0.0,0.0,0.0,0.0,0.0,0.0,0.0,0.0,0.0,0.0,0.0,0.0,0.0,0.0,0.0,0.0,0.0,0.0,0.0,0.0,0.0,0.0,0.0,0.0,0.0,0.0,0.0,0.0,0.0,0.0,0.0,0.0,0.0,0.0,0.0,0.0,0.0,0.0,0.0,0.0,0.0,0.0,6.5051,7.0783,7.5515,7.7977,7.7938,7.0283,6.3128,0.0,0.0,0.0,0.0,0.0,0.0,0.0,0.0,0.0,0.0,0.0,0.0,0.0,0.0,0.0,0.0,0.0,0.0,0.0,0.0,0.0,0.0,0.0,0.0,0.0,0.0,0.0,0.0,0.0,0.0,0.0,0.0,0.0,0.0,0.0,0.0,0.0,0.0,0.0,0.0,0.0,0.0,0.0,0.0,0.0,0.0,0.0,0.0,4.2486,0.0,0.0,0.0,0.0,0.0,0.0,0.0,0.0,0.0,0.0,0.0,0.0,0.0,0.0,0.0,0.0,0.0,0.0,0.0,0.0,0.0,0.0,0.0,0.0,0.0,0.0,0.0,0.0,0.0,0.0,0.0,0.0,0.0,0.0,0.0,0.0,0.0,0.0,0.0,0.0,0.0,0.0,0.0,0.0,0.0,0.0,0.0,0.0,0.0,0.0,0.0,0.0,0.0,0.0,0.0,0.0,0.0,0.0,0.0,6.7744,7.3168,7.7092,7.89,7.8262,7.2534,6.6064,0.0,0.0,0.0,0.0,0.0,0.0,0.0,0.0,0.0,0.0,0.0,0.0,0.0,0.0,0.0,0.0,0.0,0.0,0.0,0.0,0.0,0.0,0.0,0.0,0.0,0.0,0.0,0.0,0.0,0.0,0.0,0.0,0.0,0.0,0.0,0.0,0.0,0.0,0.0,0.0,0.0,0.0,0.0,0.0,0.0,0.0,0.0,0.0,0.0,0.0,0.0,0.0,0.0,0.0,0.0,0.0,0.0,0.0,0.0,0.0,0.0,0.0,0.0,0.0,0.0,0.0,0.0,0.0,0.0,0.0,0.0,0.0,0.0,0.0,0.0,0.0,0.0,0.0,0.0,0.0,0.0,0.0,0.0,0.0,0.0,0.0,0.0,0.0,0.0,0.0,0.0,0.0,0.0,0.0,0.0,0.0,0.0,0.0,0.0,0.0,0.0,0.0,0.0,0.0,0.0,0.0,0.0,6.3065,6.9756,7.5908,7.8639,7.9453,7.8391,7.5326,6.9596,6.1142,0.0,0.0,0.0,0.0,0.0,0.0,0.0,0.0,0.0,0.0,0.0,0.0,0.0,0.0,0.0,0.0,0.0,0.0,0.0,0.0,0.0,0.0,0.0,0.0,0.0,0.0,0.0,0.0,0.0,0.0,0.0,0.0,0.0,0.0,0.0,0.0,0.0,0.0,3.9798,4.2669,0.0,0.0,0.0,0.0,0.0,0.0,0.0,0.0,4.2155,0.0,0.0,0.0,0.0,0.0,0.0,0.0,0.0,0.0,0.0,0.0,0.0,0.0,0.0,0.0,0.0,0.0,0.0,0.0,0.0,0.0,0.0,0.0,0.0,0.0,0.0,0.0,0.0,0.0,0.0,0.0,0.0,0.0,0.0,0.0,0.0,0.0,0.0,0.0,0.0,0.0,0.0,0.0,0.0,0.0,0.0,0.0,0.0,0.0,0.0,0.0,0.0,0.0,0.0,0.0,0.0,6.2644,6.4219,6.88,7.6645,7.933,7.9906,7.8371,7.6377,7.0699,6.1223,0.0,0.0,0.0,0.0,0.0,0.0,0.0,0.0,0.0,0.0,0.0,0.0,0.0,0.0,0.0,0.0,0.0,0.0,0.0,0.0,0.0,0.0,0.0,0.0,0.0,0.0,0.0,0.0,0.0,0.0,0.0,0.0,0.0,0.0,0.0,0.0,0.0,0.0,0.0,4.806,4.9563,0.0,0.0,0.0,0.0,0.0,0.0,0.0,0.0,4.1447,0.0,0.0,0.0,0.0,0.0,0.0,0.0,0.0,0.0,0.0,0.0,0.0,0.0,0.0,0.0,0.0,0.0,0.0,0.0,0.0,0.0,0.0,0.0,0.0,0.0,0.0,0.0,0.0,0.0,0.0,0.0,0.0,0.0,0.0,0.0,0.0,0.0,0.0,0.0,0.0,0.0,0.0,0.0,0.0,0.0,0.0,0.0,0.0,0.0,0.0,0.0,0.0,0.0,0.0,0.0,6.0891,6.6776,7.2272,7.7495,7.9259,7.9493,7.8156,7.4018,6.8224,0.0,0.0,0.0,0.0,0.0,0.0,0.0,0.0,0.0,0.0,0.0,0.0,0.0,0.0,0.0,0.0,0.0,0.0,0.0,0.0,0.0,0.0,0.0,0.0,0.0,0.0,0.0,0.0,0.0,0.0,0.0,0.0,0.0,0.0,0.0,0.0,0.0,0.0,0.0,0.0,5.0569,5.1718,5.2028,0.0,0.0,0.0,0.0,0.0,0.0,4.3442,4.2085,0.0,0.0,0.0,0.0,0.0,0.0,0.0,0.0,0.0,0.0,0.0,0.0,0.0,0.0,0.0,0.0,0.0,0.0,0.0,0.0,0.0,0.0,0.0,0.0,0.0,0.0,0.0,0.0,0.0,0.0,0.0,0.0,0.0,0.0,0.0,0.0,0.0,0.0,0.0,0.0,0.0,0.0,0.0,0.0,0.0,0.0,0.0,0.0,0.0,0.0,0.0,0.0,0.0,0.0,0.0,5.8193,6.8033,7.4779,7.7845,7.8956,7.8961,7.7747,7.2154,6.6298,0.0,0.0,0.0,0.0,0.0,0.0,0.0,0.0,0.0,0.0,0.0,0.0,0.0,0.0,0.0,0.0,0.0,0.0,0.0,0.0,0.0,0.0,0.0,0.0,0.0,0.0,0.0,0.0,0.0,0.0,0.0,0.0,0.0,0.0,0.0,0.0,0.0,0.0,0.0,0.0,0.0,5.3975,5.4185,5.1895,0.0,0.0,0.0,0.0,4.6855,4.6278,0.0,0.0,0.0,0.0,0.0,0.0,0.0,0.0,0.0,0.0,0.0,0.0,0.0,0.0,0.0,0.0,0.0,0.0,0.0,0.0,0.0,0.0,0.0,0.0,0.0,0.0,0.0,0.0,0.0,0.0,0.0,0.0,0.0,0.0,0.0,0.0,0.0,0.0,0.0,0.0,0.0,0.0,0.0,0.0,0.0,0.0,0.0,0.0,0.0,0.0,0.0,0.0,0.0,0.0,0.0,0.0,5.7838,6.5044,7.1401,7.6644,7.8479,7.8555,7.6876,7.4006,6.8311,0.0,0.0,0.0,0.0,0.0,0.0,0.0,0.0,0.0,0.0,0.0,0.0,0.0,0.0,0.0,0.0,0.0,0.0,0.0,0.0,0.0,0.0,0.0,0.0,0.0,0.0,0.0,0.0,0.0,0.0,0.0,0.0,0.0,0.0,0.0,0.0,0.0,0.0,0.0,0.0,0.0,5.8226,5.3933,5.301,5.2087,0.0,0.0,4.951,5.1933,5.3395,0.0,0.0,0.0,0.0,0.0,0.0,0.0,0.0,0.0,0.0,0.0,0.0,0.0,0.0,0.0,0.0,0.0,0.0,0.0,0.0,0.0,0.0,0.0,0.0,0.0,0.0,0.0,0.0,0.0,0.0,0.0,0.0,0.0,0.0,0.0,0.0,0.0,0.0,0.0,0.0,0.0,0.0,0.0,0.0,0.0,0.0,0.0,0.0,0.0,0.0,0.0,0.0,0.0,0.0,0.0,5.2365,5.8004,6.7386,7.3701,7.6609,7.7908,7.7755,7.6036,7.1259,6.5482,0.0,0.0,0.0,0.0,0.0,0.0,0.0,0.0,0.0,0.0,0.0,0.0,0.0,0.0,0.0,0.0,0.0,0.0,0.0,0.0,0.0,0.0,0.0,0.0,0.0,0.0,0.0,0.0,0.0,0.0,0.0,0.0,0.0,0.0,0.0,0.0,0.0,0.0,0.0,0.0,0.0,0.0,5.6934,5.6395,0.0,0.0,0.0,5.3203,5.5703,0.0,0.0,0.0,0.0,0.0,0.0,0.0,0.0,0.0,0.0,0.0,0.0,0.0,0.0,0.0,0.0,0.0,0.0,0.0,0.0,0.0,0.0,0.0,0.0,0.0,0.0,0.0,0.0,0.0,0.0,0.0,0.0,0.0,0.0,0.0,0.0,0.0,0.0,0.0,0.0,0.0,0.0,0.0,0.0,0.0,0.0,0.0,0.0,0.0,0.0,0.0,0.0,0.0,0.0,0.0,0.0,0.0,5.8016,6.9534,7.5768,7.6418,7.7449,7.722,7.5462,6.9731,0.0,0.0,0.0,0.0,0.0,0.0,0.0,0.0,0.0,0.0,0.0,0.0,0.0,0.0,0.0,0.0,0.0,0.0,0.0,0.0,0.0,0.0,0.0,0.0,0.0,0.0,0.0,2.7729,0.0,0.0,0.0,0.0,0.0,0.0,0.0,0.0,0.0,0.0,0.0,0.0,0.0,0.0,5.7857,5.9281,5.9511,5.9704,0.0,0.0,5.7126,5.9204,5.9204,5.7011,0.0,0.0,0.0,0.0,0.0,0.0,0.0,0.0,0.0,0.0,0.0,0.0,0.0,0.0,0.0,0.0,0.0,0.0,0.0,0.0,0.0,0.0,0.0,0.0,0.0,0.0,0.0,0.0,0.0,0.0,0.0,0.0,0.0,0.0,0.0,0.0,0.0,0.0,0.0,0.0,0.0,0.0,0.0,0.0,0.0,0.0,0.0,0.0,0.0,0.0,0.0,0.0,0.0,0.0,0.0,5.8154,6.9502,7.5539,7.5615,7.7182,7.722,7.5501,7.1985,6.6216,0.0,0.0,0.0,0.0,0.0,0.0,0.0,0.0,0.0,0.0,0.0,0.0,0.0,0.0,0.0,0.0,0.0,0.0,0.0,0.0,0.0,0.0,0.0,0.0,0.0,0.0,0.0,0.0,0.0,0.0,0.0,0.0,0.0,0.0,0.0,0.0,0.0,0.0,0.0,0.0,0.0,5.855,5.9396,6.1473,6.3551,0.0,0.0,6.1935,6.282,6.5513,6.3743,5.2549,0.0,0.0,0.0,0.0,0.0,0.0,0.0,0.0,0.0,0.0,0.0,0.0,0.0,0.0,0.0,0.0,0.0,0.0,0.0,0.0,0.0,0.0,0.0,0.0,0.0,0.0,0.0,0.0,0.0,0.0,0.0,0.0,0.0,0.0,0.0,0.0,0.0,0.0,0.0,0.0,0.0,0.0,0.0,0.0,0.0,0.0,0.0,0.0,0.0,0.0,0.0,0.0,0.0,5.4715,5.8689,6.9769,7.5501,7.5539,7.7144,7.6953,7.4736,7.1909,6.6713,0.0,0.0,0.0,0.0,0.0,0.0,0.0,0.0,0.0,0.0,0.0,0.0,0.0,0.0,0.0,0.0,0.0,0.0,0.0,0.0,0.0,0.0,0.0,0.0,0.0,0.0,0.0,0.0,3.4224,3.4814,3.4122,0.0,0.0,0.0,0.0,0.0,0.0,0.0,0.0,0.0,0.0,5.9969,6.29,6.4629,0.0,0.0,6.6026,6.5089,6.6974,6.5705,6.2435,5.6357,5.2125,0.0,0.0,0.0,0.0,0.0,0.0,0.0,0.0,0.0,0.0,0.0,0.0,0.0,0.0,0.0,0.0,0.0,0.0,0.0,0.0,0.0,0.0,0.0,0.0,0.0,0.0,0.0,0.0,0.0,0.0,0.0,0.0,0.0,0.0,0.0,0.0,0.0,0.0,0.0,0.0,0.0,0.0,0.0,0.0,0.0,0.0,0.0,0.0,0.0,0.0,0.0,0.0,5.5021,5.9491,7.0037,7.573,7.6227,7.7411,7.7029,7.4966,7.2253,6.7477,0.0,0.0,0.0,0.0,0.0,0.0,0.0,0.0,0.0,0.0,0.0,0.0,0.0,0.0,0.0,0.0,0.0,0.0,0.0,0.0,0.0,0.0,0.0,0.0,0.0,0.0,0.0,0.0,3.6656,3.6555,3.4916,0.0,0.0,0.0,0.0,0.0,0.0,0.0,0.0,0.0,0.0,6.1313,6.5778,6.6995,6.7906,6.9289,6.746,6.6436,6.7936,6.5372,6.1834,5.7796,0.0,0.0,0.0,0.0,0.0,0.0,0.0,0.0,0.0,0.0,0.0,0.0,0.0,0.0,0.0,0.0,0.0,0.0,0.0,0.0,0.0,0.0,0.0,0.0,0.0,0.0,0.0,0.0,0.0,0.0,3.8935,0.0,0.0,0.0,0.0,0.0,0.0,0.0,0.0,0.0,0.0,0.0,0.0,0.0,0.0,0.0,0.0,0.0,0.0,0.0,0.0,0.0,0.0,0.0,6.0408,7.0342,7.6265,7.7831,7.7984,7.7564,7.6532,7.3399,6.8852,6.2815,0.0,0.0,0.0,0.0,0.0,0.0,0.0,0.0,0.0,0.0,0.0,0.0,0.0,0.0,0.0,0.0,0.0,0.0,0.0,0.0,0.0,0.0,0.0,0.0,0.0,0.0,3.6642,3.5921,3.4808,0.0,0.0,0.0,0.0,0.0,0.0,0.0,0.0,0.0,0.0,5.7876,6.2437,6.741,6.8234,6.8636,6.9442,6.7499,6.5705,6.5051,6.5308,6.3182,0.0,0.0,0.0,0.0,0.0,0.0,0.0,0.0,0.0,0.0,0.0,0.0,0.0,0.0,0.0,0.0,0.0,0.0,0.0,0.0,0.0,0.0,0.0,0.0,0.0,0.0,0.0,4.8449,4.6233,0.0,0.0,0.0,0.0,0.0,0.0,0.0,0.0,0.0,0.0,0.0,5.5441,5.7351,0.0,0.0,0.0,0.0,0.0,0.0,0.0,0.0,0.0,0.0,0.0,0.0,5.5861,6.2128,7.0916,7.6036,7.7105,7.7717,7.7335,7.5921,7.317,6.7591,5.8994,0.0,0.0,0.0,0.0,0.0,0.0,0.0,0.0,0.0,0.0,0.0,0.0,0.0,0.0,0.0,0.0,0.0,0.0,0.0,0.0,0.0,0.0,0.0,0.0,0.0,3.7417,0.0,0.0,0.0,0.0,0.0,0.0,0.0,0.0,0.0,0.0,0.0,5.1223,5.6879,6.1666,6.5694,6.8548,6.9919,7.0754,0.0,0.0,0.0,0.0,0.0,0.0,0.0,0.0,0.0,0.0,0.0,0.0,0.0,0.0,5.6142,4.672,4.3829,4.2851,4.2851,0.0,0.0,0.0,0.0,0.0,0.0,0.0,0.0,0.0,0.0,0.0,0.0,0.0,0.0,5.4333,0.0,5.2231,0.0,0.0,0.0,0.0,0.0,0.0,0.0,0.0,5.8268,6.144,6.2319,6.4191,6.3962,0.0,5.9835,5.4753,0.0,0.0,0.0,0.0,0.0,0.0,0.0,0.0,5.7313,6.3809,7.1489,7.6036,7.7105,7.7411,7.7029,7.5883,7.2597,6.7018,5.9033,5.4218,4.948,0.0,0.0,0.0,0.0,0.0,0.0,0.0,0.0,0.0,0.0,0.0,0.0,0.0,0.0,0.0,0.0,0.0,0.0,0.0,0.0,0.0,0.0,0.0,3.9303,0.0,0.0,0.0,0.0,0.0,0.0,0.0,0.0,0.0,4.7103,5.127,5.6129,6.1207,6.49,6.7852,6.9833,0.0,0.0,0.0,0.0,0.0,0.0,0.0,6.4342,6.3981,6.195,5.9996,5.9089,6.1486,6.2988,6.1218,0.0,0.0,5.2877,5.0144,4.9341,4.9362,5.0473,5.1491,5.1798,5.3866,5.5476,0.0,0.0,0.0,0.0,0.0,0.0,0.0,0.0,5.8268,5.8994,0.0,5.6969,0.0,0.0,0.0,0.0,0.0,0.0,0.0,0.0,6.805,7.1298,7.061,7.1412,7.0992,6.9502,6.9922,6.6445,5.9071,4.9519,0.0,0.0,0.0,0.0,0.0,0.0,5.9606,6.5528,7.2138,7.6303,7.7831,7.7144,7.6647,7.6418,7.1871,6.7324,6.3083,5.8956,5.4065,4.8296,4.4819,0.0,0.0,0.0,0.0,0.0,0.0,0.0,0.0,0.0,0.0,0.0,0.0,0.0,0.0,0.0,0.0,0.0,0.0,0.0,0.0,4.0133,0.0,0.0,0.0,0.0,0.0,0.0,0.0,0.0,0.0,0.0,5.1423,5.5938,6.1228,6.6025,0.0,0.0,0.0,0.0,6.9781,7.0662,6.9421,6.8416,6.8416,6.8855,6.8449,6.6154,0.0,0.0,6.402,6.6629,6.7737,6.3054,6.4947,6.6369,6.4535,6.119,5.9075,5.9037,5.8451,5.854,5.946,6.1261,6.2985,7.0113,0.0,0.0,0.0,0.0,6.484,6.698,7.0113,7.0342,6.889,6.6216,6.4917,0.0,0.0,0.0,0.0,0.0,0.0,6.1631,6.591,7.0533,7.3437,7.4927,7.5806,7.531,7.3705,7.2711,7.019,6.6178,6.0981,5.376,4.4934,0.0,0.0,0.0,0.0,6.2204,6.8012,7.2979,7.5997,7.7029,7.6838,7.5844,7.4087,7.2062,6.9005,6.4802,6.2357,5.8651,5.3454,4.9442,0.0,0.0,0.0,0.0,0.0,0.0,0.0,0.0,0.0,0.0,0.0,0.0,0.0,0.0,0.0,0.0,0.0,0.0,0.0,3.8397,3.9868,4.1034,0.0,0.0,0.0,0.0,0.0,0.0,0.0,0.0,0.0,6.0856,6.3112,6.5291,0.0,0.0,7.1145,7.0075,7.156,7.2898,7.3127,0.0,0.0,0.0,7.1166,7.0324,7.0757,7.145,7.1489,7.0337,7.1107,7.145,6.9916,7.0495,7.0839,6.9578,6.5864,6.2997,6.2768,6.2997,6.3753,6.5168,6.6544,6.7615,7.829,7.247,6.9828,6.954,7.0916,7.1259,7.3323,7.6494,7.6494,7.5424,7.359,7.2406,6.8432,6.2471,6.0485,0.0,0.0,0.0,6.6522,7.0495,7.3552,7.5959,7.7717,7.8252,7.7793,7.6418,7.4431,7.2673,7.1107,6.7821,6.228,5.4677,0.0,0.0,5.5365,5.9682,6.4458,6.9578,7.317,7.508,7.5233,7.5233,7.4354,7.2559,7.1642,6.9846,6.7018,6.4955,6.2051,5.8001,5.3836,4.9137,0.0,0.0,0.0,0.0,0.0,0.0,0.0,0.0,0.0,0.0,0.0,3.4426,0.0,0.0,0.0,0.0,3.6222,3.9584,4.2259,4.3578,0.0,0.0,0.0,0.0,0.0,0.0,0.0,5.6702,6.078,6.4488,6.7935,6.9425,7.0266,7.0381,7.2176,7.3017,7.1871,0.0,7.4813,7.5157,7.5615,7.5921,7.573,7.4465,7.3701,7.4354,7.4163,7.401,7.3972,7.3972,7.3858,7.359,7.3476,7.3208,7.2367,6.9693,6.7553,6.7247,6.7553,6.8356,6.9655,7.0342,7.0877,8.4347,8.366,7.8552,7.6306,7.6191,7.6914,7.7717,7.8481,7.8443,7.9245,8.0544,7.8939,7.5883,7.1718,6.6942,0.0,6.7477,6.9769,7.2138,7.4698,7.7105,7.8634,7.936,7.9398,7.8939,7.8022,7.5653,7.4431,7.4125,7.103,6.8661,6.698,6.1554,6.0255,6.3083,6.4153,6.6674,7.0648,7.3055,7.3858,7.3132,7.3017,7.2559,7.1603,7.0839,6.9922,6.889,6.6636,6.4229,6.1631,5.7734,5.2996,4.7302,0.0,0.0,0.0,0.0,0.0,0.0,0.0,0.0,0.0,0.0,0.0,0.0,0.0,0.0,0.0,4.2068,0.0,4.7837,4.9404,0.0,0.0,0.0,4.8907,5.0168,5.4333,5.8116,6.079,0.0,0.0,7.2902,0.0,7.5386,7.4622,7.4507,7.4736,7.5386,7.5615,7.6074,7.6838,7.6953,7.7296,7.7984,7.7908,7.7449,7.6761,7.6188,7.5692,7.5577,7.5539,7.5233,7.4431,7.4316,7.4087,7.3323,7.3017,7.2941,7.1985,7.1756,7.1947,7.2711,7.2941,7.3017,8.6686,8.6476,8.4987,8.3291,8.155,8.1498,8.1996,8.2722,8.2111,8.2034,8.2302,8.0659,7.7946,7.4431,7.1298,7.1183,7.3437,7.401,7.5653,7.8099,7.936,8.0009,8.02,8.0238,7.978,7.8939,7.7717,7.6456,7.5119,7.3093,7.1565,7.0419,6.7821,6.6254,6.5872,6.7859,7.0381,7.3284,7.3896,7.4125,7.3896,7.3323,7.2291,7.0763,7.0533,6.912,6.6445,6.5757,6.4229,6.1707,5.8842,5.5479,5.1467,4.4704,0.0,0.0,0.0,0.0,0.0,0.0,0.0,0.0,0.0,3.9928,3.3891,0.0,4.0501,0.0,4.3902,4.715,4.948,5.0054,0.0,0.0,5.4486,5.5479,6.0064,6.1096,6.2892,6.6674,7.0037,7.2788,7.466,7.6379,7.7335,7.7144,7.7105,7.6723,7.5768,7.722,7.8443,7.8634,7.913,7.9665,7.9742,7.936,7.8672,7.7831,7.7526,7.7182,7.6532,7.6418,7.615,7.5386,7.5195,7.508,7.4927,7.4889,7.4851,7.4545,7.359,7.2941,7.3743,7.3934,7.4278,8.7254,8.7241,8.7061,8.6116,8.4816,8.4719,8.4747,8.4785,8.4327,8.3907,8.3486,8.2187,8.0162,7.7678,7.6227,7.5959,7.6609,7.6609,7.7373,7.871,7.9169,7.9398,7.9398,7.9398,7.913,7.8672,7.7831,7.7144,7.657,7.5271,7.4393,7.3896,7.2979,7.1909,7.0648,7.0495,7.1642,7.4163,7.3858,7.3667,7.3628,7.2864,7.1412,6.9387,6.9311,6.7897,6.4993,6.4496,6.3121,6.0599,5.8459,5.5938,5.2881,4.7417,4.3367,0.0,0.0,0.0,0.0,0.0,0.0,0.0,0.0,0.0,0.0,0.0,4.4055,4.4819,4.8296,5.1505,5.3989,5.525,5.7046,5.9835,5.9988,6.1172,6.4382,6.5337,6.7056,7.0495,7.2788,7.4889,7.6914,7.7984,7.871,7.9054,7.9092,7.8672,7.7602,7.8748,7.9818,7.9856,8.02,8.0506,8.0506,7.9818,7.913,7.8672,7.8252,7.7831,7.7373,7.7296,7.7144,7.6723,7.6609,7.6609,7.6609,7.6609,7.6609,7.6494,7.5883,7.5348,7.531,7.5615,7.6227,8.7105,8.699,8.6841,8.6685,8.6585,8.6938,8.6532,8.5698,8.5508,8.5051,8.4365,8.3333,8.2111,8.0812,8.0582,7.978,7.8481,7.8366,7.8328,7.8328,7.8213,7.8137,7.8022,7.8022,7.8022,7.7984,7.722,7.7182,7.7793,7.7067,7.6647,7.6532,7.6418,7.6074,7.5386,7.2406,7.1985,7.4163,7.3399,7.2979,7.2979,7.2024,7.0381,6.805,6.7668,6.6407,6.4,6.3045,6.1516,5.9224,5.7619,5.5708,5.3378,4.9901,4.7188,0.0,4.2985,0.0,0.0,0.0,0.0,0.0,0.0,0.0,0.0,4.7111,4.8525,4.9939,5.3798,5.7122,5.9376,6.1784,6.3274,6.3427,6.4993,6.6025,6.6139,6.8279,7.0724,7.3055,7.4775,7.6723,7.8825,7.9436,7.9895,8.0506,8.0735,8.0582,7.9971,8.0162,8.043,8.0506,8.0506,8.0506,8.043,7.9933,7.9474,7.936,7.8939,7.829,7.8213,7.8175,7.8137,7.7984,7.787,7.7908,7.8022,7.7946,7.7946,7.787,7.787,7.7717,7.7067,7.7296,7.8022,8.7582,8.7064,8.747,8.7205,8.6733,8.7885,8.7877,8.6784,8.541,8.4986,8.5129,8.299,8.2225,8.2378,8.1117,8.0697,8.1041,8.0353,8.0009,8.0009,7.9321,7.8672,7.8022,7.8022,7.8022,7.7984,7.7831,7.7487,7.6953,7.6761,7.6341,7.5692,7.5042,7.4927,7.5386,0.0,0.0,0.0,7.3399,7.2979,7.2941,7.145,6.9769,6.7935,6.656,0.0,6.2242,6.1287,6.0332,5.9147,5.8154,0.0,0.0,0.0,0.0,0.0,0.0,0.0,0.0,0.0,0.0,0.0,5.1238,5.0015,4.864,5.2881,5.5594,5.5326,5.8383,6.0905,6.2089,6.3809,6.5222,6.5987,6.805,6.9464,6.954,7.168,7.3743,7.4889,7.6494,7.7946,7.913,8.0468,8.1347,8.1499,8.2111,8.2455,8.2264,8.1232,8.0544,8.0506,8.0506,8.0506,8.0506,8.0353,8.02,8.0238,8.0162,7.9742,7.9207,7.9054,7.8748,7.8252,7.8022,7.8061,7.8061,7.8022,7.8099,7.8022,7.8596,7.8787,7.7946,7.787,7.8213,8.8096,0.0,8.7771,8.7571,0.0,8.7897,8.8242,8.7914,8.6955,8.6159,8.5397,8.3754,8.2798,8.2378,8.1538,8.1117,8.1117,8.0697,8.0506,8.0468,7.9665,7.9054,7.8634,7.8213,7.8022,7.8022,7.8022,7.7755,7.7373,7.7335,7.7144,7.6723,7.6303,7.6303,7.6723,7.6303,7.5692,7.4851,7.4431,7.401,7.359,7.275,7.0877,6.8012,0.0,0.0,0.0,0.0,0.0,0.0,0.0,0.0,0.0,0.0,0.0,5.2079,5.0932,5.0245,5.0321,5.1811,5.3874,5.6358,5.7313,5.674,5.4218,5.7542,5.9911,6.037,6.228,6.4,6.5261,6.6522,6.7591,6.847,7.0037,7.1183,7.1794,7.3552,7.5157,7.6074,7.7564,7.8939,7.978,8.0964,8.1729,8.1843,8.2493,8.3028,8.2913,8.1958,8.1041,8.0582,8.0506,8.0506,8.0506,8.0506,8.0506,8.0506,8.0506,8.0353,7.9971,7.9895,7.9704,7.9321,7.9245,7.9245,7.9245,7.9245,7.9245,7.9245,7.9589,7.978,7.9321,7.9245,7.936,8.8683,8.7288,8.7912,8.7729,8.7064,8.7526,8.8083,8.8617,0.0,0.0,0.0,8.4709,8.3639,8.2455,8.2302,8.192,8.1385,8.1232,8.1079,8.0888,8.0124,7.9665,7.9474,7.8787,7.8366,7.8252,7.8213,7.8137,7.8022,7.8022,7.8022,7.7984,7.787,7.7642,7.7416,7.7341,7.6579,7.5321,7.532,7.4936,7.4097,7.3834,7.1931,6.816,6.7273,6.494,6.1124,6.0189,5.8842,5.6855,5.6434,5.674,5.7581,5.5861,5.6052,5.8803,5.8498,5.8192,5.8345,5.9911,6.0752,6.0446,6.251,6.2853,6.0599,6.1707,6.3159,6.4688,6.5605,6.6674,6.8203,6.912,6.996,7.0763,7.1603,7.2444,7.3208,7.4698,7.6036,7.6914,7.829,7.9665,8.0621,8.1499,8.2111,8.234,8.3066,8.3333,8.3104,8.2378,8.1499,8.0964,8.0697,8.0506,8.0506,8.0506,8.0506,8.0506,8.0506,8.0506,8.0506,8.0506,8.0506,8.0391,8.0506,8.043,8.0468,8.0391,8.0506,8.0506,8.0506,8.0506,8.0506,8.0506,8.043,8.9491,8.8059,8.8169,8.7729,8.6995,8.7064,8.746,8.7995,8.8132,8.7572,8.6543,8.4976,8.4556,8.4938,8.425,8.425,8.4747,8.4098,8.3372,0.0,8.1843,8.1041,8.0353,8.02,7.978,7.913,7.9092,7.871,7.8061,7.8022,7.8022,7.7908,7.7258,7.6312,7.5203,7.4752,7.4463,7.4237,7.4623,7.4406,7.3609,7.2486,7.0955,6.896,6.7732,6.5872,6.3217,6.2597,6.2204,6.186,6.0485,6.0408,6.1784,5.9033,5.7886,5.8994,5.8994,5.9262,6.0026,6.1593,6.3465,6.5452,6.6598,6.6751,6.5757,6.5834,6.6369,6.7324,6.8126,6.9043,6.9999,7.0801,7.1642,7.252,7.3361,7.3934,7.4125,7.5577,7.6914,7.7755,7.8672,7.9933,8.1308,8.2302,8.3066,8.383,8.4365,8.4862,8.4059,8.276,8.1843,8.1538,8.0964,8.0582,8.0582,8.0506,8.0544,8.0506,8.0506,8.0506,8.0506,8.0506,8.0506,8.0506,8.0506,8.0506,8.0506,8.0506,8.0506,8.0506,8.0506,8.0506,8.0506,8.0506,8.0506,9.0298,8.8904,8.8867,8.839,8.7619,8.7549,8.7873,8.8426,8.8783,8.8219,8.6888,8.5252,8.4618,8.4747,8.3945,8.3864,8.4339,8.4322,8.417,8.3887,8.3368,8.2951,8.2531,8.2073,8.1423,8.0697,8.0659,7.982,7.8406,7.829,7.8131,7.7846,7.7425,7.6695,7.5765,7.5463,7.5136,7.4685,7.4463,7.4136,7.3797,7.3161,7.2049,7.0398,6.8918,6.7579,6.6218,6.4857,6.3972,6.3618,6.2566,6.2299,6.2786,6.0981,6.0676,6.2357,6.251,6.2892,6.377,6.4917,6.6522,6.8547,6.9043,6.9502,7.0075,6.9234,6.8852,6.9273,7.0457,7.1412,7.1794,7.2176,7.2902,7.424,7.4698,7.5271,7.6227,7.7296,7.8252,7.8748,7.9856,8.0964,8.169,8.2913,8.3792,8.4327,8.5015,8.532,8.4976,8.3945,8.299,8.2531,8.2111,8.169,8.1308,8.1194,8.1003,8.0582,8.0506,8.0506,8.0506,8.0506,8.0506,8.0506,8.0506,8.0506,8.0506,8.0506,8.0506,8.0506,8.0506,8.0506,8.0506,8.0506,8.0506,9.0996,8.9711,8.9711,8.9124,8.8202,8.7858,8.796,8.8405,8.8859,8.8414,8.7248,8.5991,8.5257,8.4785,8.3754,8.3443,8.365,8.3862,8.4129,8.429,8.4282,8.4211,8.4093,8.3557,8.2868,8.2063,8.1756,8.0714,7.9047,7.87,7.8255,7.7727,7.7689,7.7228,7.6343,7.6157,7.5807,7.5209,7.4537,7.4099,7.3821,7.3725,7.2918,7.1499,7.0321,6.9347,6.859,6.7074,6.5917,6.5318,6.4571,6.4339,6.461,6.3444,6.3885,6.6139,6.6178,6.6445,6.7439,6.8126,6.9196,7.0839,7.0992,7.1565,7.2673,7.1985,7.1183,7.1183,7.2329,7.3246,7.3284,7.3705,7.4354,7.5615,7.5959,7.657,7.7831,7.8748,7.9398,7.9665,8.0888,8.1881,8.2493,8.3486,8.4327,8.4632,8.5129,8.5473,8.5435,8.4938,8.4289,8.3715,8.3257,8.2722,8.2149,8.2073,8.1805,8.1117,8.0926,8.0926,8.085,8.0697,8.0506,8.0506,8.0506,8.0506,8.0506,8.0506,8.0506,8.0506,8.0506,8.0506,8.0506,8.0506,8.0506,9.1289,9.0555,9.0482,8.9601,8.8169,8.7431,8.72,8.7231,8.7231,8.7517,8.778,8.7791,8.7263,8.6428,8.4822,8.4133,8.4093,8.3447,8.318,8.3292,8.3983,8.4012,8.3588,8.415,8.3805,8.2511,8.1746,8.0956,7.9867,7.9142,7.8391,7.7716,7.7652,7.7067,7.5841,7.5309,7.4985,7.4948,7.4874,7.4329,7.3372,7.2871,7.2225,7.1379,7.1606,7.0971,6.9581,6.9332,6.9051,6.8508,6.7119,6.755,6.9473,6.7626,6.7324,6.9578,6.8508,6.8356,6.9846,7.0151,7.0954,7.252,7.275,7.2864,7.3132,7.359,7.3514,7.317,7.3628,7.4125,7.4201,7.5386,7.6303,7.6647,7.7296,7.787,7.8175,7.8787,7.9551,8.0353,8.1347,8.234,8.3639,8.4212,8.4594,8.5206,8.5397,8.5511,8.5511,8.5397,8.5244,8.4938,8.4059,8.3142,8.2913,8.2875,8.276,8.2607,8.2111,8.1729,8.1499,8.1003,8.0506,8.0506,8.0506,8.0506,8.0506,8.0506,8.0506,8.0506,8.0506,8.0506,8.0506,8.0506,8.0506,9.162,9.1289,9.0812,8.9674,8.8243,8.7839,8.7435,8.7031,8.7431,8.7683,8.7985,8.8307,8.7787,8.6377,8.4713,8.385,8.3527,8.303,8.2831,8.3038,8.3747,8.3682,8.3073,8.3337,8.2925,8.197,8.2045,8.1499,8.0468,7.9762,7.8718,7.7533,7.7478,7.6736,7.5306,7.5,7.4918,7.4918,7.4918,7.4669,7.4216,7.3566,7.3046,7.2716,7.2429,7.215,7.1798,7.1504,7.0985,7.0173,6.9001,6.8439,6.8717,6.7648,6.768,6.9198,7.0358,7.1221,7.1909,7.2367,7.2979,7.3667,7.4201,7.466,7.5157,7.5959,7.6303,7.6036,7.5768,7.5692,7.5768,7.6761,7.7678,7.8137,7.8557,7.8939,7.9474,8.0238,8.0926,8.1308,8.2455,8.3448,8.4212,8.4709,8.5129,8.5473,8.5511,8.5511,8.5511,8.5511,8.5511,8.5435,8.4862,8.4327,8.3907,8.3754,8.3563,8.3104,8.2722,8.2455,8.1881,8.1614,8.1156,8.0621,8.0582,8.0582,8.0506,8.0506,8.0506,8.0506,8.0506,8.0506,8.0506,8.0506,8.0506,9.1803,9.1657,9.0922,8.9784,8.8536,8.828,8.7619,8.6843,8.7349,8.7507,8.7386,8.8032,8.7652,8.6383,8.5058,8.4067,8.3246,8.281,8.257,8.2613,8.3276,8.3194,8.2511,8.2698,8.2366,8.1846,8.2239,8.1903,8.0756,8.0258,7.9216,7.7916,7.7818,7.7229,7.6056,7.5946,7.5909,7.5946,7.5909,7.5799,7.5506,7.4771,7.4147,7.367,7.3156,7.3018,7.3367,7.2964,7.2272,7.1419,7.0714,6.9714,6.8323,6.8296,6.879,6.9699,7.1825,7.3189,7.3231,7.3951,7.4406,7.4747,7.5621,7.6418,7.7029,7.764,7.7984,7.7908,7.764,7.7335,7.7144,7.8022,7.8863,7.9283,7.9627,8.0238,8.0812,8.1614,8.2187,8.2569,8.3486,8.4403,8.4671,8.5129,8.5473,8.5511,8.5511,8.5511,8.5511,8.5511,8.5511,8.5511,8.5473,8.5244,8.4747,8.4632,8.425,8.3907,8.3601,8.3181,8.2531,8.2378,8.1881,8.1308,8.1003,8.0697,8.0544,8.0506,8.0506,8.0506,8.0506,8.0506,8.0506,8.0506,8.0506,9.1803,9.1693,9.0959,9.0152,8.9307,8.8573,8.7362,8.6151,8.6733,8.6623,8.6176,8.6764,8.7059,8.69,8.6266,8.5279,8.3801,8.3014,8.2249,8.1709,8.2339,8.2403,8.188,8.2586,8.2682,8.1955,8.2102,8.1755,8.0992,8.0674,7.986,7.8614,7.8914,7.8935,7.821,7.8075,7.8369,7.8148,7.8148,7.7965,7.7268,7.6423,7.5359,7.4074,7.3707,7.3765,7.3676,7.3332,7.296,7.2483,7.241,7.1892,7.0821,7.1004,7.1531,7.241,7.3099,7.3673,7.3979,7.4506,7.5129,7.5926,7.7151,7.7908,7.8061,7.8366,7.8443,7.8099,7.8939,7.8978,7.8404,7.9436,8.0009,7.9627,8.0773,8.1499,8.1729,8.2378,8.3257,8.3868,8.4212,8.4671,8.532,8.5473,8.5511,8.5511,8.5511,8.5511,8.5511,8.5511,8.5511,8.5511,8.5511,8.5473,8.5435,8.5244,8.5282,8.5015,8.4441,8.4136,8.3907,8.3524,8.2684,8.1996,8.169,8.127,8.0735,8.0506,8.0506,8.0506,8.0506,8.0506,8.0506,8.0506,8.0506,9.1803,9.1767,9.1473,9.0922,9.0115,8.9307,8.8353,8.7288,8.6518,8.6077,8.5857,8.6114,8.6224,8.6292,8.6611,8.6138,8.499,8.3732,8.2954,8.2621,8.2436,8.1945,8.1391,8.1612,8.1339,8.0819,8.1195,8.1305,8.1048,8.0898,8.0088,7.8835,7.8799,7.8541,7.7892,7.7781,7.8038,7.8516,7.8589,7.8699,7.8809,7.8626,7.7671,7.6093,7.5506,7.4992,7.4515,7.4322,7.4089,7.3702,7.2997,7.2495,7.2369,7.2294,7.2698,7.3571,7.4372,7.5057,7.5664,7.6389,7.6922,7.7341,7.8751,7.9551,7.978,8.0506,8.1003,8.0659,8.1156,8.127,8.0735,8.1003,8.1232,8.1079,8.1423,8.2034,8.2455,8.2837,8.3333,8.4136,8.4709,8.5206,8.5397,8.5511,8.5511,8.5511,8.5511,8.5511,8.5511,8.5511,8.5511,8.5511,8.5511,8.5511,8.5511,8.5511,8.5473,8.5435,8.5129,8.4709,8.4403,8.4212,8.3524,8.276,8.2378,8.1958,8.1423,8.0964,8.0888,8.0621,8.0621,8.0659,8.0506,8.0506,8.0506,9.173,9.1803,9.1803,9.1326,9.0555,9.0041,8.905,8.7802,8.6921,8.6151,8.5563,8.5673,8.5637,8.5527,8.6004,8.6151,8.5673,8.4389,8.3654,8.3324,8.2553,8.1929,8.1452,8.1379,8.1122,8.0681,8.0828,8.1012,8.0975,8.0718,8.0021,7.9029,7.8993,7.8699,7.8185,7.8112,7.8332,7.8626,7.8846,7.914,7.9433,7.9653,7.9286,7.8222,7.7561,7.6644,7.5395,7.5285,7.5206,7.4866,7.3844,7.3182,7.3017,7.3168,7.3625,7.4455,7.5542,7.6498,7.7138,7.7796,7.8256,7.8599,7.9667,8.0468,8.0392,8.1534,8.1835,8.16,8.1934,8.2162,8.1858,8.1858,8.2098,8.2186,8.2187,8.2531,8.3295,8.3639,8.4098,8.4632,8.5129,8.5435,8.5511,8.5511,8.5511,8.5511,8.5511,8.5511,8.5511,8.5511,8.5511,8.5511,8.5511,8.5511,8.5511,8.5511,8.5511,8.5473,8.5473,8.5091,8.49,8.4709,8.4327,8.3563,8.3028,8.2569,8.2111,8.1614,8.127,8.1003,8.0964,8.1079,8.0812,8.0506,8.0582,9.162,9.173,9.1767,9.1289,9.0629,9.0519,8.9234,8.7655,8.7802,8.6738,8.527,8.5527,8.538,8.4829,8.4939,8.5159,8.5416,8.4829,8.4205,8.3618,8.2774,8.2333,8.2223,8.2186,8.2113,8.1929,8.1379,8.1048,8.0975,8.0388,7.991,7.9764,7.969,7.958,7.969,7.9507,7.9323,7.9066,7.9433,7.9433,7.8846,7.9543,7.9837,7.9727,7.9617,7.8552,7.635,7.6203,7.6166,7.6116,7.5322,7.4184,7.3292,7.4014,7.4698,7.5273,7.664,7.7666,7.8096,7.8351,7.8836,7.9562,8.0273,8.0578,8.0396,8.0915,8.1196,8.0865,8.1294,8.1533,8.1658,8.2172,8.2699,8.2907,8.2912,8.3255,8.4135,8.4937,8.5473,8.5395,8.5433,8.5511,8.5511,8.5511,8.5511,8.5511,8.5511,8.5511,8.5511,8.5511,8.5511,8.5511,8.5511,8.5511,8.5511,8.5511,8.5511,8.5511,8.5511,8.5358,8.532,8.5167,8.4938,8.4327,8.3907,8.3448,8.2722,8.2302,8.2187,8.1958,8.1805,8.1614,8.1423,8.1194,8.0888,9.0887,9.0996,9.0959,9.0849,9.0629,9.0629,9.0115,8.9307,8.8096,8.6958,8.6297,8.593,8.5343,8.4903,8.5159,8.5233,8.4976,8.4719,8.4756,8.4829,8.4168,8.3508,8.3104,8.303,8.2737,8.2223,8.1966,8.1525,8.1085,8.0755,8.0388,7.991,7.9837,7.98,7.9837,7.98,7.9837,8.0204,7.991,8.0131,8.0901,8.0755,8.0608,8.0608,8.0608,7.9947,7.8699,7.8112,7.7855,7.7781,7.7011,7.6236,7.5828,7.6458,7.6882,7.6834,7.7255,7.7978,7.8578,7.8778,7.9171,8.0037,8.116,8.1802,8.1807,8.2372,8.2461,8.1956,8.2571,8.2909,8.2458,8.2772,8.3171,8.3259,8.3302,8.3612,8.441,8.4522,8.4765,8.5311,8.519,8.5148,8.5393,8.555,8.5588,8.5588,8.5588,8.5626,8.5511,8.5588,8.5511,8.5511,8.5511,8.5511,8.5511,8.5511,8.5511,8.5511,8.5511,8.5511,8.5511,8.5473,8.5282,8.5091,8.4671,8.4212,8.3448,8.3142,8.3066,8.2875,8.2646,8.2455,8.2264,8.1996,8.169,9.0301,9.0374,9.0484,9.0447,9.0411,9.0813,9.0813,9.0373,8.8943,8.8023,8.7399,8.6591,8.5783,8.5159,8.4976,8.4829,8.4609,8.4609,8.5049,8.5563,8.4976,8.4315,8.3801,8.3508,8.3398,8.3067,8.281,8.2406,8.1929,8.1856,8.1489,8.0828,8.0681,8.0534,8.0277,8.0241,8.0424,8.0498,8.0351,8.0718,8.1489,8.1562,8.1452,8.1452,8.1452,8.1158,8.0681,8.0167,7.9653,7.9029,7.8222,7.756,7.7213,7.7731,7.8051,7.7754,7.832,7.9022,7.9486,7.9753,8.0155,8.098,8.1731,8.1964,8.2046,8.2628,8.276,8.2277,8.2874,8.3338,8.2944,8.3251,8.3644,8.3877,8.3834,8.4144,8.4747,8.4673,8.4803,8.5311,8.527,8.5342,8.5775,8.597,8.597,8.6008,8.6275,8.6008,8.5893,8.5817,8.5817,8.5702,8.5511,8.5511,8.5511,8.5511,8.5511,8.5511,8.5511,8.5511,8.5511,8.5511,8.5397,8.5358,8.5053,8.4976,8.4365,8.425,8.4174,8.383,8.3448,8.3181,8.2951,8.276,8.2493,8.9815,9.0003,9.0264,9.0264,9.0187,9.118,9.1217,9.0484,9.0337,8.953,8.8356,8.7549,8.6701,8.571,8.4792,8.4425,8.4535,8.4756,8.5123,8.549,8.5196,8.4866,8.4609,8.3985,8.3875,8.4205,8.3765,8.3471,8.3324,8.3361,8.3067,8.2406,8.2186,8.1893,8.1342,8.1158,8.0791,8.0424,8.0681,8.1012,8.1195,8.1672,8.2076,8.2113,8.2076,8.2039,8.1966,8.1819,8.1269,7.9984,7.9103,7.8295,7.7818,7.8259,7.8467,7.8002,7.9564,8.0279,8.0674,8.0749,8.1319,8.1917,8.173,8.119,8.1211,8.1726,8.1978,8.1513,8.2301,8.2994,8.3037,8.3505,8.4067,8.4589,8.4448,8.4663,8.5319,8.5429,8.5418,8.5543,8.5664,8.5892,8.6732,8.6887,8.6887,8.7001,8.7422,8.704,8.6543,8.6428,8.6352,8.6161,8.5893,8.5626,8.5664,8.5511,8.5511,8.5511,8.5511,8.5511,8.5511,8.5511,8.5511,8.5473,8.5435,8.5397,8.532,8.5053,8.4862,8.4518,8.4174,8.3868,8.3754,8.3677,8.3448,8.9927,9.0003,9.0114,9.0114,9.0112,9.1029,9.1249,9.0881,9.0408,9.0008,8.9569,8.891,8.7845,8.6701,8.6261,8.5563,8.5013,8.5233,8.5527,8.5857,8.6297,8.5967,8.5416,8.4682,8.4389,8.4572,8.4389,8.4278,8.4278,8.4242,8.4095,8.3948,8.3287,8.303,8.2737,8.2186,8.1819,8.1489,8.1122,8.1342,8.1709,8.1452,8.1636,8.215,8.2186,8.2186,8.2186,8.2186,8.1782,8.0755,7.991,7.9396,7.925,7.9874,8.0131,8.0047,8.0404,8.0898,8.0923,8.101,8.1218,8.144,8.1783,8.1895,8.1807,8.1929,8.2049,8.1893,8.227,8.2622,8.3032,8.3638,8.4393,8.5252,8.503,8.491,8.5384,8.5334,8.5489,8.6261,8.6595,8.7057,8.7531,8.7766,8.7727,8.7804,8.7995,8.7995,8.7422,8.7345,8.7422,8.6849,8.6467,8.6046,8.5779,8.5588,8.5511,8.5511,8.5511,8.5511,8.5511,8.5511,8.5511,8.5511,8.5473,8.5473,8.5473,8.5358,8.5206,8.5053,8.4976,8.4747,8.49,8.4938,8.448,8.9698,8.9775,8.9851,8.9851,8.9884,9.0802,9.113,9.102,9.0732,9.0589,9.0481,8.9824,8.9021,8.8179,8.7154,8.624,8.5541,8.594,8.594,8.5614,8.591,8.6013,8.5642,8.527,8.5018,8.4913,8.462,8.4369,8.4369,8.4369,8.4222,8.3924,8.3851,8.3845,8.3875,8.3508,8.2994,8.27,8.2223,8.215,8.215,8.1746,8.1746,8.2113,8.2186,8.2186,8.2186,8.2186,8.1966,8.1525,8.1085,8.0791,8.0828,8.1232,8.1342,8.1085,8.1305,8.1379,8.1158,8.1269,8.1489,8.1562,8.2003,8.215,8.215,8.2186,8.2186,8.215,8.2665,8.3127,8.3589,8.4293,8.523,8.5826,8.5662,8.5593,8.6133,8.6366,8.6639,8.7176,8.7481,8.7851,8.8492,8.8606,8.8606,8.8683,8.9027,8.8683,8.8224,8.8415,8.8339,8.7689,8.7231,8.6925,8.6505,8.6237,8.5932,8.5893,8.5893,8.5817,8.5626,8.5588,8.5511,8.5511,8.5511,8.5511,8.5511,8.5511,8.5435,8.5358,8.5511,8.5511,8.5511,8.5511,8.5167,8.9531,8.9531,8.9766,8.9652,8.9755,9.0648,9.1053,9.0897,9.098,9.1057,9.0987,9.0364,8.9966,8.9893,8.8034,8.683,8.6648,8.6973,8.6354,8.5954,8.5808,8.584,8.5646,8.5573,8.5541,8.5508,8.4886,8.4491,8.4384,8.4241,8.3837,8.3683,8.4008,8.4296,8.4358,8.4395,8.4205,8.3654,8.3471,8.3141,8.2774,8.248,8.2406,8.2443,8.248,8.2553,8.259,8.259,8.2517,8.248,8.2296,8.2039,8.2076,8.215,8.1966,8.1636,8.1966,8.2039,8.1599,8.215,8.2406,8.2406,8.2443,8.2443,8.2627,8.2737,8.27,8.2774,8.3608,8.4052,8.4406,8.5395,8.5994,8.6254,8.6292,8.6636,8.7159,8.7718,8.8061,8.8224,8.8221,8.8638,8.9141,8.9447,8.9447,8.9485,8.9752,8.9561,8.9256,8.9294,8.8988,8.8377,8.8071,8.788,8.7422,8.6963,8.6619,8.6352,8.6428,8.6314,8.5932,8.5779,8.5588,8.5511,8.5511,8.5511,8.5511,8.5511,8.5511,8.5511,8.5511,8.5511,8.5511,8.5511,8.532,9.0328,9.0328,9.0443,9.0407,9.0364,9.0588,9.074,9.0661,9.0776,9.0819,9.0939,9.0757,9.0434,9.0003,8.9271,8.8909,8.8178,8.8143,8.7851,8.7195,8.7085,8.6283,8.5623,8.5367,8.5625,8.5917,8.6063,8.5517,8.508,8.4753,8.4569,8.4056,8.4129,8.4199,8.4479,8.4589,8.44,8.4285,8.4352,8.4242,8.3911,8.3398,8.3141,8.3141,8.3141,8.3471,8.3948,8.4058,8.4058,8.3801,8.2994,8.2406,8.237,8.2333,8.248,8.281,8.2957,8.3067,8.303,8.3471,8.3765,8.3251,8.3581,8.4095,8.4095,8.3985,8.4022,8.4095,8.4338,8.4737,8.5152,8.5395,8.5939,8.6445,8.6594,8.6877,8.7524,8.7694,8.8101,8.8721,8.9139,8.9543,9.0165,9.0126,9.0207,9.0326,9.0326,9.0364,9.0249,9.0096,8.9676,8.9103,8.8988,8.8759,8.811,8.7651,8.7307,8.7001,8.7001,8.6963,8.6581,8.6161,8.6046,8.5779,8.5511,8.5511,8.5511,8.5511,8.5511,8.5511,8.5511,8.5511,8.5511,8.5511,8.5511,9.0618,9.0618,9.0618,9.0618,9.0618,9.0618,9.0618,9.0618,9.0618,9.0661,9.074,9.074,9.0565,9.0243,8.988,8.9407,8.9044,8.8644,8.8431,8.7849,8.7339,8.6355,8.5737,8.5191,8.5264,8.5737,8.5701,8.5373,8.5119,8.501,8.4791,8.4609,8.4754,8.5154,8.5294,8.5292,8.5321,8.506,8.5055,8.5013,8.4572,8.4242,8.3985,8.3985,8.3985,8.4205,8.4499,8.4572,8.4572,8.4389,8.3801,8.3324,8.3324,8.3324,8.3544,8.3838,8.3985,8.3985,8.4132,8.4315,8.4389,8.4022,8.4389,8.4499,8.4609,8.4609,8.4609,8.4682,8.4903,8.5434,8.6029,8.6168,8.6426,8.6611,8.6795,8.7147,8.7712,8.7993,8.8291,8.8923,8.9087,8.9514,8.9944,9.0257,9.047,9.0355,9.0478,9.0517,9.0517,9.0364,9.0326,8.9982,8.9944,8.96,8.8835,8.8339,8.7957,8.7766,8.7689,8.7651,8.7422,8.6963,8.6543,8.6123,8.5702,8.5511,8.5511,8.5511,8.5511,8.5511,8.5511,8.5511,8.5511,8.5511,8.5511,9.0618,9.0618,9.0618,9.0618,9.0618,9.0618,9.0618,9.0618,9.0618,9.0581,9.0618,9.0618,9.0625,9.0436,8.9929,8.9603,8.9422,8.9024,8.8931,8.8647,8.7547,8.6894,8.6498,8.5987,8.5697,8.5408,8.5372,8.5153,8.5006,8.4714,8.4645,8.4827,8.5408,8.5592,8.5992,8.6392,8.6206,8.5694,8.583,8.5678,8.5128,8.4939,8.4792,8.4792,8.4792,8.4939,8.5159,8.5196,8.5086,8.4939,8.4976,8.4976,8.4903,8.4646,8.4719,8.4756,8.4792,8.4792,8.4866,8.4976,8.5049,8.4866,8.5013,8.5013,8.5086,8.5196,8.5233,8.5343,8.5637,8.6224,8.6885,8.6843,8.688,8.7027,8.6995,8.7231,8.7683,8.8265,8.8446,8.8947,8.9054,8.9287,8.9763,9.0167,9.0301,9.0427,9.0551,9.0631,9.0631,9.0593,9.0517,9.0478,9.0326,9.0287,8.9638,8.937,8.895,8.8759,8.8644,8.8453,8.8377,8.8033,8.7498,8.6352,8.5893,8.5817,8.5626,8.5511,8.5511,8.5511,8.5511,8.5511,8.5511,8.5511,8.5511,9.0618,9.0618,9.0618,9.0618,9.0618,9.0618,9.0618,9.0618,9.0618,9.0618,9.0618,9.0618,9.0618,9.0545,9.0509,9.04,9.0219,8.9966,8.9755,8.9361,8.8589,8.8341,8.7616,8.7322,8.7394,8.7249,8.6565,8.5876,8.5583,8.504,8.4895,8.4281,8.4825,8.5334,8.5627,8.581,8.632,8.6173,8.6349,8.631,8.609,8.5825,8.56,8.56,8.56,8.5894,8.6371,8.6554,8.6591,8.6591,8.6591,8.6554,8.6224,8.5343,8.5123,8.5453,8.56,8.56,8.5637,8.6151,8.6114,8.5967,8.6077,8.6481,8.6518,8.6518,8.6334,8.6444,8.6554,8.6848,8.6995,8.7031,8.7031,8.7031,8.7031,8.7064,8.7163,8.746,8.8022,8.8914,8.8969,8.9023,8.9478,8.9906,9.0167,9.0383,9.0551,9.0631,9.0631,9.0631,9.0593,9.0593,9.0593,9.0555,9.0364,9.0287,9.0096,8.9944,8.9791,8.9485,8.937,8.9141,8.8492,8.7384,8.6658,8.6428,8.6161,8.5817,8.5702,8.5817,8.5702,8.555,8.5511,8.5511,8.5511,9.0618,9.0618,9.0618,9.0618,9.0618,9.0618,9.0618,9.0618,9.0618,9.0618,9.0618,9.0618,9.0618,9.0618,9.0618,9.0618,9.0618,9.0581,9.0147,8.9531,8.935,8.8988,8.8372,8.8263,8.8517,8.8372,8.7684,8.7104,8.7104,8.6778,8.6163,8.6199,8.638,8.6383,8.6169,8.6498,8.6463,8.6502,8.6573,8.6715,8.6715,8.6449,8.6375,8.6339,8.6339,8.6559,8.6709,8.6925,8.6995,8.6995,8.6995,8.7031,8.6775,8.6444,8.6004,8.6297,8.6407,8.6407,8.6444,8.6848,8.6738,8.6554,8.6848,8.6995,8.7031,8.6958,8.7031,8.7031,8.7031,8.7031,8.7031,8.7031,8.7031,8.7031,8.7031,8.7031,8.7031,8.7031,8.7746,8.8578,8.8205,8.8287,8.9182,8.9578,8.9991,9.0257,9.0551,9.0593,9.0551,9.0508,9.0508,9.0631,9.0631,9.0593,9.0593,9.0593,9.0631,9.0631,9.0555,9.0287,9.0173,8.9867,8.9332,8.853,8.7918,8.7422,8.7001,8.681,8.6467,8.6084,8.5855,8.5664,8.5588,8.5511,8.5511,9.0618,9.0618,9.0618,9.0618,9.0618,9.0618,9.0618,9.0618,9.0618,9.0618,9.0618,9.0618,9.0618,9.0618,9.0618,9.0618,9.0618,9.0618,9.0219,8.9857,8.9712,8.9314,8.8915,8.877,8.9096,8.9459,8.9096,8.8626,8.8336,8.8046,8.8118,8.7865,8.8082,8.7937,8.7358,8.7366,8.697,8.6683,8.6648,8.6756,8.6752,8.6856,8.6856,8.6786,8.6856,8.6889,8.6786,8.6925,8.6995,8.7031,8.7031,8.7031,8.7031,8.7031,8.7031,8.7031,8.7031,8.7031,8.6995,8.6995,8.6995,8.6885,8.6995,8.7031,8.7031,8.7031,8.7031,8.7031,8.7031,8.7031,8.7031,8.7031,8.7031,8.7031,8.7031,8.7031,8.7031,8.7064,8.72,8.746,8.7132,8.7873,8.9044,8.9478,8.9859,9.0167,9.0427,9.0508,9.0427,9.0295,9.0295,9.0508,9.0631,9.0631,9.0593,9.0593,9.0631,9.0631,9.0631,9.0478,9.0478,9.0478,8.9905,8.937,8.9218,8.8721,8.8262,8.7613,8.7116,8.6619,8.6123,8.5779,8.5626,8.5511,8.5511,9.0618,9.0618,9.0618,9.0618,9.0618,9.0618,9.0618,9.0618,9.0618,9.0618,9.0618,9.0618,9.0618,9.0618,9.0618,9.0618,9.0618,9.0581,9.0509,9.0328,9.0328,9.0255,9.0219,9.0328,9.011,9.0255,9.0219,8.9893,8.9314,8.8698,8.8372,8.8408,8.8481,8.8155,8.8118,8.8082,8.7648,8.7108,8.7154,8.7049,8.679,8.6752,8.6788,8.6786,8.6856,8.6856,8.6715,8.6856,8.6925,8.7031,8.7031,8.7031,8.7031,8.7031,8.7031,8.7031,8.7031,8.7031,8.7031,8.7031,8.7031,8.7031,8.7031,8.7031,8.7031,8.7105,8.7142,8.7031,8.7068,8.7031,8.7031,8.7031,8.7031,8.7031,8.7031,8.7031,8.7031,8.7031,8.7132,8.7242,8.7247,8.8232,8.9371,8.9604,8.9811,9.0083,9.0295,9.034,9.0383,9.0295,9.025,9.0508,9.0631,9.0631,9.0631,9.0631,9.0631,9.0631,9.0631,9.0631,9.0631,9.0631,9.0593,9.0211,9.0058,8.9638,8.8912,8.8262,8.7651,8.7116,8.6658,8.6123,8.5588,8.555,8.5511,9.0618,9.0618,9.0618,9.0618,9.0618,9.0618,9.0618,9.0618,9.0618,9.0618,9.0618,9.0618,9.0618,9.0618,9.0618,9.0618,9.0618,9.0618,9.0618,9.0618,9.0618,9.0618,9.0545,9.0581,9.0618,9.0618,9.0581,9.04,8.9966,8.9785,8.9567,8.9495,8.9495,8.935,8.8951,8.8879,8.8408,8.8015,8.7878,8.7777,8.745,8.7302,8.7048,8.6609,8.6681,8.6681,8.6681,8.6715,8.6856,8.6925,8.7031,8.7031,8.7031,8.7031,8.7031,8.7031,8.7031,8.7031,8.7031,8.7031,8.7031,8.7031,8.7031,8.7031,8.7105,8.7399,8.7435,8.7031,8.7435,8.7472,8.7178,8.7031,8.7031,8.7068,8.7288,8.7215,8.7178,8.7031,8.7031,8.7215,8.75,8.8642,8.946,8.9528,8.9906,9.06,9.0606,9.0486,9.0498,9.0508,9.0508,9.0551,9.0631,9.0631,9.0631,9.0631,9.0631,9.0631,9.0631,9.0631,9.0631,9.0631,9.0631,9.0631,9.0402,8.9944,8.9409,8.8988,8.8492,8.7842,8.7116,8.6467,8.5817,8.555,8.5511,9.0618,9.0618,9.0618,9.0618,9.0618,9.0618,9.0618,9.0618,9.0618,9.0618,9.0618,9.0618,9.0618,9.0618,9.0618,9.0618,9.0618,9.0618,9.0618,9.0618,9.0618,9.0618,9.0618,9.0618,9.0618,9.0618,9.0618,9.0545,9.0581,9.0509,9.0436,9.0618,9.0364,9.0183,8.9857,8.964,8.9314,8.8589,8.8418,8.8211,8.8034,8.7924,8.7522,8.7122,8.6794,8.6648,8.6611,8.6609,8.6715,8.6856,8.6925,8.6925,8.7031,8.7031,8.7031,8.7105,8.7215,8.7399,8.7325,8.7215,8.7068,8.7068,8.7215,8.7325,8.7142,8.7802,8.8169,8.7472,8.8096,8.8096,8.7802,8.7729,8.7839,8.7876,8.7839,8.7692,8.7619,8.7729,8.7876,8.8133,8.8593,8.9192,8.9728,8.9531,8.9959,9.0936,9.1037,9.0752,9.0721,9.0732,9.0746,9.0784,9.0631,9.0631,9.0631,9.0631,9.0631,9.0631,9.0631,9.0631,9.0631,9.0631,9.0631,9.0631,9.0631,9.044,9.002,8.9676,8.9294,8.8339,8.7422,8.6619,8.6046,8.5741,8.555,9.0618,9.0618,9.0618,9.0618,9.0618,9.0618,9.0618,9.0618,9.0618,9.0618,9.0618,9.0618,9.0618,9.0618,9.0618,9.0618,9.0618,9.0618,9.0618,9.0618,9.0618,9.0618,9.0618,9.0618,9.0618,9.0618,9.0618,9.0618,9.0618,9.0618,9.0618,9.0618,9.0618,9.0581,9.0436,9.0255,9.0002,8.9314,8.8921,8.86,8.8498,8.8426,8.8317,8.8174,8.7776,8.7449,8.7265,8.6939,8.6793,8.7008,8.7115,8.7115,8.7296,8.7366,8.7435,8.7476,8.7806,8.7989,8.7989,8.7655,8.7178,8.7288,8.7582,8.7912,8.7582,8.861,8.8793,8.8283,8.8796,8.9089,8.9053,8.9197,8.8867,8.8757,8.861,8.8647,8.8647,8.8793,8.8977,8.9197,8.9583,9.0147,9.0677,9.0685,9.0792,9.171,9.1549,9.1242,9.1131,9.1119,9.1043,9.0975,9.0708,9.0631,9.0631,9.0631,9.0631,9.0631,9.0631,9.0631,9.0631,9.0631,9.0631,9.0631,9.0631,9.0631,9.0593,9.0249,8.9676,8.8644,8.7689,8.6849,8.6161,8.5779,8.5664,9.0618,9.0618,9.0618,9.0618,9.0618,9.0618,9.0618,9.0618,9.0618,9.0618,9.0618,9.0618,9.0618,9.0618,9.0618,9.0618,9.0618,9.0618,9.0618,9.0618,9.0618,9.0618,9.0618,9.0618,9.0618,9.0618,9.0618,9.0618,9.0618,9.0654,9.0618,9.0618,9.069,9.0581,9.0618,9.0618,9.0364,9.0183,8.9785,8.9573,8.9221,8.9071,8.8853,8.8462,8.82,8.8062,8.799,8.7847,8.785,8.7925,8.8033,8.796,8.7996,8.8212,8.8212,8.8212,8.8578,8.8653,8.8761,8.8539,8.85,8.8536,8.8793,8.8757,8.8319,8.9385,8.9458,8.9276,8.9459,8.9825,8.9239,8.931,8.9307,8.9381,8.942,8.9493,8.9566,8.9676,8.9676,8.9714,9.0389,9.1066,9.1572,9.2068,9.2202,9.2417,9.2101,9.1808,9.1811,9.1672,9.1648,9.1319,9.1013,9.0669,9.0631,9.0631,9.0631,9.0631,9.0631,9.0631,9.0631,9.0631,9.0631,9.0631,9.0631,9.0631,9.0631,9.0631,8.9944,8.8759,8.7804,8.6963,8.639,8.5932,8.5932,9.0618,9.0618,9.0618,9.0618,9.0618,9.0618,9.0618,9.0618,9.0618,9.0618,9.0618,9.0618,9.0618,9.0618,9.0618,9.0618,9.0618,9.0618,9.0618,9.0618,9.0618,9.0618,9.0618,9.0618,9.0618,9.0618,9.0618,9.0618,9.0618,9.0835,9.1016,9.1052,9.0943,9.0907,9.0618,9.0618,9.0618,9.0618,9.0545,9.048,8.9942,8.9791,8.9682,8.9144,8.8848,8.8667,8.86,8.8459,8.8353,8.8468,8.8653,8.8801,8.8911,8.9057,8.913,8.9094,8.924,8.935,8.935,8.9203,8.9275,8.9163,8.9422,8.9458,8.9568,9.0008,9.019,8.9605,9.0081,9.0337,8.9679,9.0008,9.0155,9.0228,9.0191,9.0264,9.0228,9.0264,9.0191,9.0228,9.0876,9.1412,9.2114,9.258,9.2897,9.3131,9.3364,9.3061,9.2733,9.2603,9.2417,9.193,9.1357,9.1013,9.0669,9.0708,9.0746,9.0631,9.0631,9.0631,9.0631,9.0631,9.0631,9.0631,9.0631,9.0631,9.0517,9.0326,8.9638,8.8759,8.7995,8.7307,8.7116,8.6734,8.6467,9.0581,9.0618,9.0618,9.0618,9.0618,9.0618,9.0618,9.0618,9.0618,9.0618,9.0618,9.0618,9.0618,9.0618,9.0618,9.0618,9.0618,9.0618,9.0618,9.0618,9.0618,9.0618,9.0654,9.0654,9.0762,9.0618,9.0726,9.0835,9.0726,9.1269,9.1559,9.1776,9.174,9.1378,9.069,9.0618,9.0618,9.0618,9.0618,9.0509,9.0473,9.04,9.0292,9.0074,8.964,8.9386,8.9356,8.8993,8.889,8.9007,8.9047,8.9087,8.9126,8.9164,8.9238,8.9128,8.9675,8.9966,8.9966,8.9237,8.9276,8.9605,8.9971,8.9897,8.9679,9.0189,9.0805,9.0112,9.0586,9.0987,9.1024,9.0987,9.0954,9.0881,9.0883,9.0847,9.0774,9.0737,9.0628,9.0667,9.1069,9.1547,9.2357,9.2976,9.3372,9.3766,9.4303,9.4225,9.3791,9.3449,9.3224,9.2809,9.216,9.1778,9.1434,9.1013,9.0861,9.0708,9.0708,9.0784,9.0708,9.0631,9.0631,9.0631,9.0631,9.0631,9.0287,8.9982,8.96,8.9294,8.8453,8.7842,8.7727,8.746,8.7116,9.011,9.0618,9.0618,9.0618,9.0618,9.0618,9.0618,9.0618,9.0618,9.0618,9.0618,9.0618,9.0618,9.0618,9.0618,9.0618,9.0618,9.0618,9.0618,9.0618,9.0654,9.0618,9.0726,9.1088,9.1125,9.0871,9.1016,9.1414,9.1451,9.1885,9.2211,9.2428,9.2428,9.1849,9.098,9.0618,9.0618,9.0618,9.0618,9.0581,9.0618,9.0618,9.0581,9.0581,9.0255,9.011,9.011,8.9676,8.9682,8.9761,8.9802,8.9916,8.9916,8.9993,9.0219,9.0179,9.0539,9.0575,9.0575,9.0207,9.0211,9.0477,9.0552,9.055,9.0625,9.0729,9.0798,9.0648,9.0757,9.0975,9.0939,9.1057,9.106,9.106,9.11,9.106,9.11,9.1024,9.1063,9.1216,9.1509,9.173,9.2362,9.2793,9.3239,9.3839,9.4325,9.492,9.4715,9.4312,9.3994,9.3688,9.3229,9.2771,9.2312,9.1892,9.1586,9.1472,9.1319,9.1204,9.1052,9.0746,9.0631,9.0631,9.0631,9.0593,9.0402,9.0249,9.0249,8.9905,8.9103,8.8721,8.8721,8.8224,8.7498,8.9676,9.0183,9.0473,9.0618,9.0618,9.0618,9.0618,9.0618,9.0618,9.0618,9.0618,9.0618,9.0618,9.0618,9.0618,9.0618,9.0618,9.0618,9.0618,9.0654,9.0943,9.1052,9.1342,9.1776,9.1958,9.1668,9.1849,9.2211,9.2247,9.2537,9.2935,9.3261,9.3117,9.2247,9.1414,9.1088,9.0871,9.0762,9.0618,9.0618,9.0618,9.0618,9.0618,9.0618,9.0545,9.0581,9.0581,9.0618,9.0618,9.0661,9.0661,9.074,9.074,9.0819,9.0897,9.0819,9.0819,9.0819,9.0668,9.0668,9.0637,9.083,9.0975,9.1053,9.1053,9.0861,9.0783,9.0783,9.0819,9.0819,9.0819,9.0975,9.0975,9.1053,9.1053,9.0975,9.0975,9.0975,9.0975,9.1209,9.136,9.1693,9.2122,9.2566,9.2923,9.3605,9.427,9.492,9.5509,9.5096,9.4605,9.4299,9.3994,9.3497,9.3115,9.2809,9.2504,9.2274,9.2045,9.1778,9.1281,9.0975,9.0784,9.0631,9.0631,9.0669,9.0631,9.0555,9.0593,9.0364,8.9829,8.9638,8.9714,8.9027,8.811,8.935,8.9495,9.0255,9.0545,9.0618,9.0618,9.0618,9.0618,9.0618,9.0618,9.0618,9.0618,9.0618,9.0618,9.0618,9.0618,9.0618,9.0618,9.0726,9.0907,9.1342,9.1595,9.2066,9.261,9.2718,9.2899,9.3008,9.3044,9.3117,9.3443,9.3877,9.3913,9.3334,9.261,9.2066,9.1632,9.1269,9.0799,9.0618,9.0618,9.0618,9.0618,9.0618,9.0618,9.0618,9.0618,9.0618,9.0618,9.0618,9.0618,9.0618,9.0618,9.0618,9.0618,9.0618,9.0618,9.0618,9.0581,9.0581,9.0618,9.0618,9.074,9.0661,9.0776,9.074,9.074,9.0661,9.0661,9.0661,9.0661,9.0697,9.0661,9.0661,9.0661,9.0661,9.0661,9.0661,9.0661,9.0661,9.074,9.0819,9.1093,9.1435,9.191,9.2858,9.3507,9.4232,9.4969,9.5425,9.5554,9.5102,9.472,9.4414,9.4108,9.3841,9.3764,9.3459,9.3229,9.2695,9.2351,9.1816,9.1204,9.0975,9.0784,9.0708,9.0746,9.0937,9.0975,9.0937,9.0669,9.0517,9.0287,9.0287,8.96,8.8874,8.8336,8.9386,8.964,9.0074,9.0581,9.0618,9.0618,9.0618,9.0618,9.0618,9.0618,9.0618,9.0618,9.0618,9.0618,9.0618,9.0618,9.069,9.1052,9.1342,9.1595,9.2139,9.2754,9.3334,9.3443,9.3406,9.3479,9.3732,9.3805,9.4167,9.4167,9.4058,9.3298,9.2827,9.2501,9.2066,9.1342,9.0835,9.0618,9.0618,9.0618,9.0618,9.0618,9.0618,9.0618,9.0618,9.0618,9.0618,9.0618,9.0618,9.0618,9.0618,9.0618,9.0618,9.0618,9.0618,9.0618,9.0618,9.0618,9.0618,9.0654,9.069,9.069,9.0618,9.0661,9.0661,9.0618,9.0618,9.0618,9.0618,9.0618,9.0618,9.0618,9.0618,9.0618,9.0618,9.0618,9.0618,9.0618,9.0581,9.0661,9.074,9.1016,9.1944,9.2923,9.3507,9.4232,9.4969,9.5425,9.5554,9.5522,9.514,9.4987,9.472,9.4911,9.4911,9.4529,9.4146,9.3497,9.2771,9.2083,9.1548,9.1166,9.1052,9.1052,9.1243,9.1472,9.1548,9.1739,9.1548,9.1395,9.109,9.0708,9.0058,8.9676,8.7575,8.8444,8.8807,8.9386,9.011,9.0473,9.0618,9.0618,9.0618,9.0618,9.0618,9.0618,9.0618,9.0618,9.0618,9.0618,9.0618,9.0618,9.0835,9.1088,9.1668,9.2284,9.3008,9.3732,9.3877,9.3805,9.3805,9.3913,9.3841,9.3768,9.3768,9.4094,9.3189,9.2863,9.2573,9.1885,9.1088,9.0762,9.0618,9.0618,9.0618,9.0618,9.0618,9.0618,9.0618,9.0618,9.0618,9.0618,9.0618,9.0618,9.0618,9.0618,9.0618,9.0618,9.0618,9.0618,9.0618,9.0835,9.1052,9.1125,9.1088,9.1052,9.1016,9.0871,9.069,9.0618,9.0618,9.0618,9.0618,9.0618,9.0618,9.0618,9.0618,9.0618,9.0618,9.0618,9.0618,9.0618,9.0581,9.0581,9.0661,9.074,9.1285,9.2225,9.2886,9.341,9.4085,9.492,9.5379,9.5554,9.5598,9.5446,9.5446,9.5407,9.5598,9.5598,9.5178,9.4529,9.3764,9.3077,9.2351,9.1663,9.109,9.1204,9.1472,9.1739,9.2083,9.2504,9.2695,9.2504,9.2236,9.193,9.1395,9.0593,9.0364,8.7032,8.7177,8.7901,8.8662,8.935,9.011,9.0436,9.0509,9.0545,9.0618,9.0618,9.0618,9.0618,9.0618,9.0618,9.0618,9.0618,9.0618,9.0799,9.0726,9.1487,9.2211,9.3008,9.3696,9.3732,9.3986,9.395,9.3551,9.3044,9.2935,9.3225,9.3913,9.2465,9.203,9.2392,9.1414,9.0762,9.069,9.0618,9.0618,9.0618,9.0618,9.0618,9.0618,9.0618,9.0618,9.0618,9.0618,9.0618,9.0618,9.0618,9.0618,9.0618,9.0618,9.0618,9.0618,9.0618,9.1016,9.1306,9.1414,9.1523,9.1595,9.1704,9.1161,9.0762,9.0618,9.0618,9.0618,9.0618,9.0618,9.0618,9.0618,9.0618,9.0618,9.0618,9.0618,9.0618,9.0618,9.0618,9.0581,9.0581,9.074,9.117,9.2052,9.2793,9.3227,9.4029,9.492,9.5333,9.5554,9.5637,9.5637,9.5598,9.5598,9.5598,9.556,9.5484,9.4911,9.407,9.3191,9.2351,9.1625,9.0937,9.1204,9.1586,9.2274,9.2733,9.3306,9.3612,9.3344,9.3077,9.2771,9.2121,9.1395,9.0784,8.6561,8.7141,8.7901,8.8336,8.8589,8.935,8.9676,8.9748,9.0364,9.0618,9.0618,9.0618,9.0618,9.0618,9.0618,9.0618,9.0618,9.0654,9.098,9.1233,9.1704,9.2139,9.2863,9.3225,9.3334,9.3298,9.3189,9.2827,9.2247,9.2102,9.2102,9.232,9.1414,9.1414,9.2102,9.1016,9.0618,9.0618,9.0618,9.0618,9.0618,9.0618,9.0618,9.0618,9.0618,9.0618,9.0618,9.0618,9.0618,9.0618,9.0618,9.0618,9.0618,9.0618,9.0618,9.0618,9.0654,9.1197,9.1559,9.1632,9.1559,9.1559,9.1451,9.0943,9.0654,9.0618,9.0618,9.0618,9.0618,9.0618,9.0618,9.0618,9.0618,9.0618,9.0618,9.0618,9.0618,9.0618,9.0618,9.0618,9.0618,9.0897,9.1246,9.1838,9.2566,9.3363,9.4198,9.4946,9.5277,9.5502,9.5675,9.5675,9.5637,9.5598,9.5675,9.556,9.5484,9.5025,9.4223,9.3306,9.2312,9.151,9.0822,9.1243,9.1701,9.2427,9.3344,9.4376,9.4529,9.4185,9.3955,9.3688,9.3229,9.2542,9.1663,8.6163,8.6634,8.7358,8.7901,8.8336,8.906,8.9386,8.9531,9.0255,9.0618,9.0618,9.0618,9.0618,9.0618,9.0618,9.0618,9.0618,9.0618,9.0762,9.1161,9.1668,9.1994,9.2428,9.2718,9.2682,9.2573,9.2066,9.1632,9.1378,9.1306,9.1306,9.1559,9.1088,9.0943,9.1559,9.1052,9.0618,9.0618,9.0618,9.0618,9.0618,9.0618,9.0618,9.0618,9.0618,9.0618,9.0618,9.0618,9.0618,9.0618,9.0618,9.0618,9.0726,9.098,9.0943,9.0835,9.098,9.1487,9.1921,9.1958,9.174,9.1885,9.1958,9.1813,9.0654,9.0618,9.0618,9.0618,9.0618,9.0618,9.0618,9.0618,9.0618,9.0618,9.0618,9.0618,9.0618,9.0618,9.0618,9.0618,9.0661,9.0897,9.1397,9.2085,9.2793,9.3424,9.4253,9.4933,9.5305,9.5913,9.5929,9.5866,9.5904,9.6057,9.6286,9.5942,9.5484,9.4949,9.4261,9.2962,9.1739,9.1128,9.0746,9.1204,9.1816,9.2656,9.365,9.4529,9.514,9.4949,9.4796,9.4643,9.4146,9.365,9.2962,8.5982,8.6126,8.6778,8.7467,8.8263,8.906,8.9386,8.9531,9.0219,9.0618,9.0618,9.0618,9.0618,9.0618,9.0618,9.0618,9.0618,9.0618,9.069,9.0835,9.1306,9.1487,9.1813,9.2175,9.1958,9.1632,9.1161,9.0943,9.0762,9.0799,9.1016,9.1378,9.1233,9.0943,9.1233,9.1052,9.0618,9.0618,9.0618,9.0618,9.0618,9.0618,9.0618,9.0618,9.0618,9.0618,9.0618,9.0726,9.0726,9.0799,9.0907,9.1088,9.1161,9.1487,9.1451,9.1414,9.1704,9.2356,9.2827,9.2682,9.2718,9.2827,9.2899,9.2211,9.1016,9.069,9.069,9.0799,9.0799,9.0654,9.0654,9.0654,9.0654,9.0618,9.0618,9.0618,9.0618,9.0618,9.0618,9.0618,9.0819,9.0975,9.1657,9.2294,9.2987,9.3642,9.4273,9.492,9.562,9.6485,9.6921,9.6661,9.647,9.6623,9.663,9.6172,9.5522,9.4529,9.3688,9.2312,9.1243,9.0861,9.0784,9.1243,9.193,9.2504,9.3268,9.407,9.4643,9.5178,9.5293,9.5102,9.4911,9.4452,9.4185,8.6271,8.6815,8.6959,8.7467,8.8263,8.906,8.9386,8.9531,9.0219,9.0618,9.0618,9.0618,9.0618,9.0618,9.0618,9.0618,9.0618,9.0618,9.0618,9.0726,9.1197,9.1052,9.1161,9.1849,9.1125,9.0907,9.0871,9.069,9.0618,9.0618,9.0654,9.0871,9.0835,9.069,9.0726,9.0618,9.0618,9.0618,9.0618,9.0618,9.0618,9.0618,9.0618,9.0618,9.0618,9.0618,9.0726,9.1269,9.1487,9.1559,9.1595,9.1885,9.2102,9.2175,9.2139,9.2247,9.2573,9.308,9.3406,9.2972,9.2899,9.2899,9.2682,9.1921,9.1161,9.1052,9.1161,9.1451,9.1306,9.0835,9.0762,9.0762,9.0762,9.0654,9.0618,9.0618,9.0618,9.0618,9.0618,9.0819,9.1053,9.1397,9.2018,9.267,9.3289,9.4044,9.4987,9.5527,9.5919,9.6886,9.7829,9.7447,9.7028,9.6356,9.5981,9.5942,9.5331,9.4261,9.3268,9.2312,9.1472,9.0822,9.0861,9.109,9.1434,9.193,9.2733,9.3421,9.4108,9.4643,9.5293,9.5446,9.5331,9.5216,9.4872]},{"header":{"parameterUnit":"m.s-1","parameterCategory":1,"la1":31.0,"la2":29.5877,"lo1":-88.7671,"lo2":-86.6584,"dy":0.0162,"dx":0.0185,"nx":115,"ny":88,"refTime":"2026-05-09T00:00:00:Z","depth":0,"parameterNumber":3,"parameterNumberName":"V-component_of_WINDS"},"data":[0.0,0.0,0.0,0.0,0.0,0.0,0.0,0.0,0.0,0.0,0.0,0.0,0.0,0.0,0.0,0.0,0.0,0.0,0.0,0.0,0.0,0.0,0.0,0.0,0.0,0.0,0.0,0.0,0.0,0.0,0.0,0.0,0.0,0.0,0.0,0.0,0.0,0.0,0.0,0.0,0.0,0.0,0.0,0.0,0.0,0.0,0.0,0.0,0.0,0.0,0.0,0.0,0.0,0.0,0.0,0.0,0.0,0.0,0.0,0.0,0.0,0.0,0.0,0.0,0.0,0.0,0.0,0.0,0.0,0.0,0.0,0.0,0.0,0.0,0.0,0.0,0.0,0.0,0.0,0.0,0.0,0.0,0.0,0.0,0.0,0.0,0.0,0.0,0.0,0.0,0.0,0.0,0.0,0.0,0.0,0.0,0.0,0.0,0.0,0.0,0.0,0.0,0.0,0.0,0.0,0.0,0.0,0.0,0.0,0.0,0.0,0.0,0.0,0.0,0.0,0.0,0.0,0.0,0.0,0.0,0.0,0.0,0.0,0.0,0.0,0.0,0.0,0.0,0.0,0.0,0.0,0.0,0.0,0.0,0.0,0.0,0.0,0.0,0.0,0.0,0.0,0.0,0.0,0.0,0.0,0.0,0.0,0.0,0.0,0.0,0.0,0.0,0.0,0.0,0.0,0.0,0.0,0.0,0.0,0.0,0.0,0.0,0.0,0.0,0.0,0.0,0.0,0.0,0.0,0.0,0.0,0.0,0.0,0.0,0.0,0.0,0.0,0.0,0.0,0.0,0.0,0.0,0.0,0.0,0.0,0.0,0.0,0.0,0.0,0.0,0.0,0.0,0.0,0.0,0.0,0.0,0.0,0.0,0.0,0.0,0.0,0.0,0.0,0.0,0.0,0.0,0.0,0.0,0.0,0.0,0.0,0.0,0.0,0.0,0.0,0.0,0.0,0.0,0.0,0.0,0.0,0.0,0.0,0.0,0.0,0.0,0.0,0.0,0.0,0.0,0.0,0.0,0.0,0.0,0.0,0.0,0.0,0.0,0.0,0.0,0.0,0.0,0.0,0.0,0.0,0.0,0.0,0.0,0.0,0.0,0.0,0.0,0.0,0.0,0.0,0.0,0.0,0.0,0.0,0.0,0.0,0.0,0.0,0.0,0.0,0.0,0.0,0.0,0.0,0.0,0.0,0.0,0.0,0.0,0.0,0.0,0.0,0.0,0.0,0.0,0.0,0.0,0.0,0.0,0.0,0.0,0.0,0.0,0.0,0.0,0.0,0.0,0.0,0.0,0.0,0.0,0.0,0.0,0.0,0.0,0.0,0.0,0.0,0.0,0.0,0.0,0.0,0.0,0.0,0.0,0.0,0.0,0.0,0.0,0.0,0.0,0.0,0.0,0.0,0.0,0.0,0.0,0.0,0.0,0.0,0.0,0.0,0.0,0.0,0.0,0.0,0.0,0.0,0.0,0.0,0.0,0.0,0.0,0.0,0.0,0.0,0.0,0.0,0.0,0.0,0.0,0.0,0.0,0.0,0.0,0.0,0.0,0.0,0.0,0.0,0.0,0.0,0.0,0.0,0.0,0.0,0.0,0.0,0.0,0.0,0.0,0.0,0.0,0.0,0.0,0.0,0.0,0.0,0.0,0.0,0.0,0.0,0.0,0.0,0.0,0.0,0.0,0.0,0.0,0.0,0.0,0.0,0.0,0.0,0.0,0.0,0.0,0.0,0.0,0.0,0.0,0.0,0.0,0.0,0.0,0.0,0.0,0.0,0.0,0.0,0.0,0.0,0.0,0.0,0.0,0.0,0.0,0.0,0.0,0.0,0.0,0.0,0.0,0.0,0.0,0.0,0.0,0.0,0.0,0.0,0.0,0.0,0.0,0.0,0.0,0.0,0.0,0.0,0.0,0.0,0.0,0.0,0.0,0.0,0.0,0.0,0.0,0.0,0.0,0.0,0.0,0.0,0.0,0.0,0.0,0.0,0.0,0.0,0.0,0.0,0.0,0.0,0.0,0.0,0.0,0.0,0.0,0.0,0.0,0.0,0.0,0.0,0.0,0.0,0.0,0.0,0.0,0.0,0.0,0.0,0.0,0.0,0.0,0.0,0.0,0.0,0.0,0.0,0.0,0.0,0.0,0.0,0.0,0.0,0.0,0.0,0.0,0.0,0.0,0.0,0.0,0.0,0.0,0.0,0.0,0.0,0.0,0.0,0.0,0.0,0.0,0.0,0.0,0.0,0.0,0.0,0.0,0.0,0.0,0.0,0.0,0.0,0.0,0.0,0.0,0.0,0.0,0.0,0.0,0.0,0.0,0.0,0.0,0.0,0.0,0.0,0.0,0.0,0.0,0.0,0.0,0.0,0.0,0.0,0.0,0.0,0.0,0.0,0.0,0.0,0.0,0.0,0.0,0.0,0.0,0.0,0.0,0.0,0.0,0.0,0.0,0.0,0.0,0.0,0.0,0.0,0.0,0.0,0.0,0.0,0.0,0.0,0.0,0.0,0.0,0.0,0.0,0.0,0.0,0.0,0.0,0.0,0.0,0.0,0.0,0.0,0.0,0.0,0.0,0.0,0.0,0.0,0.0,0.0,0.0,0.0,0.0,0.0,0.0,0.0,0.0,0.0,0.0,0.0,0.0,0.0,0.0,0.0,0.0,0.0,0.0,0.0,0.0,0.0,0.0,0.0,0.0,0.0,0.0,0.0,0.0,0.0,0.0,0.0,0.0,0.0,0.0,0.0,0.0,0.0,0.0,0.0,0.0,0.0,0.0,0.0,0.0,0.0,0.0,0.0,0.0,0.0,0.0,0.0,0.0,0.0,0.0,0.0,0.0,0.0,0.0,0.0,0.0,0.0,0.0,0.0,0.0,0.0,0.0,0.0,0.0,0.0,0.0,0.0,0.0,0.0,0.0,0.0,0.0,0.0,0.0,0.0,0.0,0.0,0.0,0.0,0.0,0.0,0.0,0.0,0.0,0.0,0.0,0.0,0.0,0.0,0.0,0.0,0.0,0.0,0.0,0.0,0.0,0.0,0.0,0.0,0.0,0.0,0.0,0.0,0.0,0.0,0.0,0.0,0.0,0.0,0.0,0.0,0.0,0.0,0.0,0.0,0.0,0.0,0.0,0.0,0.0,0.0,0.0,0.0,0.0,0.0,0.0,0.0,0.0,0.0,0.0,0.0,0.0,0.0,0.0,0.0,0.0,0.0,0.0,0.0,0.0,0.0,0.0,0.0,0.0,0.0,0.0,0.0,0.0,0.0,0.0,0.0,0.0,0.0,0.0,0.0,0.0,0.0,0.0,0.0,0.0,0.0,0.0,0.0,0.0,0.0,0.0,0.0,0.0,0.0,0.0,0.0,0.0,0.0,0.0,0.0,0.0,0.0,0.0,0.0,0.0,0.0,0.0,0.0,0.0,0.0,0.0,0.0,0.0,0.0,0.0,0.0,0.0,0.0,0.0,0.0,0.0,0.0,0.0,0.0,0.0,0.0,0.0,0.0,0.0,0.0,0.0,0.0,0.0,0.0,0.0,0.0,0.0,0.0,0.0,0.0,0.0,0.0,0.0,0.0,0.0,0.0,0.0,0.0,0.0,0.0,0.0,0.0,0.0,0.0,0.0,0.0,0.0,0.0,0.0,0.0,0.0,0.0,0.0,0.0,0.0,0.0,0.0,0.0,0.0,0.0,0.0,0.0,0.0,0.0,0.0,0.0,0.0,0.0,0.0,0.0,0.0,0.0,0.0,0.0,0.0,0.0,0.0,0.0,0.0,0.0,0.0,0.0,0.0,0.0,0.0,0.0,0.0,0.0,0.0,0.0,0.0,0.0,0.0,0.0,0.0,0.0,0.0,0.0,0.0,0.0,0.0,0.0,0.0,0.0,0.0,0.0,0.0,0.0,0.0,0.0,0.0,0.0,0.0,0.0,0.0,0.0,0.0,0.0,0.0,0.0,0.0,0.0,0.0,0.0,0.0,0.0,0.0,0.0,0.0,0.0,0.0,0.0,0.0,0.0,0.0,0.0,0.0,0.0,0.0,0.0,0.0,0.0,0.0,0.0,0.0,0.0,0.0,0.0,0.0,0.0,0.0,0.0,0.0,0.0,0.0,0.0,0.0,0.0,0.0,0.0,0.0,0.0,0.0,0.0,0.0,0.0,0.0,0.0,0.0,0.0,0.0,0.0,0.0,0.0,0.0,0.0,0.0,0.0,0.0,0.0,0.0,0.0,0.0,0.0,0.0,0.0,0.0,0.0,0.0,0.7651,0.0,0.0,0.0,0.0,0.0,0.0,0.0,0.0,0.0,0.0,0.0,0.0,0.0,0.0,0.0,0.0,0.0,0.0,0.0,0.0,0.0,0.0,0.0,0.0,0.0,0.0,0.0,0.0,0.0,0.0,0.0,0.0,0.0,0.0,0.0,0.0,0.0,0.0,0.0,0.0,0.0,0.0,0.0,0.0,0.0,0.0,0.0,0.0,0.0,0.0,0.0,0.0,0.0,0.0,0.0,0.0,0.0,0.0,0.0,0.0,0.0,0.0,0.0,0.0,0.0,0.0,0.0,0.0,0.0,0.0,0.0,0.0,0.0,0.0,0.0,0.0,0.0,0.0,0.0,0.0,0.0,0.0,0.0,0.0,0.0,0.0,0.0,0.0,0.0,0.0,0.0,0.0,0.0,0.0,0.0,0.0,0.0,0.0,0.0,0.0,0.0,0.0,0.0,0.0,0.0,0.0,0.0,0.0,0.0,0.0,0.8194,0.8045,0.8262,0.814,0.7624,0.0,0.0,0.0,0.0,0.0,0.0,0.0,0.0,0.0,0.0,0.0,0.0,0.0,0.0,0.0,0.0,0.0,0.0,0.0,0.0,0.0,0.0,0.0,0.0,0.0,0.0,0.0,0.0,0.0,0.0,0.0,0.0,0.0,0.0,0.0,0.0,0.0,0.0,0.0,0.0,0.0,0.0,0.0,0.0,0.0,0.0,0.0,0.0,0.0,0.0,0.0,0.0,0.0,0.0,0.0,0.0,0.0,0.0,0.0,0.0,0.0,0.0,0.0,0.0,0.0,0.0,0.0,0.0,0.0,0.0,0.0,0.0,0.0,0.0,0.0,0.0,0.0,0.0,0.0,0.0,0.0,0.0,0.0,0.0,0.0,0.0,0.0,0.0,0.0,0.0,0.0,0.0,0.0,0.0,0.0,0.0,0.0,0.0,0.0,0.0,0.0,0.0,0.0,0.0,0.0,0.0,0.0,0.0,0.0,0.0,0.0,0.0,0.8465,0.8336,0.7828,0.0,0.0,0.0,0.0,0.0,0.0,0.0,0.0,0.0,0.0,0.0,0.0,0.0,0.0,0.0,0.0,0.0,0.0,0.0,0.0,0.0,0.0,0.0,0.0,0.0,0.0,0.0,0.0,0.0,0.0,0.0,0.0,0.0,0.0,0.0,0.0,0.0,0.0,0.0,0.0,0.0,0.0,0.0,0.0,0.0,0.0,0.0,0.0,0.0,0.0,0.0,0.0,0.0,0.0,0.0,0.0,0.0,0.0,0.0,0.0,0.0,0.0,0.0,0.0,0.0,0.0,0.0,0.0,0.0,0.0,0.0,0.0,0.0,0.0,0.0,0.0,0.0,0.0,0.0,0.0,0.0,0.0,0.0,0.0,0.0,0.0,0.0,0.0,0.0,0.0,0.0,0.0,0.0,0.0,0.0,0.0,0.0,0.0,0.0,0.0,0.0,0.0,0.0,0.0,0.0,0.0,0.0,0.0,0.0,0.0,0.8316,0.8838,0.8879,0.0,0.8425,0.0,0.0,0.0,0.0,0.0,0.0,0.0,0.0,0.0,0.0,0.0,0.0,0.0,0.0,0.0,0.0,0.0,0.0,0.0,0.0,0.0,0.0,0.0,0.0,0.0,0.0,0.0,0.0,0.0,0.0,0.0,0.0,0.0,0.0,0.0,0.0,0.0,0.0,0.0,0.0,0.0,0.0,0.0,0.0,0.0,0.0,0.0,0.0,0.0,0.0,0.0,0.0,0.0,0.0,0.0,0.0,0.0,0.0,0.0,0.0,0.0,0.0,0.0,0.0,0.0,0.0,0.0,0.0,0.0,0.0,0.0,0.0,0.0,0.0,0.0,0.0,0.0,0.0,0.0,0.0,0.0,0.0,0.0,0.0,0.0,0.0,0.0,0.0,0.0,0.0,0.0,0.0,0.0,0.0,0.0,0.0,0.0,0.0,0.0,0.0,0.0,0.0,0.0,0.0,0.0,0.0,0.0,0.0,0.0,0.0,0.0,0.8933,0.8764,0.8567,0.0,0.0,0.0,0.0,0.0,0.0,0.0,0.0,0.0,0.0,0.0,0.0,0.0,0.0,0.0,0.0,0.0,0.0,0.0,0.0,0.0,0.0,0.0,0.0,0.0,0.0,0.0,0.0,0.0,0.0,0.0,0.0,0.0,0.0,0.0,0.0,0.0,0.0,0.0,0.0,0.0,0.0,0.0,0.0,0.0,0.0,0.0,0.0,0.0,0.0,0.0,0.0,0.0,0.0,0.0,0.0,0.0,0.0,0.0,0.0,0.0,0.0,0.0,0.0,0.0,0.0,0.0,0.0,0.0,0.0,0.0,0.0,0.0,0.0,0.0,0.0,0.0,0.0,0.0,0.0,0.0,0.0,0.0,0.0,0.0,0.0,0.0,0.0,0.0,0.0,0.0,0.0,0.0,0.0,0.0,0.0,0.0,0.0,0.0,0.0,0.0,0.0,0.0,0.0,0.0,0.0,0.0,0.0,0.0,0.0,0.8689,0.0,0.9096,0.8825,0.8526,0.8214,0.0,0.0,0.0,0.0,0.0,0.0,0.0,0.0,0.0,0.0,0.0,0.0,0.0,0.0,0.0,0.0,0.0,0.0,0.0,0.0,0.0,0.0,0.0,0.0,0.0,0.0,0.0,0.0,0.0,0.0,0.0,0.0,0.0,0.0,0.0,0.0,0.0,0.0,0.0,0.0,0.0,0.0,0.0,0.0,0.0,0.0,0.0,0.0,0.0,0.0,0.0,0.0,0.0,0.0,0.0,0.0,0.0,0.0,0.0,0.0,0.0,0.0,0.0,0.0,0.0,0.0,0.0,0.0,0.0,0.0,0.0,0.0,0.0,0.0,0.0,0.0,0.0,0.0,0.0,0.0,0.0,0.0,0.0,0.0,0.0,0.0,0.0,0.0,0.0,0.0,0.0,0.0,0.0,0.0,0.0,0.0,0.0,0.0,0.0,0.0,0.0,0.0,0.0,0.0,0.0,0.0,0.0,0.0,0.0,0.9191,0.9137,0.9557,0.9279,0.8784,0.0,0.0,0.0,0.0,0.0,0.0,0.0,0.0,0.0,0.0,0.0,0.0,0.0,0.0,0.0,0.0,0.0,0.0,0.0,0.0,0.0,0.0,0.0,0.0,0.0,0.0,0.0,0.0,0.0,0.0,0.0,0.0,0.0,0.0,0.0,0.0,0.0,0.0,0.0,0.0,0.0,0.0,0.0,0.0,0.0,0.0,0.0,0.0,0.0,0.0,0.0,0.0,0.0,0.0,0.0,0.0,0.0,0.0,0.0,0.0,0.0,0.0,0.0,0.0,0.0,0.0,0.0,0.0,0.0,0.0,0.0,0.0,0.0,0.0,0.0,0.0,0.0,0.0,0.0,0.0,0.0,0.0,0.0,0.0,0.0,0.0,0.0,0.0,0.0,0.0,0.0,0.0,0.0,0.0,0.0,0.0,0.0,0.0,0.0,0.0,0.0,0.0,0.0,0.0,0.0,0.0,0.0,0.0,0.0,0.8662,0.8845,0.9245,0.9829,0.9137,0.8642,0.0,0.0,0.0,0.0,0.0,0.0,0.0,0.0,0.0,0.0,0.0,0.0,0.0,0.0,0.0,0.0,0.0,0.0,0.0,0.0,0.0,0.0,0.0,0.0,0.0,0.0,0.0,0.0,0.0,0.0,0.0,0.0,0.0,0.0,0.0,0.0,0.0,0.0,0.0,0.0,0.0,0.0,0.0,0.0,0.0,0.0,0.0,0.0,0.0,0.0,0.0,0.0,0.0,0.0,0.0,0.0,0.0,0.0,0.0,0.0,0.0,0.0,0.0,0.0,0.0,0.0,0.0,0.0,0.0,0.0,0.0,0.0,0.0,0.0,0.0,0.0,0.0,0.0,0.0,0.0,0.0,0.0,0.0,0.0,0.0,0.0,0.0,0.0,0.0,0.0,0.0,0.0,0.0,0.0,0.0,0.0,0.0,0.0,0.0,0.0,0.0,0.0,0.0,0.0,0.0,0.0,0.0,0.0,0.0,0.8554,0.0,0.9551,0.0,0.9028,0.8452,0.0,0.0,0.0,0.0,0.0,0.0,0.0,0.0,0.0,0.0,0.0,0.0,0.0,0.0,0.0,0.0,0.0,0.0,0.0,0.0,0.0,0.0,0.0,0.0,0.0,0.0,0.0,0.0,0.0,0.0,0.0,0.0,0.0,0.0,0.0,0.0,0.0,0.0,0.0,0.0,0.0,0.0,0.0,0.0,0.0,0.0,0.0,0.0,0.0,0.0,0.0,0.0,0.0,0.0,0.0,0.0,0.0,0.0,0.0,0.0,0.0,0.0,0.0,0.0,0.0,0.0,0.0,0.0,0.0,0.0,0.0,0.0,0.0,0.0,0.0,0.0,0.0,0.0,0.0,0.0,0.0,0.0,0.0,0.0,0.0,0.0,0.0,0.0,0.0,0.0,0.0,0.0,0.0,0.0,0.0,0.0,0.0,0.0,0.0,0.0,0.0,0.0,0.0,0.0,0.0,0.0,0.0,0.0,0.0,0.9537,1.0127,1.0019,0.9211,0.9008,0.8241,0.0,0.0,0.0,0.0,0.0,0.0,0.0,0.0,0.0,0.0,0.0,0.0,0.0,0.0,0.0,0.0,0.0,0.0,0.0,0.0,0.0,0.0,0.0,0.0,0.0,0.0,0.0,0.0,0.0,0.0,0.0,0.0,0.0,0.0,0.0,0.0,0.0,0.0,0.0,0.0,0.0,0.0,0.0,0.0,0.0,0.0,0.0,0.0,0.0,0.0,0.0,0.0,0.0,0.0,0.0,0.0,0.0,0.0,0.0,0.0,0.0,0.0,0.0,0.0,0.0,0.0,0.0,0.0,0.0,0.0,0.0,0.0,0.0,0.0,0.0,0.0,0.0,0.0,0.0,0.0,0.0,0.0,0.0,0.0,0.0,0.0,0.0,0.0,0.0,0.0,0.0,0.0,0.0,0.0,0.0,0.0,0.0,0.0,0.0,0.0,0.0,0.0,0.0,0.0,0.0,0.0,0.0,0.0,0.0,0.8845,0.9517,0.9903,0.9897,0.8988,0.8452,0.0,0.0,0.0,0.0,0.0,0.0,0.0,0.0,0.0,0.0,0.0,0.0,0.0,0.0,0.0,0.0,0.0,0.0,0.0,0.0,0.0,0.0,0.0,0.0,0.0,0.0,0.0,0.0,0.0,0.0,0.0,0.0,0.0,0.0,0.0,0.0,0.0,0.0,0.0,0.0,0.0,0.0,0.0,0.0,0.0,0.0,0.0,0.0,0.0,0.0,0.0,0.0,0.0,0.0,0.0,0.0,0.0,0.0,0.0,0.0,0.0,0.0,0.0,0.0,0.0,0.0,0.0,0.0,0.0,0.0,0.0,0.0,0.0,0.0,0.0,0.0,0.0,0.0,0.0,0.0,0.0,0.0,0.0,0.0,0.0,0.0,0.0,0.0,0.0,0.0,0.0,0.0,0.0,0.0,0.0,0.0,0.0,0.0,0.0,0.0,0.0,0.0,0.0,0.0,0.0,0.0,0.0,0.0,0.0,0.9273,0.9971,1.0304,1.0195,0.9266,0.8703,0.856,0.0,0.0,0.0,0.0,0.0,0.0,0.0,0.0,0.0,0.0,0.0,0.0,0.0,0.0,0.0,0.0,0.0,0.0,0.0,0.0,0.0,0.0,0.0,0.0,0.0,0.0,0.0,0.0,0.0,0.0,0.0,0.0,0.0,0.0,0.0,0.0,0.0,0.0,0.0,0.0,0.0,0.0,0.0,0.0,0.0,0.0,0.0,0.0,0.0,0.0,0.0,0.0,0.0,0.0,0.0,0.0,0.0,0.0,0.0,0.0,0.0,0.0,0.0,0.0,0.0,0.0,0.0,0.0,0.0,0.0,0.0,0.0,0.0,0.0,0.0,0.0,0.0,0.0,0.0,0.0,0.0,0.0,0.0,0.0,0.0,0.0,0.0,0.0,0.0,0.0,0.0,0.0,0.0,0.0,0.0,0.0,0.0,0.0,0.0,0.0,0.0,0.0,0.0,0.0,0.0,0.0,0.0,0.0,1.0521,1.128,1.1192,1.0215,0.9815,0.9022,0.0,0.0,0.0,0.0,0.0,0.0,0.0,0.0,0.0,0.0,0.0,0.0,0.0,0.0,0.0,0.0,0.0,0.0,0.0,0.0,0.0,0.0,0.0,0.0,0.0,0.0,0.0,0.0,0.0,0.0,0.0,0.0,0.0,0.0,0.0,0.0,0.0,0.0,0.0,0.0,0.0,0.0,0.0,0.0,0.0,0.0,0.0,0.0,0.0,0.0,0.0,0.0,0.0,0.0,0.0,0.0,0.0,0.0,0.0,0.0,0.0,0.0,0.0,0.0,0.0,0.0,0.0,0.0,0.0,0.0,0.0,0.0,0.0,0.0,0.0,0.0,0.0,0.0,0.0,0.0,0.0,0.0,0.0,0.0,0.0,0.0,0.0,0.0,0.0,0.0,0.0,0.0,0.0,0.0,0.0,0.0,0.0,0.0,0.0,0.0,0.0,0.0,0.0,0.0,0.0,0.0,0.0,0.0,0.0,1.0982,1.1938,1.2149,1.1531,1.0385,0.9551,0.0,0.0,0.0,0.0,0.0,0.0,0.0,0.0,0.0,0.0,0.0,0.0,0.0,0.0,0.0,0.0,0.0,0.0,0.0,0.0,0.0,0.0,0.0,0.0,0.0,0.0,0.0,0.0,0.0,0.0,0.0,0.0,0.0,0.0,0.0,0.0,0.0,0.0,0.0,0.0,0.0,0.0,0.0,0.0,0.0,0.0,0.0,0.0,0.0,0.0,0.0,0.0,0.0,0.0,0.0,0.0,0.0,0.0,0.0,0.0,0.0,0.0,0.0,0.0,0.0,0.0,0.0,0.0,0.0,0.0,0.0,0.0,0.0,0.0,0.0,0.0,0.0,0.0,0.0,0.0,0.0,0.0,0.0,0.0,0.0,0.0,0.0,0.0,0.0,0.0,0.0,0.0,0.0,0.0,0.0,0.0,0.0,0.0,0.0,0.0,0.0,0.0,0.0,0.0,0.0,0.0,0.0,0.0,1.0568,1.1708,1.2569,1.2888,1.263,1.1355,1.0331,0.0,0.0,0.0,0.0,0.0,0.0,0.0,0.0,0.0,0.0,0.0,0.0,0.0,0.0,0.0,0.0,0.0,0.0,0.0,0.0,0.0,0.0,0.0,0.0,0.0,0.0,0.0,0.0,0.0,0.0,0.0,0.0,0.0,0.0,0.0,0.0,0.0,0.0,0.0,0.0,0.0,0.0,0.0,0.0,0.0,0.0,0.0,0.0,0.0,0.0,0.0,0.0,0.0,0.0,0.0,0.0,0.0,0.0,0.0,0.0,0.0,0.0,0.0,0.0,0.0,0.0,0.0,0.0,0.0,0.0,0.0,0.0,0.0,0.0,0.0,0.0,0.0,0.0,0.0,0.0,0.0,0.0,0.0,0.0,0.0,0.0,0.0,0.0,0.0,0.0,0.0,0.0,0.0,0.0,0.0,0.0,0.0,0.0,0.0,0.0,0.0,0.0,0.0,0.0,0.0,0.0,0.0,0.0,1.1063,1.2474,1.3119,1.3444,1.3417,1.2379,1.1131,0.0,0.0,0.0,0.0,0.0,0.0,0.0,0.0,0.0,0.0,0.0,0.0,0.0,0.0,0.0,0.0,0.0,0.0,0.0,0.0,0.0,0.0,0.0,0.0,0.0,0.0,0.0,0.0,0.0,0.0,0.0,0.0,0.0,0.0,0.0,0.0,0.0,0.0,0.0,0.0,0.0,0.0,0.0,0.0,0.0,0.0,0.0,0.0,0.0,0.0,0.0,0.0,0.0,0.0,0.0,0.0,0.0,0.0,0.0,0.0,0.0,0.0,0.0,0.0,0.0,0.0,0.0,0.0,0.0,0.0,0.0,0.0,0.0,0.0,0.0,0.0,0.0,0.0,0.0,0.0,0.0,0.0,0.0,0.0,0.0,0.0,0.0,0.0,0.0,0.0,0.0,0.0,0.0,0.0,0.0,0.0,0.0,0.0,0.0,0.0,0.0,0.0,0.0,0.0,0.0,0.0,0.0,0.0,1.147,1.2481,1.3315,1.3749,1.3743,1.2393,1.1131,0.0,0.0,0.0,0.0,0.0,0.0,0.0,0.0,0.0,0.0,0.0,0.0,0.0,0.0,0.0,0.0,0.0,0.0,0.0,0.0,0.0,0.0,0.0,0.0,0.0,0.0,0.0,0.0,0.0,0.0,0.0,0.0,0.0,0.0,0.0,0.0,0.0,0.0,0.0,0.0,0.0,0.0,0.0,0.0,0.0,0.0,0.0,0.0,0.3344,0.0,0.0,0.0,0.0,0.0,0.0,0.0,0.0,0.0,0.0,0.0,0.0,0.0,0.0,0.0,0.0,0.0,0.0,0.0,0.0,0.0,0.0,0.0,0.0,0.0,0.0,0.0,0.0,0.0,0.0,0.0,0.0,0.0,0.0,0.0,0.0,0.0,0.0,0.0,0.0,0.0,0.0,0.0,0.0,0.0,0.0,0.0,0.0,0.0,0.0,0.0,0.0,0.0,0.0,0.0,0.0,0.0,0.0,0.0,1.1945,1.2901,1.3593,1.3912,1.4152,1.3116,1.1798,0.0,0.0,0.0,0.0,0.0,0.0,0.0,0.0,0.0,0.0,0.0,0.0,0.0,0.0,0.0,0.0,0.0,0.0,0.0,0.0,0.0,0.0,0.0,0.0,0.0,0.0,0.0,0.0,0.0,0.0,0.0,0.0,0.0,0.0,0.0,0.0,0.0,0.0,0.0,0.0,0.0,0.0,0.0,0.0,0.0,0.0,0.0,0.0,0.0,0.0,0.0,0.0,0.0,0.0,0.0,0.0,0.0,0.0,0.0,0.0,0.0,0.0,0.0,0.0,0.0,0.0,0.0,0.0,0.0,0.0,0.0,0.0,0.0,0.0,0.0,0.0,0.0,0.0,0.0,0.0,0.0,0.0,0.0,0.0,0.0,0.0,0.0,0.0,0.0,0.0,0.0,0.0,0.0,0.0,0.0,0.0,0.0,0.0,0.0,0.0,0.0,0.0,0.0,0.0,0.0,0.0,0.0,1.1262,1.2457,1.3556,1.4043,1.4368,1.4529,1.4131,1.2899,1.0919,0.0,0.0,0.0,0.0,0.0,0.0,0.0,0.0,0.0,0.0,0.0,0.0,0.0,0.0,0.0,0.0,0.0,0.0,0.0,0.0,0.0,0.0,0.0,0.0,0.0,0.0,0.0,0.0,0.0,0.0,0.0,0.0,0.0,0.0,0.0,0.0,0.0,0.0,0.1912,0.2984,0.0,0.0,0.0,0.0,0.0,0.0,0.0,0.0,0.6771,0.0,0.0,0.0,0.0,0.0,0.0,0.0,0.0,0.0,0.0,0.0,0.0,0.0,0.0,0.0,0.0,0.0,0.0,0.0,0.0,0.0,0.0,0.0,0.0,0.0,0.0,0.0,0.0,0.0,0.0,0.0,0.0,0.0,0.0,0.0,0.0,0.0,0.0,0.0,0.0,0.0,0.0,0.0,0.0,0.0,0.0,0.0,0.0,0.0,0.0,0.0,0.0,0.0,0.0,0.0,0.0,1.161,1.1902,1.2907,1.4725,1.5241,1.5351,1.5056,1.4673,1.3583,1.1347,0.0,0.0,0.0,0.0,0.0,0.0,0.0,0.0,0.0,0.0,0.0,0.0,0.0,0.0,0.0,0.0,0.0,0.0,0.0,0.0,0.0,0.0,0.0,0.0,0.0,0.0,0.0,0.0,0.0,0.0,0.0,0.0,0.0,0.0,0.0,0.0,0.0,0.0,0.0,0.537,0.5976,0.0,0.0,0.0,0.0,0.0,0.0,0.0,0.0,0.7215,0.0,0.0,0.0,0.0,0.0,0.0,0.0,0.0,0.0,0.0,0.0,0.0,0.0,0.0,0.0,0.0,0.0,0.0,0.0,0.0,0.0,0.0,0.0,0.0,0.0,0.0,0.0,0.0,0.0,0.0,0.0,0.0,0.0,0.0,0.0,0.0,0.0,0.0,0.0,0.0,0.0,0.0,0.0,0.0,0.0,0.0,0.0,0.0,0.0,0.0,0.0,0.0,0.0,0.0,0.0,1.1423,1.2678,1.3885,1.5063,1.5406,1.5632,1.5546,1.4723,1.3416,0.0,0.0,0.0,0.0,0.0,0.0,0.0,0.0,0.0,0.0,0.0,0.0,0.0,0.0,0.0,0.0,0.0,0.0,0.0,0.0,0.0,0.0,0.0,0.0,0.0,0.0,0.0,0.0,0.0,0.0,0.0,0.0,0.0,0.0,0.0,0.0,0.0,0.0,0.0,0.0,0.6433,0.7269,0.8357,0.0,0.0,0.0,0.0,0.0,0.0,0.7367,0.7421,0.0,0.0,0.0,0.0,0.0,0.0,0.0,0.0,0.0,0.0,0.0,0.0,0.0,0.0,0.0,0.0,0.0,0.0,0.0,0.0,0.0,0.0,0.0,0.0,0.0,0.0,0.0,0.0,0.0,0.0,0.0,0.0,0.0,0.0,0.0,0.0,0.0,0.0,0.0,0.0,0.0,0.0,0.0,0.0,0.0,0.0,0.0,0.0,0.0,0.0,0.0,0.0,0.0,0.0,0.0,1.118,1.3378,1.4705,1.5308,1.5526,1.5706,1.5994,1.468,1.3488,0.0,0.0,0.0,0.0,0.0,0.0,0.0,0.0,0.0,0.0,0.0,0.0,0.0,0.0,0.0,0.0,0.0,0.0,0.0,0.0,0.0,0.0,0.0,0.0,0.0,0.0,0.0,0.0,0.0,0.0,0.0,0.0,0.0,0.0,0.0,0.0,0.0,0.0,0.0,0.0,0.0,0.8549,0.9432,0.915,0.0,0.0,0.0,0.0,0.8262,0.816,0.0,0.0,0.0,0.0,0.0,0.0,0.0,0.0,0.0,0.0,0.0,0.0,0.0,0.0,0.0,0.0,0.0,0.0,0.0,0.0,0.0,0.0,0.0,0.0,0.0,0.0,0.0,0.0,0.0,0.0,0.0,0.0,0.0,0.0,0.0,0.0,0.0,0.0,0.0,0.0,0.0,0.0,0.0,0.0,0.0,0.0,0.0,0.0,0.0,0.0,0.0,0.0,0.0,0.0,0.0,0.0,1.1767,1.3381,1.4851,1.6116,1.6502,1.6518,1.6341,1.5562,1.4364,0.0,0.0,0.0,0.0,0.0,0.0,0.0,0.0,0.0,0.0,0.0,0.0,0.0,0.0,0.0,0.0,0.0,0.0,0.0,0.0,0.0,0.0,0.0,0.0,0.0,0.0,0.0,0.0,0.0,0.0,0.0,0.0,0.0,0.0,0.0,0.0,0.0,0.0,0.0,0.0,0.0,1.0136,0.951,0.9347,0.9184,0.0,0.0,0.873,0.9157,0.9415,0.0,0.0,0.0,0.0,0.0,0.0,0.0,0.0,0.0,0.0,0.0,0.0,0.0,0.0,0.0,0.0,0.0,0.0,0.0,0.0,0.0,0.0,0.0,0.0,0.0,0.0,0.0,0.0,0.0,0.0,0.0,0.0,0.0,0.0,0.0,0.0,0.0,0.0,0.0,0.0,0.0,0.0,0.0,0.0,0.0,0.0,0.0,0.0,0.0,0.0,0.0,0.0,0.0,0.0,0.0,1.0654,1.1933,1.4016,1.5498,1.6284,1.656,1.6527,1.6162,1.5147,1.3769,0.0,0.0,0.0,0.0,0.0,0.0,0.0,0.0,0.0,0.0,0.0,0.0,0.0,0.0,0.0,0.0,0.0,0.0,0.0,0.0,0.0,0.0,0.0,0.0,0.0,0.0,0.0,0.0,0.0,0.0,0.0,0.0,0.0,0.0,0.0,0.0,0.0,0.0,0.0,0.0,0.0,0.0,1.0039,0.9944,0.0,0.0,0.0,0.9381,0.9822,0.0,0.0,0.0,0.0,0.0,0.0,0.0,0.0,0.0,0.0,0.0,0.0,0.0,0.0,0.0,0.0,0.0,0.0,0.0,0.0,0.0,0.0,0.0,0.0,0.0,0.0,0.0,0.0,0.0,0.0,0.0,0.0,0.0,0.0,0.0,0.0,0.0,0.0,0.0,0.0,0.0,0.0,0.0,0.0,0.0,0.0,0.0,0.0,0.0,0.0,0.0,0.0,0.0,0.0,0.0,0.0,0.0,1.2067,1.4621,1.6105,1.6243,1.6462,1.6414,1.604,1.4822,0.0,0.0,0.0,0.0,0.0,0.0,0.0,0.0,0.0,0.0,0.0,0.0,0.0,0.0,0.0,0.0,0.0,0.0,0.0,0.0,0.0,0.0,0.0,0.0,0.0,0.0,0.0,0.4702,0.0,0.0,0.0,0.0,0.0,0.0,0.0,0.0,0.0,0.0,0.0,0.0,0.0,0.0,1.0202,1.0453,1.0493,1.0527,0.0,0.0,1.0073,1.0439,1.0439,1.0053,0.0,0.0,0.0,0.0,0.0,0.0,0.0,0.0,0.0,0.0,0.0,0.0,0.0,0.0,0.0,0.0,0.0,0.0,0.0,0.0,0.0,0.0,0.0,0.0,0.0,0.0,0.0,0.0,0.0,0.0,0.0,0.0,0.0,0.0,0.0,0.0,0.0,0.0,0.0,0.0,0.0,0.0,0.0,0.0,0.0,0.0,0.0,0.0,0.0,0.0,0.0,0.0,0.0,0.0,0.0,1.2361,1.4773,1.6056,1.6073,1.6405,1.6414,1.6048,1.5301,1.4075,0.0,0.0,0.0,0.0,0.0,0.0,0.0,0.0,0.0,0.0,0.0,0.0,0.0,0.0,0.0,0.0,0.0,0.0,0.0,0.0,0.0,0.0,0.0,0.0,0.0,0.0,0.0,0.0,0.0,0.0,0.0,0.0,0.0,0.0,0.0,0.0,0.0,0.0,0.0,0.0,0.0,1.0324,1.0473,1.0839,1.1206,0.0,0.0,1.0921,1.1077,1.1552,1.124,0.9266,0.0,0.0,0.0,0.0,0.0,0.0,0.0,0.0,0.0,0.0,0.0,0.0,0.0,0.0,0.0,0.0,0.0,0.0,0.0,0.0,0.0,0.0,0.0,0.0,0.0,0.0,0.0,0.0,0.0,0.0,0.0,0.0,0.0,0.0,0.0,0.0,0.0,0.0,0.0,0.0,0.0,0.0,0.0,0.0,0.0,0.0,0.0,0.0,0.0,0.0,0.0,0.0,0.0,1.163,1.2475,1.483,1.6048,1.6056,1.6397,1.6357,1.5886,1.5285,1.418,0.0,0.0,0.0,0.0,0.0,0.0,0.0,0.0,0.0,0.0,0.0,0.0,0.0,0.0,0.0,0.0,0.0,0.0,0.0,0.0,0.0,0.0,0.0,0.0,0.0,0.0,0.0,0.0,0.6112,0.6139,0.6017,0.0,0.0,0.0,0.0,0.0,0.0,0.0,0.0,0.0,0.0,1.125,1.1516,1.1832,0.0,0.0,1.1791,1.1477,1.1809,1.1586,1.1009,0.9937,0.9191,0.0,0.0,0.0,0.0,0.0,0.0,0.0,0.0,0.0,0.0,0.0,0.0,0.0,0.0,0.0,0.0,0.0,0.0,0.0,0.0,0.0,0.0,0.0,0.0,0.0,0.0,0.0,0.0,0.0,0.0,0.0,0.0,0.0,0.0,0.0,0.0,0.0,0.0,0.0,0.0,0.0,0.0,0.0,0.0,0.0,0.0,0.0,0.0,0.0,0.0,0.0,0.0,1.1695,1.2645,1.4887,1.6097,1.6202,1.6454,1.6373,1.5934,1.5358,1.4343,0.0,0.0,0.0,0.0,0.0,0.0,0.0,0.0,0.0,0.0,0.0,0.0,0.0,0.0,0.0,0.0,0.0,0.0,0.0,0.0,0.0,0.0,0.0,0.0,0.0,0.0,0.0,0.0,0.6711,0.661,0.6235,0.0,0.0,0.0,0.0,0.0,0.0,0.0,0.0,0.0,0.0,1.1918,1.2488,1.2568,1.2586,1.2842,1.2199,1.1714,1.1979,1.1674,1.1042,1.0321,0.0,0.0,0.0,0.0,0.0,0.0,0.0,0.0,0.0,0.0,0.0,0.0,0.0,0.0,0.0,0.0,0.0,0.0,0.0,0.0,0.0,0.0,0.0,0.0,0.0,0.0,0.0,0.0,0.0,0.0,0.8276,0.0,0.0,0.0,0.0,0.0,0.0,0.0,0.0,0.0,0.0,0.0,0.0,0.0,0.0,0.0,0.0,0.0,0.0,0.0,0.0,0.0,0.0,0.0,1.284,1.4952,1.6211,1.6544,1.6576,1.6487,1.6267,1.5601,1.4635,1.3352,0.0,0.0,0.0,0.0,0.0,0.0,0.0,0.0,0.0,0.0,0.0,0.0,0.0,0.0,0.0,0.0,0.0,0.0,0.0,0.0,0.0,0.0,0.0,0.0,0.0,0.0,0.6791,0.682,0.6608,0.0,0.0,0.0,0.0,0.0,0.0,0.0,0.0,0.0,0.0,1.1381,1.2278,1.3103,1.2955,1.2721,1.287,1.2206,1.1586,1.147,1.181,1.171,0.0,0.0,0.0,0.0,0.0,0.0,0.0,0.0,0.0,0.0,0.0,0.0,0.0,0.0,0.0,0.0,0.0,0.0,0.0,0.0,0.0,0.0,0.0,0.0,0.0,0.0,0.0,1.0298,0.9827,0.0,0.0,0.0,0.0,0.0,0.0,0.0,0.0,0.0,0.0,0.0,1.1784,1.219,0.0,0.0,0.0,0.0,0.0,0.0,0.0,0.0,0.0,0.0,0.0,0.0,1.1874,1.3206,1.5074,1.6162,1.6389,1.6519,1.6438,1.6137,1.5553,1.4367,1.254,0.0,0.0,0.0,0.0,0.0,0.0,0.0,0.0,0.0,0.0,0.0,0.0,0.0,0.0,0.0,0.0,0.0,0.0,0.0,0.0,0.0,0.0,0.0,0.0,0.0,0.7104,0.0,0.0,0.0,0.0,0.0,0.0,0.0,0.0,0.0,0.0,0.0,1.0189,1.1185,1.2546,1.3515,1.3791,1.3908,1.3913,0.0,0.0,0.0,0.0,0.0,0.0,0.0,0.0,0.0,0.0,0.0,0.0,0.0,0.0,1.1678,0.9399,0.8718,0.8426,0.8426,0.0,0.0,0.0,0.0,0.0,0.0,0.0,0.0,0.0,0.0,0.0,0.0,0.0,0.0,1.1549,0.0,1.1102,0.0,0.0,0.0,0.0,0.0,0.0,0.0,0.0,1.2385,1.3059,1.3246,1.3644,1.3595,0.0,1.2718,1.1638,0.0,0.0,0.0,0.0,0.0,0.0,0.0,0.0,1.2182,1.3563,1.5195,1.6162,1.6389,1.6454,1.6373,1.6129,1.5431,1.4245,1.2548,1.1524,1.0517,0.0,0.0,0.0,0.0,0.0,0.0,0.0,0.0,0.0,0.0,0.0,0.0,0.0,0.0,0.0,0.0,0.0,0.0,0.0,0.0,0.0,0.0,0.0,0.764,0.0,0.0,0.0,0.0,0.0,0.0,0.0,0.0,0.0,0.9476,1.0548,1.1547,1.2453,1.3499,1.4268,1.4525,0.0,0.0,0.0,0.0,0.0,0.0,0.0,1.2507,1.2727,1.2323,1.1934,1.1888,1.2649,1.3101,1.2594,0.0,0.0,1.0878,1.0202,1.0038,0.9931,1.0154,1.0242,1.0303,1.0715,1.1035,0.0,0.0,0.0,0.0,0.0,0.0,0.0,0.0,1.2385,1.254,0.0,1.2109,0.0,0.0,0.0,0.0,0.0,0.0,0.0,0.0,1.4464,1.5155,1.5009,1.5179,1.509,1.4773,1.4862,1.4123,1.2556,1.0526,0.0,0.0,0.0,0.0,0.0,0.0,1.267,1.3928,1.5333,1.6219,1.6544,1.6397,1.6292,1.6243,1.5277,1.431,1.3409,1.2532,1.1492,1.0266,0.9527,0.0,0.0,0.0,0.0,0.0,0.0,0.0,0.0,0.0,0.0,0.0,0.0,0.0,0.0,0.0,0.0,0.0,0.0,0.0,0.0,0.8074,0.0,0.0,0.0,0.0,0.0,0.0,0.0,0.0,0.0,0.0,1.0579,1.1508,1.2736,1.4034,0.0,0.0,0.0,0.0,1.4197,1.4376,1.3809,1.3454,1.3454,1.3852,1.4082,1.3609,0.0,0.0,1.3316,1.4011,1.4244,1.2972,1.3657,1.4107,1.3717,1.2728,1.2153,1.2145,1.1892,1.1644,1.1827,1.2185,1.2528,1.4903,0.0,0.0,0.0,0.0,1.3782,1.4237,1.4903,1.4952,1.4643,1.4075,1.3798,0.0,0.0,0.0,0.0,0.0,0.0,1.31,1.401,1.4992,1.561,1.5926,1.6113,1.6008,1.5666,1.5455,1.4919,1.4066,1.2962,1.1427,0.9551,0.0,0.0,0.0,0.0,1.3222,1.4456,1.5512,1.6154,1.6373,1.6332,1.6121,1.5748,1.5317,1.4667,1.3774,1.3254,1.2467,1.1362,1.0509,0.0,0.0,0.0,0.0,0.0,0.0,0.0,0.0,0.0,0.0,0.0,0.0,0.0,0.0,0.0,0.0,0.0,0.0,0.0,0.7987,0.8202,0.8349,0.0,0.0,0.0,0.0,0.0,0.0,0.0,0.0,0.0,1.2797,1.3271,1.3729,0.0,0.0,1.5122,1.4895,1.5047,1.5329,1.5377,0.0,0.0,0.0,1.4641,1.4467,1.4879,1.5187,1.5195,1.479,1.5114,1.5187,1.4702,1.4984,1.5057,1.4789,1.385,1.3247,1.3199,1.3247,1.3261,1.3555,1.3841,1.4064,2.0065,1.7901,1.548,1.4781,1.5074,1.5147,1.5585,1.6259,1.6259,1.6032,1.5642,1.539,1.4546,1.3279,1.2856,0.0,0.0,0.0,1.414,1.4984,1.5634,1.6146,1.6519,1.6633,1.6535,1.6243,1.5821,1.5447,1.5114,1.4416,1.3238,1.1622,0.0,0.0,1.1768,1.2686,1.3701,1.4789,1.5553,1.5959,1.5991,1.5991,1.5804,1.5423,1.5228,1.4846,1.4245,1.3807,1.3189,1.2328,1.1443,1.0444,0.0,0.0,0.0,0.0,0.0,0.0,0.0,0.0,0.0,0.0,0.0,0.7317,0.0,0.0,0.0,0.0,0.7699,0.8414,0.8982,0.9163,0.0,0.0,0.0,0.0,0.0,0.0,0.0,1.2052,1.2781,1.356,1.444,1.4757,1.4935,1.496,1.5342,1.552,1.5277,0.0,1.5902,1.5975,1.6073,1.6137,1.6097,1.5658,1.5498,1.5804,1.5764,1.5731,1.5723,1.5723,1.5699,1.5642,1.5618,1.5561,1.5382,1.4814,1.4359,1.4294,1.4359,1.4529,1.4806,1.4952,1.5065,2.6191,2.3989,1.8678,1.6393,1.6369,1.6349,1.6519,1.6682,1.6674,1.6844,1.712,1.6779,1.6129,1.5244,1.4229,0.0,1.4343,1.483,1.5333,1.5878,1.6389,1.6714,1.6868,1.6877,1.6779,1.6584,1.6081,1.5821,1.5756,1.5098,1.4594,1.4237,1.3084,1.2808,1.3409,1.3636,1.4172,1.5017,1.5528,1.5699,1.5545,1.552,1.5423,1.522,1.5057,1.4862,1.4643,1.4164,1.3652,1.31,1.2272,1.1265,1.0054,0.0,0.0,0.0,0.0,0.0,0.0,0.0,0.0,0.0,0.0,0.0,0.0,0.0,0.0,0.0,0.8942,0.0,1.0168,1.0501,0.0,0.0,0.0,1.0396,1.0664,1.1549,1.2353,1.2921,0.0,0.0,1.5496,0.0,1.6024,1.5861,1.5837,1.5886,1.6024,1.6073,1.617,1.6332,1.6357,1.643,1.6576,1.656,1.6462,1.6316,1.6194,1.6089,1.6064,1.6056,1.5991,1.5821,1.5796,1.5748,1.5585,1.552,1.5504,1.5301,1.5252,1.5293,1.5455,1.5504,1.552,2.5472,2.4797,2.1782,2.0189,1.9578,1.8068,1.7429,1.7583,1.7453,1.7437,1.7494,1.7145,1.6568,1.5821,1.5155,1.513,1.561,1.5731,1.6081,1.66,1.6868,1.7006,1.7047,1.7055,1.6958,1.6779,1.6519,1.6251,1.5967,1.5536,1.5212,1.4968,1.4416,1.4083,1.4002,1.4424,1.496,1.5577,1.5707,1.5756,1.5707,1.5585,1.5366,1.5041,1.4992,1.4692,1.4123,1.3977,1.3652,1.3116,1.2507,1.1792,1.094,0.9502,0.0,0.0,0.0,0.0,0.0,0.0,0.0,0.0,0.0,0.8487,0.7204,0.0,0.8609,0.0,0.9332,1.0022,1.0517,1.0639,0.0,0.0,1.1581,1.1792,1.2767,1.2986,1.3368,1.4172,1.4887,1.5472,1.5869,1.6235,1.6438,1.6397,1.6389,1.6308,1.6105,1.6414,1.6674,1.6714,1.682,1.6933,1.695,1.6868,1.6722,1.6544,1.6479,1.6405,1.6267,1.6243,1.6186,1.6024,1.5983,1.5959,1.5926,1.5918,1.591,1.5845,1.5642,1.5504,1.5675,1.5715,1.5788,2.814,2.7926,2.5582,2.449,2.3921,1.9754,1.8014,1.8022,1.7924,1.7835,1.7746,1.7469,1.7039,1.6511,1.6202,1.6146,1.6284,1.6284,1.6446,1.673,1.6828,1.6877,1.6877,1.6877,1.682,1.6722,1.6544,1.6397,1.6276,1.5999,1.5813,1.5707,1.5512,1.5285,1.5017,1.4984,1.5228,1.5764,1.5699,1.5658,1.565,1.5488,1.5179,1.4749,1.4732,1.4432,1.3815,1.3709,1.3417,1.2881,1.2426,1.189,1.124,1.0079,0.9218,0.0,0.0,0.0,0.0,0.0,0.0,0.0,0.0,0.0,0.0,0.0,0.9364,0.9527,1.0266,1.0948,1.1476,1.1744,1.2125,1.2718,1.2751,1.3003,1.3685,1.3888,1.4253,1.4984,1.5472,1.5918,1.6349,1.6576,1.673,1.6803,1.6812,1.6722,1.6495,1.6738,1.6966,1.6974,1.7047,1.7112,1.7112,1.6966,1.682,1.6722,1.6633,1.6544,1.6446,1.643,1.6397,1.6308,1.6284,1.6284,1.6284,1.6284,1.6284,1.6259,1.6129,1.6016,1.6008,1.6073,1.6202,3.1704,3.1447,2.9267,2.8375,2.7924,2.1878,1.9184,1.8607,1.8566,1.8272,1.7932,1.7713,1.7453,1.7177,1.7128,1.6958,1.6682,1.6657,1.6649,1.6649,1.6625,1.6609,1.6584,1.6584,1.6584,1.6576,1.6414,1.6405,1.6535,1.6381,1.6292,1.6267,1.6243,1.617,1.6024,1.539,1.5301,1.5764,1.5601,1.5512,1.5512,1.5309,1.496,1.4464,1.4383,1.4115,1.3604,1.3401,1.3076,1.2588,1.2247,1.1841,1.1346,1.0607,1.003,0.0,0.9137,0.0,0.0,0.0,0.0,0.0,0.0,0.0,0.0,1.0014,1.0314,1.0615,1.1435,1.2142,1.2621,1.3133,1.3449,1.3482,1.3815,1.4034,1.4058,1.4513,1.5033,1.5528,1.5894,1.6308,1.6755,1.6885,1.6982,1.7112,1.7161,1.7128,1.6998,1.7039,1.7096,1.7112,1.7112,1.7112,1.7096,1.699,1.6893,1.6868,1.6779,1.6641,1.6625,1.6617,1.6609,1.6576,1.6552,1.656,1.6584,1.6568,1.6568,1.6552,1.6552,1.6519,1.6381,1.643,1.6584,3.1877,3.1474,2.948,2.8545,2.7972,2.5408,2.2931,2.1035,2.09,1.9816,1.8095,1.764,1.7478,1.751,1.7242,1.7153,1.7226,1.708,1.7006,1.7006,1.686,1.6722,1.6584,1.6584,1.6584,1.6576,1.6544,1.647,1.6357,1.6316,1.6227,1.6089,1.5951,1.5926,1.6024,0.0,0.0,0.0,1.5601,1.5512,1.5504,1.5187,1.483,1.444,1.4148,0.0,1.323,1.3027,1.2824,1.2572,1.2361,0.0,0.0,0.0,0.0,0.0,0.0,0.0,0.0,0.0,0.0,0.0,1.0891,1.0631,1.0339,1.124,1.1817,1.176,1.241,1.2946,1.3197,1.3563,1.3863,1.4026,1.4464,1.4765,1.4781,1.5236,1.5675,1.5918,1.6259,1.6568,1.682,1.7104,1.7291,1.7323,1.7453,1.7526,1.7486,1.7266,1.712,1.7112,1.7112,1.7112,1.7112,1.708,1.7047,1.7055,1.7039,1.695,1.6836,1.6803,1.6738,1.6633,1.6584,1.6592,1.6592,1.6584,1.66,1.6584,1.6706,1.6747,1.6568,1.6552,1.6625,3.2064,0.0,3.0651,3.0153,0.0,2.7925,2.572,2.3557,2.2286,2.0288,1.8152,1.7802,1.7599,1.751,1.7331,1.7242,1.7242,1.7153,1.7112,1.7104,1.6933,1.6803,1.6714,1.6625,1.6584,1.6584,1.6584,1.6527,1.6446,1.6438,1.6397,1.6308,1.6219,1.6219,1.6308,1.6219,1.6089,1.591,1.5821,1.5731,1.5642,1.5463,1.5065,1.4456,0.0,0.0,0.0,0.0,0.0,0.0,0.0,0.0,0.0,0.0,0.0,1.107,1.0826,1.068,1.0696,1.1013,1.1451,1.1979,1.2182,1.206,1.1524,1.2231,1.2735,1.2832,1.3238,1.3604,1.3872,1.414,1.4367,1.4554,1.4887,1.513,1.526,1.5634,1.5975,1.617,1.6487,1.6779,1.6958,1.721,1.7372,1.7396,1.7534,1.7648,1.7624,1.7421,1.7226,1.7128,1.7112,1.7112,1.7112,1.7112,1.7112,1.7112,1.7112,1.708,1.6998,1.6982,1.6942,1.686,1.6844,1.6844,1.6844,1.6844,1.6844,1.6844,1.6917,1.6958,1.686,1.6844,1.6868,3.2278,3.177,3.1998,3.1931,3.1474,2.9924,2.7984,2.5829,0.0,0.0,0.0,1.8005,1.7778,1.7526,1.7494,1.7413,1.7299,1.7266,1.7234,1.7193,1.7031,1.6933,1.6893,1.6747,1.6657,1.6633,1.6625,1.6609,1.6584,1.6584,1.6584,1.6576,1.6552,1.6681,1.6986,1.7323,1.7328,1.6871,1.6698,1.6441,1.6257,1.6538,1.6276,1.5423,1.4914,1.4248,1.3411,1.2931,1.2507,1.2085,1.1996,1.206,1.2239,1.1874,1.1914,1.2499,1.2434,1.2369,1.2402,1.2735,1.2913,1.2848,1.3287,1.336,1.2881,1.3116,1.3425,1.375,1.3945,1.4172,1.4497,1.4692,1.4871,1.5041,1.522,1.5398,1.5561,1.5878,1.6162,1.6349,1.6641,1.6933,1.7136,1.7323,1.7453,1.7502,1.7656,1.7713,1.7664,1.751,1.7323,1.721,1.7153,1.7112,1.7112,1.7112,1.7112,1.7112,1.7112,1.7112,1.7112,1.7112,1.7112,1.7088,1.7112,1.7096,1.7104,1.7088,1.7112,1.7112,1.7112,1.7112,1.7112,1.7112,1.7096,3.2572,3.2051,3.2091,3.1931,3.1664,3.1474,3.0115,2.7745,2.177,1.8814,1.8395,1.8062,1.7973,1.8054,1.7908,1.7908,1.8014,1.7875,1.7721,0.0,1.7396,1.7226,1.708,1.7047,1.6958,1.682,1.6812,1.673,1.6592,1.6584,1.6584,1.656,1.6422,1.7093,1.8402,1.9855,2.0475,2.0413,1.8952,1.8207,1.8012,1.9253,1.9677,1.9124,1.7517,1.6271,1.5615,1.4164,1.3222,1.3149,1.2856,1.284,1.3133,1.2548,1.2304,1.254,1.254,1.2596,1.2759,1.3092,1.349,1.3912,1.4156,1.4188,1.3977,1.3993,1.4107,1.431,1.4481,1.4676,1.4879,1.5049,1.5228,1.5415,1.5593,1.5715,1.5756,1.6064,1.6349,1.6527,1.6722,1.699,1.7283,1.7494,1.7656,1.7819,1.7932,1.8038,1.7867,1.7591,1.7396,1.7331,1.721,1.7128,1.7128,1.7112,1.712,1.7112,1.7112,1.7112,1.7112,1.7112,1.7112,1.7112,1.7112,1.7112,1.7112,1.7112,1.7112,1.7112,1.7112,1.7112,1.7112,1.7112,1.7112,3.2866,3.2358,3.2345,3.2171,3.1891,3.0574,2.8764,2.6613,2.2548,2.057,2.0259,1.9878,1.9147,1.8014,1.7843,1.84,1.9665,1.8501,1.8467,1.9367,1.8292,1.7632,1.7543,1.7445,1.7307,1.7153,1.7145,1.7513,1.8101,1.8255,1.8758,1.959,1.9663,1.9835,2.0301,2.1105,2.1545,2.1416,2.0475,2.0038,1.9947,2.0634,2.083,2.0353,1.9275,1.795,1.6817,1.6622,1.5654,1.3522,1.4301,1.424,1.3489,1.2962,1.2897,1.3254,1.3287,1.3368,1.3555,1.3798,1.414,1.457,1.4676,1.4773,1.4895,1.4716,1.4635,1.4724,1.4976,1.5179,1.526,1.5342,1.5496,1.578,1.5878,1.5999,1.6202,1.643,1.6633,1.6738,1.6974,1.721,1.7364,1.7624,1.7811,1.7924,1.807,1.8135,1.8062,1.7843,1.764,1.7543,1.7453,1.7364,1.7283,1.7258,1.7218,1.7128,1.7112,1.7112,1.7112,1.7112,1.7112,1.7112,1.7112,1.7112,1.7112,1.7112,1.7112,1.7112,1.7112,1.7112,1.7112,1.7112,1.7112,3.312,3.2652,3.2652,3.2438,3.1885,3.0038,2.8368,2.6817,2.527,2.4104,2.3174,2.1639,1.9683,1.8022,1.7802,1.8499,1.9697,1.8592,1.8651,2.0042,1.8685,1.8092,1.8451,1.8524,1.8561,1.8757,1.8875,1.9378,2.0259,2.0353,2.0968,2.2288,2.2277,2.2327,2.2433,2.2921,2.2996,2.2815,2.261,2.2301,2.1867,2.2189,2.2293,2.1859,2.1164,2.0049,1.87,1.8759,1.7662,1.523,1.5502,1.5298,1.4472,1.3775,1.3579,1.4058,1.4066,1.4123,1.4335,1.4481,1.4708,1.5057,1.509,1.5212,1.5447,1.5301,1.513,1.513,1.5374,1.5569,1.5577,1.5666,1.5804,1.6073,1.6146,1.6276,1.6544,1.6738,1.6877,1.6933,1.7193,1.7404,1.7534,1.7746,1.7924,1.7989,1.8095,1.8168,1.816,1.8054,1.7916,1.7794,1.7697,1.7583,1.7461,1.7445,1.7388,1.7242,1.7201,1.7201,1.7185,1.7153,1.7112,1.7112,1.7112,1.7112,1.7112,1.7112,1.7112,1.7112,1.7112,1.7112,1.7112,1.7112,1.7112,3.3227,3.2959,3.2933,3.2612,3.2091,3.1606,3.1093,3.089,3.089,2.9708,2.7256,2.1685,1.8947,1.8371,1.8223,1.8267,1.8451,1.7928,1.787,1.8275,1.7851,1.8817,2.0454,2.0786,2.1673,2.2882,2.2862,2.2641,2.2902,2.288,2.2663,2.2468,2.2266,2.3011,2.4459,2.5931,2.6738,2.6725,2.6698,2.5775,2.384,2.5092,2.5754,2.5452,2.3959,2.2889,2.2106,1.939,1.8341,1.8999,1.6269,1.5285,1.6839,1.5302,1.431,1.4789,1.4562,1.4529,1.4846,1.4911,1.5082,1.5415,1.5463,1.5488,1.5545,1.5642,1.5626,1.5553,1.565,1.5756,1.5772,1.6024,1.6219,1.6292,1.643,1.6552,1.6617,1.6747,1.6909,1.708,1.7291,1.7502,1.7778,1.79,1.7981,1.8111,1.8152,1.8176,1.8176,1.8152,1.8119,1.8054,1.7867,1.7672,1.7624,1.7616,1.7591,1.7559,1.7453,1.7372,1.7323,1.7218,1.7112,1.7112,1.7112,1.7112,1.7112,1.7112,1.7112,1.7112,1.7112,1.7112,1.7112,1.7112,1.7112,3.3347,3.3227,3.3053,3.2639,3.2118,3.1971,3.1824,3.1677,3.0319,2.9338,2.8164,2.449,2.2499,2.2339,2.1908,2.2272,2.3164,2.186,2.2001,2.3028,2.2049,2.1837,2.2454,2.2525,2.2997,2.3504,2.3526,2.4141,2.4986,2.5916,2.6339,2.5942,2.5736,2.5862,2.6298,2.6928,2.7268,2.7268,2.7268,2.6809,2.6099,2.6413,2.6587,2.6466,2.5648,2.4667,2.3502,2.2889,2.1533,1.9131,1.8974,1.8659,1.7292,1.6241,1.5937,1.6135,1.5437,1.5139,1.5285,1.5382,1.5512,1.5658,1.5772,1.5869,1.5975,1.6146,1.6219,1.6162,1.6105,1.6089,1.6105,1.6316,1.6511,1.6609,1.6698,1.6779,1.6893,1.7055,1.7201,1.7283,1.7526,1.7737,1.79,1.8005,1.8095,1.8168,1.8176,1.8176,1.8176,1.8176,1.8176,1.816,1.8038,1.7924,1.7835,1.7802,1.7762,1.7664,1.7583,1.7526,1.7404,1.7348,1.725,1.7136,1.7128,1.7128,1.7112,1.7112,1.7112,1.7112,1.7112,1.7112,1.7112,1.7112,1.7112,3.3414,3.336,3.3093,3.2679,3.2225,3.2131,3.1891,3.1394,3.0077,2.9492,2.9239,2.7756,2.7007,2.6616,2.5195,2.5101,2.6048,2.453,2.4654,2.585,2.447,2.4052,2.4441,2.4496,2.4789,2.5023,2.5339,2.6021,2.702,2.7635,2.8247,2.8167,2.7748,2.7538,2.7682,2.7642,2.7629,2.7642,2.7629,2.7589,2.7482,2.7215,2.6987,2.6814,2.6627,2.5857,2.4726,2.5302,2.4182,2.0479,2.1619,2.1148,1.8787,1.814,1.7951,1.8025,1.6912,1.6561,1.7075,1.6733,1.6666,1.6571,1.6419,1.6243,1.6373,1.6503,1.6576,1.656,1.6503,1.6438,1.6397,1.6584,1.6763,1.6852,1.6925,1.7055,1.7177,1.7348,1.7469,1.7551,1.7746,1.794,1.7997,1.8095,1.8168,1.8176,1.8176,1.8176,1.8176,1.8176,1.8176,1.8176,1.8168,1.8119,1.8014,1.7989,1.7908,1.7835,1.777,1.7681,1.7543,1.751,1.7404,1.7283,1.7218,1.7153,1.712,1.7112,1.7112,1.7112,1.7112,1.7112,1.7112,1.7112,1.7112,3.3414,3.3374,3.3106,3.2812,3.2505,3.2238,3.1797,3.1356,3.1354,3.1314,3.094,3.1152,3.1257,3.0773,2.6993,2.4857,2.4624,2.4393,2.4363,2.4397,2.4195,2.4801,2.6604,2.6834,2.7665,2.8821,2.8873,2.9152,2.9079,2.7385,2.7109,2.8419,2.698,2.6795,2.8273,2.8417,2.8524,2.8444,2.8444,2.8377,2.8123,2.7816,2.7428,2.6961,2.6827,2.6666,2.6452,2.5072,2.4589,2.5846,2.3005,2.1637,2.233,2.1201,2.0511,2.0422,1.9075,1.8882,2.0169,1.9095,1.821,1.8404,1.7281,1.656,1.6592,1.6657,1.6674,1.66,1.6779,1.6787,1.6665,1.6885,1.7006,1.6925,1.7169,1.7323,1.7372,1.751,1.7697,1.7827,1.79,1.7997,1.8135,1.8168,1.8176,1.8176,1.8176,1.8176,1.8176,1.8176,1.8176,1.8176,1.8176,1.8168,1.816,1.8119,1.8127,1.807,1.7949,1.7884,1.7835,1.7754,1.7575,1.7429,1.7364,1.7274,1.7161,1.7112,1.7112,1.7112,1.7112,1.7112,1.7112,1.7112,1.7112,3.3414,3.34,3.3293,3.3093,3.2799,3.2505,3.2158,3.177,3.149,3.133,3.1249,3.1343,3.1383,3.1195,2.9822,2.903,2.8644,2.822,2.7958,2.7845,2.7783,2.8016,2.8423,2.85,2.8804,2.9216,2.9553,2.9593,2.9499,2.8647,2.836,2.8499,2.7904,2.7813,2.835,2.831,2.8404,2.8577,2.8604,2.8644,2.8684,2.8617,2.827,2.7696,2.7482,2.7295,2.7121,2.6502,2.5873,2.5198,2.4602,2.4256,2.3514,2.193,1.982,1.8003,1.717,1.7328,1.7991,1.7636,1.7406,1.7323,1.7098,1.6909,1.6958,1.7112,1.7218,1.7145,1.725,1.7274,1.7161,1.7218,1.7266,1.7234,1.7307,1.7437,1.7526,1.7607,1.7713,1.7884,1.8005,1.8111,1.8152,1.8176,1.8176,1.8176,1.8176,1.8176,1.8176,1.8176,1.8176,1.8176,1.8176,1.8176,1.8176,1.8176,1.8168,1.816,1.8095,1.8005,1.794,1.79,1.7754,1.7591,1.751,1.7421,1.7307,1.721,1.7193,1.7136,1.7136,1.7145,1.7112,1.7112,1.7112,3.3614,3.3414,3.3414,3.324,3.2959,3.2772,3.2412,3.1957,3.1637,3.1356,3.1142,3.1183,3.1169,3.1129,3.1303,3.1356,3.1183,3.0715,3.0448,3.0327,3.0047,2.982,2.9646,2.9619,2.9526,2.9366,2.9419,2.9486,2.9472,2.9379,2.9125,2.8764,2.8751,2.8644,2.8457,2.843,2.8511,2.8617,2.8698,2.8804,2.8911,2.8991,2.8858,2.847,2.823,2.7896,2.7442,2.7402,2.6816,2.5778,2.6331,2.6095,2.4786,2.307,2.1286,1.9602,1.866,1.8366,1.8876,1.8139,1.7528,1.7605,1.7297,1.7288,1.7822,1.8262,1.8705,1.9026,1.9482,1.9536,1.9464,1.9464,1.8954,1.7844,1.7469,1.7543,1.7705,1.7778,1.7875,1.7989,1.8095,1.816,1.8176,1.8176,1.8176,1.8176,1.8176,1.8176,1.8176,1.8176,1.8176,1.8176,1.8176,1.8176,1.8176,1.8176,1.8176,1.8168,1.8168,1.8087,1.8046,1.8005,1.7924,1.7762,1.7648,1.7551,1.7453,1.7348,1.7274,1.7218,1.721,1.7234,1.7177,1.7112,1.7128,3.38,3.3387,3.34,3.3227,3.2986,3.2946,3.2478,3.1904,3.1957,3.157,3.1036,3.1129,3.1076,3.0875,3.0915,3.0996,3.1089,3.0875,3.0648,3.0434,3.0127,2.9967,2.9927,2.9913,2.9887,2.982,2.9619,2.9499,2.9472,2.9259,2.9085,2.9032,2.9005,2.8965,2.9005,2.8938,2.8871,2.8778,2.8911,2.8911,2.8698,2.8951,2.9058,2.9018,2.8978,2.8591,2.7789,2.7736,2.7722,2.7516,2.7415,2.7001,2.6134,2.4765,2.4812,2.5186,2.3614,2.319,2.4063,2.1361,1.9656,1.9653,1.8348,1.8418,1.9859,2.0362,2.0999,2.2236,2.2736,2.3187,2.303,2.2788,2.158,1.857,1.8002,1.8077,1.8075,1.8248,1.8168,1.8346,1.8354,1.8176,1.8176,1.8176,1.8176,1.8176,1.8176,1.8176,1.8176,1.8176,1.8176,1.8176,1.8176,1.8176,1.8176,1.8176,1.8176,1.8176,1.8176,1.8144,1.8135,1.8103,1.8054,1.7924,1.7835,1.7737,1.7583,1.7494,1.7469,1.7421,1.7388,1.7348,1.7307,1.7258,1.7193,3.3305,3.312,3.3106,3.3066,3.2986,3.2986,3.2799,3.2505,3.2064,3.165,3.141,3.1276,3.1062,3.0902,3.0996,3.1022,3.0929,3.0835,3.0849,3.0875,3.0635,3.0394,3.0247,3.0221,3.0114,2.9927,2.9833,2.9673,2.9513,2.9392,2.9259,2.9085,2.9058,2.9045,2.9058,2.9045,2.9058,2.9192,2.9085,2.9165,2.9446,2.9392,2.9339,2.9339,2.9339,2.9098,2.8644,2.843,2.8337,2.831,2.803,2.7184,2.574,2.5212,2.4795,2.4042,2.3067,2.2544,2.3276,2.2589,2.177,2.2008,2.1747,2.1919,2.2495,2.265,2.3062,2.3694,2.3677,2.3774,2.3644,2.2372,2.1316,1.9989,1.9807,1.9688,1.9876,2.1074,2.0742,1.8913,1.9276,1.9462,1.8541,1.8184,1.8192,1.8192,1.8192,1.82,1.8176,1.8192,1.8176,1.8176,1.8176,1.8176,1.8176,1.8176,1.8176,1.8176,1.8176,1.8176,1.8176,1.8168,1.8127,1.8087,1.7997,1.79,1.7737,1.7672,1.7656,1.7616,1.7567,1.7526,1.7486,1.7429,1.7364,3.3762,3.3565,3.3381,3.3368,3.3579,3.3278,3.3278,3.3117,3.2592,3.2038,3.181,3.1517,3.1223,3.0996,3.0929,3.0875,3.0795,3.0795,3.0955,3.1142,3.0929,3.0688,3.0501,3.0394,3.0354,3.0234,3.014,2.9993,2.982,2.9793,2.9659,2.9419,2.9366,2.9312,2.9219,2.9205,2.9272,2.9299,2.9245,2.9379,2.9659,2.9686,2.9646,2.9646,2.9646,2.9539,2.9366,2.9179,2.8991,2.8764,2.847,2.7656,2.6398,2.6575,2.6116,2.4889,2.4132,2.3971,2.3922,2.3435,2.3173,2.3412,2.3629,2.4085,2.4498,2.4868,2.5105,2.5745,2.5535,2.5082,2.4766,2.3283,2.1827,2.0913,1.9934,1.9813,2.015,2.1111,2.0751,1.8913,1.9099,1.9311,1.8624,1.8273,1.8273,1.8282,1.8338,1.8282,1.8257,1.8241,1.8241,1.8217,1.8176,1.8176,1.8176,1.8176,1.8176,1.8176,1.8176,1.8176,1.8176,1.8176,1.8152,1.8144,1.8079,1.8062,1.7932,1.7908,1.7892,1.7819,1.7737,1.7681,1.7632,1.7591,1.7534,3.4927,3.4549,3.3973,3.3973,3.4394,3.3864,3.3652,3.3831,3.3327,3.2807,3.2377,3.2082,3.1557,3.1196,3.0862,3.0728,3.0768,3.0849,3.0982,3.1116,3.1009,3.0889,3.0795,3.0568,3.0528,3.0648,3.0488,3.0381,3.0327,3.0341,3.0234,2.9993,2.9913,2.9806,2.9606,2.9539,2.9406,2.9272,2.9366,2.9486,2.9553,2.9726,2.9873,2.9887,2.9873,2.986,2.9833,2.978,2.9579,2.9112,2.8791,2.8497,2.8323,2.8484,2.8366,2.7814,2.7008,2.6472,2.6018,2.5266,2.4474,2.4654,2.4598,2.4629,2.6387,2.6949,2.7429,2.8665,2.7938,2.6966,2.658,2.4934,2.3116,2.1287,1.9885,1.8769,1.833,1.8744,1.9328,1.8769,1.8208,1.8453,1.8633,1.8468,1.8468,1.8493,1.8582,1.8501,1.8395,1.8371,1.8355,1.8314,1.8257,1.82,1.8208,1.8176,1.8176,1.8176,1.8176,1.8176,1.8176,1.8176,1.8176,1.8168,1.816,1.8152,1.8135,1.8079,1.8038,1.7965,1.7892,1.7827,1.7802,1.7786,1.7737,3.4745,3.4549,3.4366,3.4366,3.4591,3.4488,3.4571,3.4659,3.4253,3.3876,3.3266,3.3021,3.2408,3.1557,3.1396,3.1142,3.0942,3.1022,3.1129,3.1249,3.141,3.1289,3.1089,3.0822,3.0715,3.0782,3.0715,3.0675,3.0675,3.0662,3.0608,3.0555,3.0314,3.0221,3.0114,2.9913,2.978,2.9659,2.9526,2.9606,2.974,2.9646,2.9713,2.99,2.9913,2.9913,2.9913,2.9913,2.9766,2.9392,2.9085,2.8898,2.8845,2.9072,2.9165,2.8937,2.8868,2.8647,2.8458,2.8092,2.7966,2.8042,2.7762,2.8399,2.8769,2.9012,2.9257,2.9806,2.9335,2.8449,2.6979,2.5172,2.3404,2.1849,2.0807,1.9798,1.9125,2.0881,2.1711,1.9321,1.9793,1.9699,1.9005,1.8655,1.8647,1.8663,1.8704,1.8704,1.8582,1.8566,1.8582,1.846,1.8379,1.829,1.8233,1.8192,1.8176,1.8176,1.8176,1.8176,1.8176,1.8176,1.8176,1.8176,1.8168,1.8168,1.8168,1.8144,1.8111,1.8079,1.8062,1.8014,1.8046,1.8054,1.7957,3.5333,3.5137,3.4941,3.4941,3.518,3.5083,3.521,3.5167,3.4829,3.4547,3.428,3.4031,3.3505,3.2969,3.2586,3.2244,3.177,3.1705,3.1705,3.1797,3.2121,3.1732,3.1383,3.1036,3.1154,3.1326,3.1218,3.1335,3.1335,3.1335,3.128,3.0961,3.0934,3.0724,3.0528,3.0394,3.0207,3.01,2.9927,2.99,2.99,2.9753,2.9753,2.9887,2.9913,2.9913,2.9913,2.9913,2.9833,2.9673,2.9513,2.9406,2.9419,2.9566,2.9606,2.9513,2.9593,2.9619,2.9539,2.9579,2.9659,2.9686,2.9847,2.99,2.99,2.9913,2.9913,2.99,2.9273,2.842,2.716,2.557,2.4037,2.3198,2.2753,2.1937,1.9885,2.0934,2.08,1.9526,1.9594,2.008,1.8809,1.8834,1.8834,1.885,1.8923,1.885,1.8753,1.8793,1.8777,1.8639,1.8541,1.8476,1.8387,1.833,1.8265,1.8257,1.8257,1.8241,1.82,1.8192,1.8176,1.8176,1.8176,1.8176,1.8176,1.8176,1.816,1.8144,1.8176,1.8176,1.8176,1.8176,1.8103,3.6173,3.6173,3.5586,3.5767,3.6036,3.5479,3.5408,3.5805,3.538,3.5182,3.4927,3.4914,3.4535,3.4507,3.3573,3.3331,3.3261,3.2734,3.2716,3.278,3.2724,3.2308,3.1597,3.157,3.177,3.197,3.1737,3.2011,3.2181,3.2337,3.1972,3.1496,3.1409,3.1307,3.0912,3.0926,3.0648,3.0448,3.0381,3.0261,3.0127,3.002,2.9993,3.0007,3.002,3.0047,3.006,3.006,3.0034,3.002,2.9953,2.986,2.9873,2.99,2.9833,2.9713,2.9833,2.986,2.97,2.99,2.9993,2.9993,3.0007,3.0007,3.0074,3.0114,3.01,3.0127,2.8585,2.8124,2.7425,2.6108,2.5473,2.5141,2.5152,2.423,2.2744,2.0655,1.9321,1.8753,1.8953,1.9245,1.8948,1.9013,1.9013,1.9021,1.9077,1.9037,1.8972,1.898,1.8915,1.8785,1.872,1.868,1.8582,1.8485,1.8412,1.8355,1.8371,1.8347,1.8265,1.8233,1.8192,1.8176,1.8176,1.8176,1.8176,1.8176,1.8176,1.8176,1.8176,1.8176,1.8176,1.8176,1.8135,3.6495,3.6495,3.6312,3.6298,3.6509,3.637,3.6202,3.64,3.6216,3.6004,3.5593,3.5522,3.5168,3.4549,3.4492,3.4129,3.4069,3.3835,3.3723,3.3471,3.3429,3.3121,3.244,3.2343,3.2654,3.2766,3.2821,3.2827,3.2659,3.2746,3.2463,3.2056,3.2084,3.19,3.1375,3.1416,3.1137,3.0886,3.0702,3.0662,3.0541,3.0354,3.0261,3.0261,3.0261,3.0381,3.0555,3.0595,3.0595,3.0501,3.0207,2.9993,2.998,2.9967,3.002,3.014,3.0194,3.0234,3.0221,3.0381,3.0488,3.0301,3.0421,3.0608,3.0608,3.0568,3.0581,3.0608,3.028,2.9384,2.8285,2.7541,2.7509,2.7464,2.7511,2.7392,2.6759,2.4939,2.2375,2.0483,2.0579,2.1085,1.9577,1.9568,1.938,1.9199,1.9199,1.9207,1.9183,1.9151,1.9061,1.8939,1.8915,1.8866,1.8728,1.8631,1.8558,1.8493,1.8493,1.8485,1.8403,1.8314,1.829,1.8233,1.8176,1.8176,1.8176,1.8176,1.8176,1.8176,1.8176,1.8176,1.8176,1.8176,1.8176,3.6612,3.6612,3.6612,3.6612,3.6612,3.6612,3.6612,3.6612,3.6612,3.64,3.6202,3.6202,3.5903,3.5548,3.5405,3.5218,3.5075,3.4918,3.4389,3.4163,3.3964,3.3799,3.3341,3.3343,3.3372,3.3341,3.3327,3.3414,3.3315,3.3272,3.3187,3.2903,3.2959,3.2901,3.2315,3.2101,3.1688,3.138,3.1168,3.0942,3.0782,3.0662,3.0568,3.0568,3.0568,3.0648,3.0755,3.0782,3.0782,3.0715,3.0501,3.0327,3.0327,3.0327,3.0408,3.0515,3.0568,3.0568,3.0621,3.0688,3.0715,3.0581,3.0715,3.0755,3.0795,3.0795,3.0795,3.0822,3.0902,3.0464,2.9832,2.967,2.9759,2.9822,2.9886,2.9582,2.85,2.6693,2.4693,2.279,2.3247,2.2526,2.1594,2.0423,1.9643,1.9618,1.9232,1.924,1.924,1.9207,1.9199,1.9126,1.9118,1.9045,1.8883,1.8777,1.8696,1.8655,1.8639,1.8631,1.8582,1.8485,1.8395,1.8306,1.8217,1.8176,1.8176,1.8176,1.8176,1.8176,1.8176,1.8176,1.8176,1.8176,1.8176,3.6612,3.6612,3.6612,3.6612,3.6612,3.6612,3.6612,3.6612,3.6612,3.6597,3.6612,3.6612,3.6385,3.6539,3.6334,3.6202,3.6129,3.5968,3.5255,3.4696,3.4928,3.4667,3.4291,3.4305,3.419,3.3859,3.3844,3.3973,3.4129,3.4227,3.377,3.3628,3.3859,3.35,3.3225,3.2947,3.2445,3.2253,3.1664,3.1396,3.1195,3.0915,3.0862,3.0862,3.0862,3.0915,3.0996,3.1009,3.0969,3.0915,3.0929,3.0929,3.0902,3.0808,3.0835,3.0849,3.0862,3.0862,3.0889,3.0929,3.0955,3.0889,3.0942,3.0942,3.0969,3.1009,3.1022,3.1062,3.1169,3.1383,3.1623,3.1394,3.1407,3.146,3.1664,3.089,2.9338,2.7407,2.6409,2.4667,2.4279,2.3716,2.2172,2.0817,2.0226,1.984,1.9454,1.9264,1.9264,1.9256,1.924,1.9232,1.9199,1.9191,1.9053,1.8996,1.8907,1.8866,1.8842,1.8801,1.8785,1.8712,1.8598,1.8355,1.8257,1.8241,1.82,1.8176,1.8176,1.8176,1.8176,1.8176,1.8176,1.8176,1.8176,3.6612,3.6612,3.6612,3.6612,3.6612,3.6612,3.6612,3.6612,3.6612,3.6612,3.6612,3.6612,3.6612,3.6583,3.6568,3.6524,3.6451,3.6348,3.6036,3.5652,3.5792,3.5468,3.5177,3.528,3.531,3.5251,3.4755,3.4478,3.4578,3.4358,3.43,3.3838,3.4056,3.4045,3.3729,3.3585,3.3351,3.2863,3.2285,3.2055,3.1974,3.145,3.1156,3.1156,3.1156,3.1263,3.1436,3.1503,3.1517,3.1517,3.1517,3.1503,3.1383,3.1062,3.0982,3.1102,3.1156,3.1156,3.1169,3.1356,3.1343,3.1289,3.133,3.1476,3.149,3.149,3.1423,3.1463,3.1503,3.161,3.1664,3.1677,3.1677,3.1677,3.1677,3.1474,3.108,3.0115,2.8176,2.5076,2.4882,2.4688,2.3141,2.1585,2.0817,2.0038,1.9454,1.9264,1.9264,1.9264,1.9256,1.9256,1.9256,1.9248,1.9207,1.9191,1.9151,1.9118,1.9086,1.9021,1.8996,1.8948,1.8809,1.8574,1.842,1.8371,1.8314,1.8241,1.8217,1.8241,1.8217,1.8184,1.8176,1.8176,1.8176,3.6612,3.6612,3.6612,3.6612,3.6612,3.6612,3.6612,3.6612,3.6612,3.6612,3.6612,3.6612,3.6612,3.6612,3.6612,3.6612,3.6612,3.6597,3.6422,3.6173,3.61,3.5953,3.5705,3.5661,3.5763,3.5705,3.5427,3.5192,3.5192,3.5061,3.4812,3.4827,3.49,3.4682,3.4378,3.4291,3.4059,3.3422,3.28,3.2421,3.2421,3.1679,3.1652,3.1638,3.1638,3.1719,3.1989,3.1853,3.1664,3.1664,3.1664,3.1677,3.1583,3.1463,3.1303,3.141,3.145,3.145,3.1463,3.161,3.157,3.1503,3.161,3.1664,3.1677,3.165,3.1677,3.1677,3.1677,3.1677,3.1677,3.1677,3.1677,3.1677,3.1677,3.1677,3.1677,3.1677,2.9147,2.6238,2.7599,2.7203,2.4105,2.275,2.1397,2.0423,1.9454,1.9256,1.9454,1.9651,1.9651,1.9264,1.9264,1.9256,1.9256,1.9256,1.9264,1.9264,1.9248,1.9191,1.9167,1.9102,1.8988,1.8818,1.8688,1.8582,1.8493,1.8452,1.8379,1.8298,1.8249,1.8208,1.8192,1.8176,1.8176,3.6612,3.6612,3.6612,3.6612,3.6612,3.6612,3.6612,3.6612,3.6612,3.6612,3.6612,3.6612,3.6612,3.6612,3.6612,3.6612,3.6612,3.6612,3.6451,3.6305,3.6246,3.6085,3.5924,3.5866,3.5997,3.6144,3.5997,3.5807,3.569,3.5573,3.5602,3.55,3.5588,3.5529,3.5295,3.4855,3.4478,3.3927,3.3261,3.2869,3.2435,3.2043,3.2043,3.2232,3.2043,3.184,3.2232,3.1853,3.1664,3.1677,3.1677,3.1677,3.1677,3.1677,3.1677,3.1677,3.1677,3.1677,3.1664,3.1664,3.1664,3.1623,3.1664,3.1677,3.1677,3.1677,3.1677,3.1677,3.1677,3.1677,3.1677,3.1677,3.1677,3.1677,3.1677,3.1677,3.1677,3.1474,3.1093,3.0115,3.1284,2.8764,2.4903,2.3141,2.1781,2.0817,1.984,1.9651,1.984,2.0432,2.0432,1.9651,1.9264,1.9264,1.9256,1.9256,1.9264,1.9264,1.9264,1.9232,1.9232,1.9232,1.911,1.8996,1.8964,1.8858,1.8761,1.8623,1.8517,1.8412,1.8306,1.8233,1.82,1.8176,1.8176,3.6612,3.6612,3.6612,3.6612,3.6612,3.6612,3.6612,3.6612,3.6612,3.6612,3.6612,3.6612,3.6612,3.6612,3.6612,3.6612,3.6612,3.6597,3.6568,3.6495,3.6495,3.6466,3.6451,3.6495,3.6407,3.6466,3.6451,3.6319,3.6085,3.5836,3.5705,3.5719,3.5749,3.5617,3.5602,3.5588,3.5412,3.4973,3.4331,3.3633,3.2666,3.2435,3.2449,3.2232,3.2043,3.2043,3.2421,3.2043,3.1853,3.1677,3.1677,3.1677,3.1677,3.1677,3.1677,3.1677,3.1677,3.1677,3.1677,3.1677,3.1677,3.1677,3.1677,3.1677,3.1677,3.1704,3.1717,3.1677,3.169,3.1677,3.1677,3.1677,3.1677,3.1677,3.1677,3.1677,3.1677,3.1677,3.1284,3.1323,3.154,2.8031,2.4156,2.2965,2.1977,2.1005,2.0432,2.0235,2.0038,2.0432,2.0629,1.9651,1.9264,1.9264,1.9264,1.9264,1.9264,1.9264,1.9264,1.9264,1.9264,1.9264,1.9256,1.9175,1.9142,1.9053,1.8899,1.8761,1.8631,1.8517,1.842,1.8306,1.8192,1.8184,1.8176,3.6612,3.6612,3.6612,3.6612,3.6612,3.6612,3.6612,3.6612,3.6612,3.6612,3.6612,3.6612,3.6612,3.6612,3.6612,3.6612,3.6612,3.6612,3.6612,3.6612,3.6612,3.6612,3.6583,3.6597,3.6612,3.6612,3.6597,3.6524,3.6348,3.6275,3.6187,3.6158,3.6158,3.61,3.5939,3.5909,3.5719,3.5337,3.4838,3.3914,3.3132,3.2858,3.2979,3.2813,3.2624,3.2624,3.2624,3.2421,3.2043,3.1853,3.1677,3.1677,3.1677,3.1677,3.1677,3.1677,3.1677,3.1677,3.1677,3.1677,3.1677,3.1677,3.1677,3.1677,3.1704,3.181,3.1824,3.1677,3.1824,3.1837,3.173,3.1677,3.1677,3.169,3.177,3.1744,3.173,3.1677,3.1677,3.1744,3.1416,2.8161,2.5441,2.4618,2.3042,2.0501,2.0294,2.0475,2.0063,1.9651,1.9651,1.9454,1.9264,1.9264,1.9264,1.9264,1.9264,1.9264,1.9264,1.9264,1.9264,1.9264,1.9264,1.9264,1.9216,1.9118,1.9004,1.8915,1.8809,1.8671,1.8517,1.8379,1.8241,1.8184,1.8176,3.6612,3.6612,3.6612,3.6612,3.6612,3.6612,3.6612,3.6612,3.6612,3.6612,3.6612,3.6612,3.6612,3.6612,3.6612,3.6612,3.6612,3.6612,3.6612,3.6612,3.6612,3.6612,3.6612,3.6612,3.6612,3.6612,3.6612,3.6583,3.6597,3.6568,3.6539,3.6612,3.6509,3.6436,3.6305,3.6217,3.6085,3.5792,3.5275,3.4525,3.3793,3.3751,3.3816,3.3661,3.3534,3.3478,3.3464,3.2813,3.2421,3.2043,3.1853,3.1853,3.1677,3.1677,3.1677,3.1704,3.1744,3.181,3.1784,3.1744,3.169,3.169,3.1744,3.1784,3.1717,3.1957,3.2091,3.1837,3.2064,3.2064,3.1957,3.1931,3.1971,3.1984,3.1971,3.1917,3.1891,3.1931,3.1984,3.2078,3.1373,2.9627,2.7433,2.6733,2.4526,2.0785,1.9974,2.0535,2.032,1.9907,1.9289,1.9297,1.9264,1.9264,1.9264,1.9264,1.9264,1.9264,1.9264,1.9264,1.9264,1.9264,1.9264,1.9264,1.9264,1.9224,1.9134,1.9061,1.898,1.8777,1.8582,1.8412,1.829,1.8225,1.8184,3.6612,3.6612,3.6612,3.6612,3.6612,3.6612,3.6612,3.6612,3.6612,3.6612,3.6612,3.6612,3.6612,3.6612,3.6612,3.6612,3.6612,3.6612,3.6612,3.6612,3.6612,3.6612,3.6612,3.6612,3.6612,3.6612,3.6612,3.6612,3.6612,3.6612,3.6612,3.6612,3.6612,3.6597,3.6539,3.6466,3.6363,3.6085,3.5701,3.5348,3.486,3.4832,3.4789,3.4511,3.4134,3.3788,3.4155,3.3591,3.31,3.2531,3.2355,3.2355,3.2205,3.2015,3.1824,3.2055,3.2176,3.2243,3.2243,3.1904,3.173,3.177,3.1877,3.1998,3.1877,3.2251,3.2318,3.2351,3.2539,3.2646,3.2633,3.2465,3.2345,3.2305,3.2251,3.2265,3.2265,3.2318,3.2385,3.2465,3.1503,2.9726,2.859,2.7509,2.5179,2.1595,2.1768,2.2538,2.1668,2.1036,1.9767,1.9337,1.9281,1.9264,1.9264,1.9264,1.9264,1.9264,1.9264,1.9264,1.9264,1.9264,1.9264,1.9264,1.9264,1.9264,1.9256,1.9183,1.9061,1.8842,1.8639,1.846,1.8314,1.8233,1.8208,3.6612,3.6612,3.6612,3.6612,3.6612,3.6612,3.6612,3.6612,3.6612,3.6612,3.6612,3.6612,3.6612,3.6612,3.6612,3.6612,3.6612,3.6612,3.6612,3.6612,3.6612,3.6612,3.6612,3.6612,3.6612,3.6612,3.6612,3.6612,3.6612,3.6626,3.6612,3.6612,3.6641,3.6597,3.6612,3.6612,3.6509,3.6436,3.6275,3.5963,3.537,3.5536,3.5449,3.4846,3.5188,3.4689,3.466,3.4383,3.3943,3.3531,3.3133,3.3106,3.29,3.2543,3.2543,3.2543,3.2678,3.2926,3.2746,3.2445,3.2211,3.2225,3.2318,3.2305,3.2364,3.2976,3.3003,3.3157,3.3225,3.3361,3.3143,3.2727,3.2505,3.2532,3.2767,3.2794,3.2821,3.2861,3.2861,3.3097,3.1565,2.9809,2.8872,2.7928,2.5354,2.2828,2.3605,2.3957,2.2678,2.1586,2.0108,1.941,1.9345,1.9272,1.9264,1.9264,1.9264,1.9264,1.9264,1.9264,1.9264,1.9264,1.9264,1.9264,1.9264,1.9264,1.9264,1.9264,1.9118,1.8866,1.8663,1.8485,1.8363,1.8265,1.8265,3.6612,3.6612,3.6612,3.6612,3.6612,3.6612,3.6612,3.6612,3.6612,3.6612,3.6612,3.6612,3.6612,3.6612,3.6612,3.6612,3.6612,3.6612,3.6612,3.6612,3.6612,3.6612,3.6612,3.6612,3.6612,3.6612,3.6612,3.6612,3.6612,3.67,3.6773,3.6787,3.6744,3.6729,3.6612,3.6612,3.6612,3.6612,3.6583,3.6327,3.5883,3.605,3.6007,3.5565,3.5672,3.5599,3.5348,3.5068,3.4803,3.4403,3.4031,3.3865,3.3685,3.3519,3.3324,3.3532,3.3588,3.3629,3.3629,3.3352,3.2935,3.2673,3.3211,3.3003,3.3043,3.3653,3.3945,3.3725,3.3904,3.4,3.3753,3.3653,3.3483,3.3735,3.3721,3.3748,3.3735,3.3748,3.3721,3.3511,3.2181,3.1476,2.9486,2.8525,2.6638,2.4302,2.3711,2.3635,2.2692,2.1379,2.0066,1.954,1.9419,1.9345,1.9272,1.9281,1.9289,1.9264,1.9264,1.9264,1.9264,1.9264,1.9264,1.9264,1.9264,1.9264,1.924,1.9199,1.9053,1.8866,1.8704,1.8558,1.8517,1.8436,1.8379,3.6597,3.6612,3.6612,3.6612,3.6612,3.6612,3.6612,3.6612,3.6612,3.6612,3.6612,3.6612,3.6612,3.6612,3.6612,3.6612,3.6612,3.6612,3.6612,3.6612,3.6612,3.6612,3.6626,3.6626,3.667,3.6612,3.6656,3.67,3.6656,3.6875,3.6992,3.708,3.7065,3.6919,3.6641,3.6612,3.6612,3.6612,3.6612,3.6568,3.6553,3.6524,3.648,3.6392,3.6217,3.6114,3.5876,3.573,3.5463,3.5061,3.4852,3.4644,3.4435,3.4227,3.4032,3.4213,3.4423,3.4535,3.4535,3.4255,3.3824,3.3279,3.3863,3.4059,3.3753,3.417,3.4857,3.4591,3.4773,3.4927,3.4941,3.4927,3.4686,3.4659,3.4433,3.4419,3.4391,3.4377,3.4336,3.3899,3.4049,3.3773,3.1126,2.9092,2.7658,2.6003,2.4608,2.3493,2.2301,2.136,2.0028,1.9727,1.9589,1.9508,1.9435,1.9345,1.9313,1.9281,1.9281,1.9297,1.9281,1.9264,1.9264,1.9264,1.9264,1.9264,1.9191,1.9126,1.9045,1.898,1.8801,1.8671,1.8647,1.859,1.8517,3.6407,3.6612,3.6612,3.6612,3.6612,3.6612,3.6612,3.6612,3.6612,3.6612,3.6612,3.6612,3.6612,3.6612,3.6612,3.6612,3.6612,3.6612,3.6612,3.6612,3.6626,3.6612,3.6656,3.6802,3.6817,3.6714,3.6773,3.6934,3.6948,3.7124,3.7256,3.7344,3.7344,3.7109,3.6758,3.6612,3.6612,3.6612,3.6612,3.6597,3.6612,3.6612,3.6597,3.6597,3.6466,3.6407,3.6407,3.6231,3.6007,3.5811,3.5601,3.5419,3.5419,3.5223,3.4858,3.5069,3.5436,3.545,3.545,3.5533,3.5308,3.4731,3.4533,3.4759,3.4561,3.5055,3.5309,3.5479,3.5522,3.5607,3.5593,3.5182,3.4955,3.4955,3.4742,3.4955,3.4742,3.4941,3.4728,3.4104,3.3987,3.3387,3.1353,2.9927,2.8506,2.6465,2.4834,2.2788,2.1432,2.0908,1.9979,1.9914,1.9817,1.9719,1.9622,1.9532,1.9467,1.9443,1.941,1.9386,1.9354,1.9289,1.9264,1.9264,1.9264,1.9256,1.9216,1.9183,1.9183,1.911,1.8939,1.8858,1.8858,1.8753,1.8598,3.6231,3.6436,3.6553,3.6612,3.6612,3.6612,3.6612,3.6612,3.6612,3.6612,3.6612,3.6612,3.6612,3.6612,3.6612,3.6612,3.6612,3.6612,3.6612,3.6626,3.6744,3.6787,3.6905,3.708,3.7153,3.7036,3.7109,3.7256,3.727,3.7387,3.7548,3.768,3.7622,3.727,3.6934,3.6802,3.6714,3.667,3.6612,3.6612,3.6612,3.6612,3.6612,3.6612,3.6583,3.6597,3.6597,3.6612,3.6612,3.64,3.64,3.6202,3.6202,3.6004,3.5805,3.6004,3.6004,3.6004,3.6173,3.6173,3.5932,3.555,3.5607,3.5408,3.5408,3.5791,3.5989,3.5989,3.6004,3.6004,3.6004,3.5607,3.5607,3.5408,3.5408,3.5607,3.5607,3.5607,3.5607,3.4784,3.4386,3.3374,3.2171,3.0748,2.9522,2.7283,2.5039,2.2788,2.0737,2.043,2.0109,2.0044,1.9979,1.9873,1.9792,1.9727,1.9662,1.9613,1.9565,1.9508,1.9402,1.9337,1.9297,1.9264,1.9264,1.9272,1.9264,1.9248,1.9256,1.9207,1.9094,1.9053,1.9069,1.8923,1.8728,3.61,3.6158,3.6466,3.6583,3.6612,3.6612,3.6612,3.6612,3.6612,3.6612,3.6612,3.6612,3.6612,3.6612,3.6612,3.6612,3.6612,3.6612,3.6656,3.6729,3.6905,3.7007,3.7197,3.7417,3.7461,3.7534,3.7578,3.7592,3.7622,3.7753,3.7929,3.7943,3.7709,3.7417,3.7197,3.7022,3.6875,3.6685,3.6612,3.6612,3.6612,3.6612,3.6612,3.6612,3.6612,3.6612,3.6612,3.6612,3.6612,3.6612,3.6612,3.6612,3.6612,3.6612,3.6612,3.6612,3.6612,3.6597,3.6597,3.6612,3.6612,3.6202,3.64,3.6216,3.6202,3.6202,3.64,3.64,3.64,3.64,3.6414,3.64,3.64,3.64,3.64,3.64,3.64,3.64,3.64,3.6202,3.6004,3.5196,3.4186,3.2773,2.9724,2.7476,2.5029,2.2581,2.0937,2.0529,2.0214,2.0133,2.0068,2.0003,1.9946,1.993,1.9865,1.9817,1.9703,1.963,1.9516,1.9386,1.9337,1.9297,1.9281,1.9289,1.9329,1.9337,1.9329,1.9272,1.924,1.9191,1.9191,1.9045,1.8891,3.569,3.6114,3.6217,3.6392,3.6597,3.6612,3.6612,3.6612,3.6612,3.6612,3.6612,3.6612,3.6612,3.6612,3.6612,3.6612,3.6612,3.6641,3.6787,3.6905,3.7007,3.7226,3.7475,3.7709,3.7753,3.7739,3.7768,3.787,3.79,3.8046,3.8046,3.8002,3.7695,3.7504,3.7373,3.7197,3.6905,3.67,3.6612,3.6612,3.6612,3.6612,3.6612,3.6612,3.6612,3.6612,3.6612,3.6612,3.6612,3.6612,3.6612,3.6612,3.6612,3.6612,3.6612,3.6612,3.6612,3.6612,3.6612,3.6612,3.6626,3.6641,3.6641,3.6612,3.64,3.64,3.6612,3.6612,3.6612,3.6612,3.6612,3.6612,3.6612,3.6612,3.6612,3.6612,3.6612,3.6612,3.6612,3.6597,3.64,3.6202,3.5394,3.2559,2.9522,2.7476,2.5029,2.2581,2.0937,2.0529,2.0304,2.0223,2.019,2.0133,2.0174,2.0174,2.0093,2.0011,1.9873,1.9719,1.9573,1.9459,1.9378,1.9354,1.9354,1.9394,1.9443,1.9459,1.95,1.9459,1.9427,1.9362,1.9281,1.9142,1.9061,3.5383,3.5734,3.588,3.6114,3.6407,3.6553,3.6612,3.6612,3.6612,3.6612,3.6612,3.6612,3.6612,3.6612,3.6612,3.6612,3.6612,3.6612,3.67,3.6802,3.7036,3.7285,3.7578,3.787,3.7929,3.79,3.79,3.7943,3.7914,3.7885,3.7885,3.8017,3.7651,3.7519,3.7402,3.7124,3.6802,3.667,3.6612,3.6612,3.6612,3.6612,3.6612,3.6612,3.6612,3.6612,3.6612,3.6612,3.6612,3.6612,3.6612,3.6612,3.6612,3.6612,3.6612,3.6612,3.6612,3.67,3.6787,3.6817,3.6802,3.6787,3.6773,3.6714,3.6641,3.6612,3.6612,3.6612,3.6612,3.6612,3.6612,3.6612,3.6612,3.6612,3.6612,3.6612,3.6612,3.6612,3.6597,3.6597,3.64,3.6202,3.4585,3.1756,2.951,2.7669,2.543,2.2788,2.1145,2.0529,2.032,2.0288,2.0288,2.0279,2.032,2.032,2.0231,2.0093,1.993,1.9784,1.963,1.9484,1.9362,1.9386,1.9443,1.95,1.9573,1.9662,1.9703,1.9662,1.9605,1.954,1.9427,1.9256,1.9207,3.5163,3.5222,3.5514,3.5822,3.61,3.6407,3.6539,3.6568,3.6583,3.6612,3.6612,3.6612,3.6612,3.6612,3.6612,3.6612,3.6612,3.6612,3.6685,3.6656,3.6963,3.7256,3.7578,3.7856,3.787,3.7973,3.7958,3.7797,3.7592,3.7548,3.7665,3.7943,3.7358,3.7183,3.7329,3.6934,3.667,3.6641,3.6612,3.6612,3.6612,3.6612,3.6612,3.6612,3.6612,3.6612,3.6612,3.6612,3.6612,3.6612,3.6612,3.6612,3.6612,3.6612,3.6612,3.6612,3.6612,3.6773,3.689,3.6934,3.6978,3.7007,3.7051,3.6831,3.667,3.6612,3.6612,3.6612,3.6612,3.6612,3.6612,3.6612,3.6612,3.6612,3.6612,3.6612,3.6612,3.6612,3.6612,3.6597,3.6597,3.6202,3.4997,3.2371,2.9927,2.828,2.5635,2.2788,2.1353,2.0529,2.0328,2.0328,2.032,2.032,2.032,2.0312,2.0296,2.0174,1.9995,1.9808,1.963,1.9475,1.9329,1.9386,1.9467,1.9613,1.9711,1.9833,1.9898,1.9841,1.9784,1.9719,1.9581,1.9427,1.9297,3.4973,3.5207,3.5514,3.569,3.5792,3.61,3.6231,3.6261,3.6509,3.6612,3.6612,3.6612,3.6612,3.6612,3.6612,3.6612,3.6612,3.6626,3.6758,3.6861,3.7051,3.7226,3.7519,3.7665,3.7709,3.7695,3.7651,3.7504,3.727,3.7212,3.7212,3.73,3.6934,3.6934,3.7212,3.6773,3.6612,3.6612,3.6612,3.6612,3.6612,3.6612,3.6612,3.6612,3.6612,3.6612,3.6612,3.6612,3.6612,3.6612,3.6612,3.6612,3.6612,3.6612,3.6612,3.6612,3.6626,3.6846,3.6992,3.7022,3.6992,3.6992,3.6948,3.6744,3.6626,3.6612,3.6612,3.6612,3.6612,3.6612,3.6612,3.6612,3.6612,3.6612,3.6612,3.6612,3.6612,3.6612,3.6612,3.6612,3.6612,3.5805,3.4798,3.2973,3.0748,2.8099,2.5461,2.3014,2.1778,2.0954,2.0336,2.0336,2.0328,2.032,2.0336,2.0312,2.0296,2.0198,2.0028,1.9833,1.9622,1.9451,1.9305,1.9394,1.9492,1.9646,1.9841,2.006,2.0093,2.002,1.9971,1.9914,1.9817,1.967,1.9484,3.4812,3.5002,3.5295,3.5514,3.569,3.5983,3.6114,3.6173,3.6466,3.6612,3.6612,3.6612,3.6612,3.6612,3.6612,3.6612,3.6612,3.6612,3.667,3.6831,3.7036,3.7168,3.7344,3.7461,3.7446,3.7402,3.7197,3.7022,3.6919,3.689,3.689,3.6992,3.6802,3.6744,3.6992,3.6787,3.6612,3.6612,3.6612,3.6612,3.6612,3.6612,3.6612,3.6612,3.6612,3.6612,3.6612,3.6612,3.6612,3.6612,3.6612,3.6612,3.6656,3.6758,3.6744,3.67,3.6758,3.6963,3.7139,3.7153,3.7065,3.7124,3.7153,3.7095,3.6626,3.6612,3.6612,3.6612,3.6612,3.6612,3.6612,3.6612,3.6612,3.6612,3.6612,3.6612,3.6612,3.6612,3.6612,3.6612,3.64,3.5805,3.4399,3.2158,2.9927,2.7895,2.5255,2.323,2.2003,2.1263,2.0828,2.0377,2.0385,2.0418,2.0466,2.0393,2.0296,2.0182,2.0036,1.976,1.95,1.937,1.9289,1.9386,1.9516,1.9695,1.9906,2.0093,2.0223,2.0182,2.015,2.0117,2.0011,1.9906,1.976,3.4739,3.4797,3.5061,3.5339,3.5661,3.5983,3.6114,3.6173,3.6451,3.6612,3.6612,3.6612,3.6612,3.6612,3.6612,3.6612,3.6612,3.6612,3.6641,3.67,3.689,3.6963,3.7095,3.7241,3.7153,3.7022,3.6831,3.6744,3.667,3.6685,3.6773,3.6919,3.6861,3.6744,3.6861,3.6787,3.6612,3.6612,3.6612,3.6612,3.6612,3.6612,3.6612,3.6612,3.6612,3.6612,3.6612,3.6656,3.6656,3.6685,3.6729,3.6802,3.6831,3.6963,3.6948,3.6934,3.7051,3.7314,3.7504,3.7446,3.7461,3.7504,3.7534,3.7256,3.6773,3.6641,3.6641,3.6685,3.6685,3.6626,3.6626,3.6626,3.6626,3.6612,3.6612,3.6612,3.6612,3.6612,3.6612,3.6612,3.6004,3.5607,3.3587,3.1554,2.9319,2.7294,2.5481,2.3446,2.1856,2.139,2.1044,2.0767,2.0726,2.0758,2.0539,2.0442,2.0304,2.0093,1.9914,1.9622,1.9394,1.9313,1.9297,1.9394,1.954,1.9662,1.9825,1.9995,2.0117,2.0231,2.0255,2.0214,2.0174,2.0076,2.002,3.4856,3.5075,3.5134,3.5339,3.5661,3.5983,3.6114,3.6173,3.6451,3.6612,3.6612,3.6612,3.6612,3.6612,3.6612,3.6612,3.6612,3.6612,3.6612,3.6656,3.6846,3.6787,3.6831,3.7109,3.6817,3.6729,3.6714,3.6641,3.6612,3.6612,3.6626,3.6714,3.67,3.6641,3.6656,3.6612,3.6612,3.6612,3.6612,3.6612,3.6612,3.6612,3.6612,3.6612,3.6612,3.6612,3.6656,3.6875,3.6963,3.6992,3.7007,3.7124,3.7212,3.7241,3.7226,3.727,3.7402,3.7607,3.7739,3.7563,3.7534,3.7534,3.7446,3.7139,3.6831,3.6787,3.6831,3.6948,3.689,3.67,3.667,3.667,3.667,3.6626,3.6612,3.6612,3.6612,3.6612,3.6612,3.6004,3.5408,3.4399,3.2585,3.0558,2.8744,2.6745,2.523,2.3596,2.2807,2.1923,2.1464,2.1381,2.1289,2.0701,2.0401,2.0393,2.0263,2.0036,1.9825,1.9622,1.9443,1.9305,1.9313,1.9362,1.9435,1.954,1.9711,1.9857,2.0003,2.0117,2.0255,2.0288,2.0263,2.0239,2.0166]}]]